<?xml version="1.0" encoding="UTF-8" standalone="no" ?>
<gpx xmlns="http://www.topografix.com/GPX/1/1" xmlns:xsi="http://www.w3.org/2001/XMLSchema-instance" xsi:schemaLocation="http://www.topografix.com/GPX/1/1 http://www.topografix.com/GPX/1/1/gpx.xsd" version="1.1" creator="VisuGPX - https://www.visugpx.com">
  <metadata>
    <name>160928HR3ROBJeunes</name>
    <desc><![CDATA[La sortie de ce jour a ete excellente
]]></desc>
  </metadata>
  <trk>
    <name><![CDATA[160928HR3ROBJeunes]]></name>
    <trkseg>
      <trkpt lat="43.41582" lon="6.07036">
        <ele>208.80000305176</ele>
        <time>2016-09-28T12:06:38Z</time>
      </trkpt>
      <trkpt lat="43.41582" lon="6.07035">
        <ele>208.39999389648</ele>
        <time>2016-09-28T12:06:42Z</time>
      </trkpt>
      <trkpt lat="43.4158" lon="6.07034">
        <ele>208.39999389648</ele>
        <time>2016-09-28T12:06:52Z</time>
      </trkpt>
      <trkpt lat="43.41578" lon="6.07034">
        <ele>208</ele>
        <time>2016-09-28T12:07:02Z</time>
      </trkpt>
      <trkpt lat="43.41579" lon="6.07035">
        <ele>207.80000305176</ele>
        <time>2016-09-28T12:07:09Z</time>
      </trkpt>
      <trkpt lat="43.41577" lon="6.07036">
        <ele>207.80000305176</ele>
        <time>2016-09-28T12:07:12Z</time>
      </trkpt>
      <trkpt lat="43.41577" lon="6.07036">
        <ele>208.19999694824</ele>
        <time>2016-09-28T12:07:22Z</time>
      </trkpt>
      <trkpt lat="43.41578" lon="6.07035">
        <ele>208.19999694824</ele>
        <time>2016-09-28T12:07:30Z</time>
      </trkpt>
      <trkpt lat="43.41576" lon="6.07036">
        <ele>208.19999694824</ele>
        <time>2016-09-28T12:07:32Z</time>
      </trkpt>
      <trkpt lat="43.41577" lon="6.07038">
        <ele>208.19999694824</ele>
        <time>2016-09-28T12:07:34Z</time>
      </trkpt>
      <trkpt lat="43.41579" lon="6.07043">
        <ele>207.80000305176</ele>
        <time>2016-09-28T12:07:37Z</time>
      </trkpt>
      <trkpt lat="43.41582" lon="6.07061">
        <ele>207.80000305176</ele>
        <time>2016-09-28T12:07:42Z</time>
      </trkpt>
      <trkpt lat="43.4158" lon="6.07103">
        <ele>207.39999389648</ele>
        <time>2016-09-28T12:07:52Z</time>
      </trkpt>
      <trkpt lat="43.41555" lon="6.07115">
        <ele>207.39999389648</ele>
        <time>2016-09-28T12:08:01Z</time>
      </trkpt>
      <trkpt lat="43.41552" lon="6.07113">
        <ele>207.60000610352</ele>
        <time>2016-09-28T12:08:02Z</time>
      </trkpt>
      <trkpt lat="43.41545" lon="6.07081">
        <ele>208</ele>
        <time>2016-09-28T12:08:09Z</time>
      </trkpt>
      <trkpt lat="43.41535" lon="6.07073">
        <ele>208</ele>
        <time>2016-09-28T12:08:12Z</time>
      </trkpt>
      <trkpt lat="43.41526" lon="6.07074">
        <ele>207.80000305176</ele>
        <time>2016-09-28T12:08:14Z</time>
      </trkpt>
      <trkpt lat="43.41502" lon="6.07078">
        <ele>206.80000305176</ele>
        <time>2016-09-28T12:08:19Z</time>
      </trkpt>
      <trkpt lat="43.41498" lon="6.07079">
        <ele>206.60000610352</ele>
        <time>2016-09-28T12:08:20Z</time>
      </trkpt>
      <trkpt lat="43.41489" lon="6.07076">
        <ele>206.39999389648</ele>
        <time>2016-09-28T12:08:22Z</time>
      </trkpt>
      <trkpt lat="43.41468" lon="6.07066">
        <ele>206</ele>
        <time>2016-09-28T12:08:28Z</time>
      </trkpt>
      <trkpt lat="43.41466" lon="6.07062">
        <ele>205.80000305176</ele>
        <time>2016-09-28T12:08:32Z</time>
      </trkpt>
      <trkpt lat="43.41467" lon="6.07061">
        <ele>206</ele>
        <time>2016-09-28T12:08:42Z</time>
      </trkpt>
      <trkpt lat="43.41467" lon="6.07057">
        <ele>206</ele>
        <time>2016-09-28T12:08:47Z</time>
      </trkpt>
      <trkpt lat="43.41473" lon="6.07045">
        <ele>206</ele>
        <time>2016-09-28T12:08:52Z</time>
      </trkpt>
      <trkpt lat="43.41489" lon="6.07008">
        <ele>206.39999389648</ele>
        <time>2016-09-28T12:09:02Z</time>
      </trkpt>
      <trkpt lat="43.41491" lon="6.06974">
        <ele>206.60000610352</ele>
        <time>2016-09-28T12:09:10Z</time>
      </trkpt>
      <trkpt lat="43.41487" lon="6.06965">
        <ele>206.80000305176</ele>
        <time>2016-09-28T12:09:12Z</time>
      </trkpt>
      <trkpt lat="43.41477" lon="6.06948">
        <ele>207.19999694824</ele>
        <time>2016-09-28T12:09:16Z</time>
      </trkpt>
      <trkpt lat="43.41462" lon="6.06926">
        <ele>207.60000610352</ele>
        <time>2016-09-28T12:09:22Z</time>
      </trkpt>
      <trkpt lat="43.41459" lon="6.06921">
        <ele>207.80000305176</ele>
        <time>2016-09-28T12:09:24Z</time>
      </trkpt>
      <trkpt lat="43.41457" lon="6.0691">
        <ele>208.60000610352</ele>
        <time>2016-09-28T12:09:27Z</time>
      </trkpt>
      <trkpt lat="43.41461" lon="6.06888">
        <ele>208.80000305176</ele>
        <time>2016-09-28T12:09:32Z</time>
      </trkpt>
      <trkpt lat="43.41455" lon="6.06869">
        <ele>208.60000610352</ele>
        <time>2016-09-28T12:09:36Z</time>
      </trkpt>
      <trkpt lat="43.41448" lon="6.06861">
        <ele>208.60000610352</ele>
        <time>2016-09-28T12:09:38Z</time>
      </trkpt>
      <trkpt lat="43.41439" lon="6.06858">
        <ele>208.60000610352</ele>
        <time>2016-09-28T12:09:40Z</time>
      </trkpt>
      <trkpt lat="43.4143" lon="6.06858">
        <ele>208.60000610352</ele>
        <time>2016-09-28T12:09:42Z</time>
      </trkpt>
      <trkpt lat="43.4142" lon="6.06858">
        <ele>208.60000610352</ele>
        <time>2016-09-28T12:09:44Z</time>
      </trkpt>
      <trkpt lat="43.4141" lon="6.06854">
        <ele>208.60000610352</ele>
        <time>2016-09-28T12:09:46Z</time>
      </trkpt>
      <trkpt lat="43.41386" lon="6.06832">
        <ele>208.60000610352</ele>
        <time>2016-09-28T12:09:52Z</time>
      </trkpt>
      <trkpt lat="43.41374" lon="6.06824">
        <ele>208.80000305176</ele>
        <time>2016-09-28T12:09:55Z</time>
      </trkpt>
      <trkpt lat="43.4137" lon="6.06822">
        <ele>209</ele>
        <time>2016-09-28T12:09:56Z</time>
      </trkpt>
      <trkpt lat="43.41343" lon="6.0681">
        <ele>209</ele>
        <time>2016-09-28T12:10:02Z</time>
      </trkpt>
      <trkpt lat="43.41319" lon="6.06795">
        <ele>208.19999694824</ele>
        <time>2016-09-28T12:10:07Z</time>
      </trkpt>
      <trkpt lat="43.41299" lon="6.06779">
        <ele>208</ele>
        <time>2016-09-28T12:10:11Z</time>
      </trkpt>
      <trkpt lat="43.4129" lon="6.06768">
        <ele>207.80000305176</ele>
        <time>2016-09-28T12:10:13Z</time>
      </trkpt>
      <trkpt lat="43.41278" lon="6.06749">
        <ele>207</ele>
        <time>2016-09-28T12:10:16Z</time>
      </trkpt>
      <trkpt lat="43.41275" lon="6.06742">
        <ele>206.80000305176</ele>
        <time>2016-09-28T12:10:17Z</time>
      </trkpt>
      <trkpt lat="43.41273" lon="6.06735">
        <ele>206.80000305176</ele>
        <time>2016-09-28T12:10:18Z</time>
      </trkpt>
      <trkpt lat="43.41272" lon="6.06714">
        <ele>207</ele>
        <time>2016-09-28T12:10:22Z</time>
      </trkpt>
      <trkpt lat="43.41268" lon="6.06689">
        <ele>207.80000305176</ele>
        <time>2016-09-28T12:10:27Z</time>
      </trkpt>
      <trkpt lat="43.41262" lon="6.06682">
        <ele>208</ele>
        <time>2016-09-28T12:10:29Z</time>
      </trkpt>
      <trkpt lat="43.41254" lon="6.06683">
        <ele>207.80000305176</ele>
        <time>2016-09-28T12:10:31Z</time>
      </trkpt>
      <trkpt lat="43.41251" lon="6.06684">
        <ele>207.39999389648</ele>
        <time>2016-09-28T12:10:32Z</time>
      </trkpt>
      <trkpt lat="43.41246" lon="6.06687">
        <ele>206.80000305176</ele>
        <time>2016-09-28T12:10:34Z</time>
      </trkpt>
      <trkpt lat="43.41241" lon="6.06691">
        <ele>205.80000305176</ele>
        <time>2016-09-28T12:10:42Z</time>
      </trkpt>
      <trkpt lat="43.4124" lon="6.06701">
        <ele>206</ele>
        <time>2016-09-28T12:10:47Z</time>
      </trkpt>
      <trkpt lat="43.41242" lon="6.06707">
        <ele>206.19999694824</ele>
        <time>2016-09-28T12:10:50Z</time>
      </trkpt>
      <trkpt lat="43.41244" lon="6.06709">
        <ele>206</ele>
        <time>2016-09-28T12:10:52Z</time>
      </trkpt>
      <trkpt lat="43.41245" lon="6.06712">
        <ele>205.80000305176</ele>
        <time>2016-09-28T12:10:56Z</time>
      </trkpt>
      <trkpt lat="43.41241" lon="6.06711">
        <ele>205.60000610352</ele>
        <time>2016-09-28T12:10:58Z</time>
      </trkpt>
      <trkpt lat="43.41225" lon="6.06714">
        <ele>204.80000305176</ele>
        <time>2016-09-28T12:11:02Z</time>
      </trkpt>
      <trkpt lat="43.41217" lon="6.06716">
        <ele>204.60000610352</ele>
        <time>2016-09-28T12:11:04Z</time>
      </trkpt>
      <trkpt lat="43.41175" lon="6.06719">
        <ele>203.60000610352</ele>
        <time>2016-09-28T12:11:12Z</time>
      </trkpt>
      <trkpt lat="43.41165" lon="6.06718">
        <ele>203.60000610352</ele>
        <time>2016-09-28T12:11:14Z</time>
      </trkpt>
      <trkpt lat="43.41154" lon="6.06719">
        <ele>203.60000610352</ele>
        <time>2016-09-28T12:11:16Z</time>
      </trkpt>
      <trkpt lat="43.41149" lon="6.06721">
        <ele>203.60000610352</ele>
        <time>2016-09-28T12:11:17Z</time>
      </trkpt>
      <trkpt lat="43.41135" lon="6.06725">
        <ele>203.60000610352</ele>
        <time>2016-09-28T12:11:20Z</time>
      </trkpt>
      <trkpt lat="43.41126" lon="6.06731">
        <ele>203.60000610352</ele>
        <time>2016-09-28T12:11:22Z</time>
      </trkpt>
      <trkpt lat="43.41093" lon="6.06751">
        <ele>203.60000610352</ele>
        <time>2016-09-28T12:11:32Z</time>
      </trkpt>
      <trkpt lat="43.41082" lon="6.06763">
        <ele>203.39999389648</ele>
        <time>2016-09-28T12:11:39Z</time>
      </trkpt>
      <trkpt lat="43.41081" lon="6.06775">
        <ele>203.39999389648</ele>
        <time>2016-09-28T12:11:42Z</time>
      </trkpt>
      <trkpt lat="43.41079" lon="6.06795">
        <ele>203.39999389648</ele>
        <time>2016-09-28T12:11:46Z</time>
      </trkpt>
      <trkpt lat="43.41073" lon="6.06822">
        <ele>203.39999389648</ele>
        <time>2016-09-28T12:11:51Z</time>
      </trkpt>
      <trkpt lat="43.41072" lon="6.06827">
        <ele>203.39999389648</ele>
        <time>2016-09-28T12:11:52Z</time>
      </trkpt>
      <trkpt lat="43.41068" lon="6.06845">
        <ele>203.39999389648</ele>
        <time>2016-09-28T12:11:58Z</time>
      </trkpt>
      <trkpt lat="43.41066" lon="6.06852">
        <ele>203.60000610352</ele>
        <time>2016-09-28T12:12:02Z</time>
      </trkpt>
      <trkpt lat="43.41066" lon="6.06851">
        <ele>203.80000305176</ele>
        <time>2016-09-28T12:12:11Z</time>
      </trkpt>
      <trkpt lat="43.41066" lon="6.06852">
        <ele>203.80000305176</ele>
        <time>2016-09-28T12:12:12Z</time>
      </trkpt>
      <trkpt lat="43.41064" lon="6.06859">
        <ele>204.80000305176</ele>
        <time>2016-09-28T12:12:15Z</time>
      </trkpt>
      <trkpt lat="43.41064" lon="6.06862">
        <ele>205.39999389648</ele>
        <time>2016-09-28T12:12:18Z</time>
      </trkpt>
      <trkpt lat="43.41064" lon="6.06865">
        <ele>205.60000610352</ele>
        <time>2016-09-28T12:12:22Z</time>
      </trkpt>
      <trkpt lat="43.41064" lon="6.06867">
        <ele>205.60000610352</ele>
        <time>2016-09-28T12:12:25Z</time>
      </trkpt>
      <trkpt lat="43.41053" lon="6.06873">
        <ele>205.60000610352</ele>
        <time>2016-09-28T12:12:32Z</time>
      </trkpt>
      <trkpt lat="43.41034" lon="6.06882">
        <ele>204.80000305176</ele>
        <time>2016-09-28T12:12:37Z</time>
      </trkpt>
      <trkpt lat="43.41018" lon="6.06889">
        <ele>203.80000305176</ele>
        <time>2016-09-28T12:12:42Z</time>
      </trkpt>
      <trkpt lat="43.41015" lon="6.06891">
        <ele>203.80000305176</ele>
        <time>2016-09-28T12:12:44Z</time>
      </trkpt>
      <trkpt lat="43.41008" lon="6.06909">
        <ele>204.19999694824</ele>
        <time>2016-09-28T12:12:52Z</time>
      </trkpt>
      <trkpt lat="43.40965" lon="6.06931">
        <ele>203.39999389648</ele>
        <time>2016-09-28T12:13:02Z</time>
      </trkpt>
      <trkpt lat="43.40926" lon="6.06944">
        <ele>203.39999389648</ele>
        <time>2016-09-28T12:13:12Z</time>
      </trkpt>
      <trkpt lat="43.4091" lon="6.06949">
        <ele>203.60000610352</ele>
        <time>2016-09-28T12:13:16Z</time>
      </trkpt>
      <trkpt lat="43.40903" lon="6.06957">
        <ele>203.80000305176</ele>
        <time>2016-09-28T12:13:18Z</time>
      </trkpt>
      <trkpt lat="43.40901" lon="6.06968">
        <ele>204</ele>
        <time>2016-09-28T12:13:20Z</time>
      </trkpt>
      <trkpt lat="43.409" lon="6.0698">
        <ele>204.19999694824</ele>
        <time>2016-09-28T12:13:22Z</time>
      </trkpt>
      <trkpt lat="43.40886" lon="6.06998">
        <ele>204.19999694824</ele>
        <time>2016-09-28T12:13:27Z</time>
      </trkpt>
      <trkpt lat="43.40865" lon="6.07002">
        <ele>204.39999389648</ele>
        <time>2016-09-28T12:13:32Z</time>
      </trkpt>
      <trkpt lat="43.40849" lon="6.07005">
        <ele>204.39999389648</ele>
        <time>2016-09-28T12:13:37Z</time>
      </trkpt>
      <trkpt lat="43.40844" lon="6.07005">
        <ele>204.80000305176</ele>
        <time>2016-09-28T12:13:41Z</time>
      </trkpt>
      <trkpt lat="43.40842" lon="6.07005">
        <ele>204.80000305176</ele>
        <time>2016-09-28T12:13:42Z</time>
      </trkpt>
      <trkpt lat="43.40839" lon="6.07006">
        <ele>204.80000305176</ele>
        <time>2016-09-28T12:13:44Z</time>
      </trkpt>
      <trkpt lat="43.40836" lon="6.07012">
        <ele>204.80000305176</ele>
        <time>2016-09-28T12:13:47Z</time>
      </trkpt>
      <trkpt lat="43.40839" lon="6.07033">
        <ele>204.80000305176</ele>
        <time>2016-09-28T12:13:52Z</time>
      </trkpt>
      <trkpt lat="43.40844" lon="6.07072">
        <ele>204.60000610352</ele>
        <time>2016-09-28T12:13:59Z</time>
      </trkpt>
      <trkpt lat="43.40844" lon="6.0709">
        <ele>204.39999389648</ele>
        <time>2016-09-28T12:14:02Z</time>
      </trkpt>
      <trkpt lat="43.40836" lon="6.07145">
        <ele>204.19999694824</ele>
        <time>2016-09-28T12:14:11Z</time>
      </trkpt>
      <trkpt lat="43.40834" lon="6.0715">
        <ele>204.39999389648</ele>
        <time>2016-09-28T12:14:12Z</time>
      </trkpt>
      <trkpt lat="43.40816" lon="6.0719">
        <ele>204.80000305176</ele>
        <time>2016-09-28T12:14:19Z</time>
      </trkpt>
      <trkpt lat="43.40807" lon="6.07206">
        <ele>204.80000305176</ele>
        <time>2016-09-28T12:14:22Z</time>
      </trkpt>
      <trkpt lat="43.40764" lon="6.07246">
        <ele>204.80000305176</ele>
        <time>2016-09-28T12:14:32Z</time>
      </trkpt>
      <trkpt lat="43.40725" lon="6.0727">
        <ele>205.19999694824</ele>
        <time>2016-09-28T12:14:41Z</time>
      </trkpt>
      <trkpt lat="43.40721" lon="6.07272">
        <ele>205.19999694824</ele>
        <time>2016-09-28T12:14:42Z</time>
      </trkpt>
      <trkpt lat="43.40704" lon="6.07281">
        <ele>205.80000305176</ele>
        <time>2016-09-28T12:14:46Z</time>
      </trkpt>
      <trkpt lat="43.40688" lon="6.0729">
        <ele>206.39999389648</ele>
        <time>2016-09-28T12:14:50Z</time>
      </trkpt>
      <trkpt lat="43.40676" lon="6.07296">
        <ele>206.80000305176</ele>
        <time>2016-09-28T12:14:53Z</time>
      </trkpt>
      <trkpt lat="43.40649" lon="6.07312">
        <ele>207.80000305176</ele>
        <time>2016-09-28T12:15:00Z</time>
      </trkpt>
      <trkpt lat="43.40645" lon="6.07314">
        <ele>207.80000305176</ele>
        <time>2016-09-28T12:15:01Z</time>
      </trkpt>
      <trkpt lat="43.40641" lon="6.07316">
        <ele>208</ele>
        <time>2016-09-28T12:15:02Z</time>
      </trkpt>
      <trkpt lat="43.40616" lon="6.07313">
        <ele>209</ele>
        <time>2016-09-28T12:15:09Z</time>
      </trkpt>
      <trkpt lat="43.40608" lon="6.07305">
        <ele>209.19999694824</ele>
        <time>2016-09-28T12:15:12Z</time>
      </trkpt>
      <trkpt lat="43.40604" lon="6.07298">
        <ele>210</ele>
        <time>2016-09-28T12:15:16Z</time>
      </trkpt>
      <trkpt lat="43.40604" lon="6.07295">
        <ele>210.19999694824</ele>
        <time>2016-09-28T12:15:22Z</time>
      </trkpt>
      <trkpt lat="43.40604" lon="6.07295">
        <ele>210.19999694824</ele>
        <time>2016-09-28T12:15:24Z</time>
      </trkpt>
      <trkpt lat="43.40604" lon="6.07295">
        <ele>210.19999694824</ele>
        <time>2016-09-28T12:15:32Z</time>
      </trkpt>
      <trkpt lat="43.40602" lon="6.07295">
        <ele>210.19999694824</ele>
        <time>2016-09-28T12:15:35Z</time>
      </trkpt>
      <trkpt lat="43.40589" lon="6.07288">
        <ele>210.39999389648</ele>
        <time>2016-09-28T12:15:42Z</time>
      </trkpt>
      <trkpt lat="43.40553" lon="6.07297">
        <ele>211</ele>
        <time>2016-09-28T12:15:52Z</time>
      </trkpt>
      <trkpt lat="43.40549" lon="6.07296">
        <ele>211</ele>
        <time>2016-09-28T12:15:53Z</time>
      </trkpt>
      <trkpt lat="43.40532" lon="6.07292">
        <ele>211</ele>
        <time>2016-09-28T12:15:57Z</time>
      </trkpt>
      <trkpt lat="43.40509" lon="6.07282">
        <ele>211.19999694824</ele>
        <time>2016-09-28T12:16:02Z</time>
      </trkpt>
      <trkpt lat="43.40482" lon="6.07275">
        <ele>212.19999694824</ele>
        <time>2016-09-28T12:16:09Z</time>
      </trkpt>
      <trkpt lat="43.40469" lon="6.07275">
        <ele>212.39999389648</ele>
        <time>2016-09-28T12:16:12Z</time>
      </trkpt>
      <trkpt lat="43.4045" lon="6.07277">
        <ele>213.19999694824</ele>
        <time>2016-09-28T12:16:17Z</time>
      </trkpt>
      <trkpt lat="43.40431" lon="6.07279">
        <ele>213.80000305176</ele>
        <time>2016-09-28T12:16:22Z</time>
      </trkpt>
      <trkpt lat="43.40424" lon="6.07278">
        <ele>214.19999694824</ele>
        <time>2016-09-28T12:16:24Z</time>
      </trkpt>
      <trkpt lat="43.40406" lon="6.07277">
        <ele>215</ele>
        <time>2016-09-28T12:16:29Z</time>
      </trkpt>
      <trkpt lat="43.404" lon="6.07275">
        <ele>215.19999694824</ele>
        <time>2016-09-28T12:16:31Z</time>
      </trkpt>
      <trkpt lat="43.40397" lon="6.07272">
        <ele>215.39999389648</ele>
        <time>2016-09-28T12:16:32Z</time>
      </trkpt>
      <trkpt lat="43.40369" lon="6.07241">
        <ele>216</ele>
        <time>2016-09-28T12:16:42Z</time>
      </trkpt>
      <trkpt lat="43.40359" lon="6.07236">
        <ele>216.39999389648</ele>
        <time>2016-09-28T12:16:45Z</time>
      </trkpt>
      <trkpt lat="43.40341" lon="6.07223">
        <ele>217.39999389648</ele>
        <time>2016-09-28T12:16:51Z</time>
      </trkpt>
      <trkpt lat="43.40337" lon="6.07222">
        <ele>217.39999389648</ele>
        <time>2016-09-28T12:16:52Z</time>
      </trkpt>
      <trkpt lat="43.40308" lon="6.07209">
        <ele>218.39999389648</ele>
        <time>2016-09-28T12:17:01Z</time>
      </trkpt>
      <trkpt lat="43.40306" lon="6.07208">
        <ele>218.39999389648</ele>
        <time>2016-09-28T12:17:02Z</time>
      </trkpt>
      <trkpt lat="43.40276" lon="6.07174">
        <ele>219</ele>
        <time>2016-09-28T12:17:12Z</time>
      </trkpt>
      <trkpt lat="43.40264" lon="6.07166">
        <ele>218.80000305176</ele>
        <time>2016-09-28T12:17:15Z</time>
      </trkpt>
      <trkpt lat="43.40255" lon="6.07164">
        <ele>218.80000305176</ele>
        <time>2016-09-28T12:17:17Z</time>
      </trkpt>
      <trkpt lat="43.40239" lon="6.07165">
        <ele>219.39999389648</ele>
        <time>2016-09-28T12:17:21Z</time>
      </trkpt>
      <trkpt lat="43.40235" lon="6.07165">
        <ele>219.60000610352</ele>
        <time>2016-09-28T12:17:22Z</time>
      </trkpt>
      <trkpt lat="43.40217" lon="6.07172">
        <ele>220.60000610352</ele>
        <time>2016-09-28T12:17:27Z</time>
      </trkpt>
      <trkpt lat="43.40203" lon="6.07179">
        <ele>221.80000305176</ele>
        <time>2016-09-28T12:17:31Z</time>
      </trkpt>
      <trkpt lat="43.402" lon="6.07181">
        <ele>222</ele>
        <time>2016-09-28T12:17:32Z</time>
      </trkpt>
      <trkpt lat="43.40192" lon="6.07187">
        <ele>222.60000610352</ele>
        <time>2016-09-28T12:17:35Z</time>
      </trkpt>
      <trkpt lat="43.40173" lon="6.072">
        <ele>225</ele>
        <time>2016-09-28T12:17:42Z</time>
      </trkpt>
      <trkpt lat="43.4017" lon="6.07202">
        <ele>225.19999694824</ele>
        <time>2016-09-28T12:17:43Z</time>
      </trkpt>
      <trkpt lat="43.40162" lon="6.0721">
        <ele>226.19999694824</ele>
        <time>2016-09-28T12:17:47Z</time>
      </trkpt>
      <trkpt lat="43.40152" lon="6.0722">
        <ele>227.19999694824</ele>
        <time>2016-09-28T12:17:52Z</time>
      </trkpt>
      <trkpt lat="43.40142" lon="6.07242">
        <ele>228.19999694824</ele>
        <time>2016-09-28T12:18:00Z</time>
      </trkpt>
      <trkpt lat="43.40142" lon="6.07246">
        <ele>228.39999389648</ele>
        <time>2016-09-28T12:18:01Z</time>
      </trkpt>
      <trkpt lat="43.40142" lon="6.07265">
        <ele>228.39999389648</ele>
        <time>2016-09-28T12:18:06Z</time>
      </trkpt>
      <trkpt lat="43.40142" lon="6.07322">
        <ele>229</ele>
        <time>2016-09-28T12:18:19Z</time>
      </trkpt>
      <trkpt lat="43.4014" lon="6.07335">
        <ele>229</ele>
        <time>2016-09-28T12:18:22Z</time>
      </trkpt>
      <trkpt lat="43.40139" lon="6.07348">
        <ele>229.19999694824</ele>
        <time>2016-09-28T12:18:25Z</time>
      </trkpt>
      <trkpt lat="43.40137" lon="6.07379">
        <ele>229.39999389648</ele>
        <time>2016-09-28T12:18:32Z</time>
      </trkpt>
      <trkpt lat="43.40142" lon="6.07421">
        <ele>230</ele>
        <time>2016-09-28T12:18:42Z</time>
      </trkpt>
      <trkpt lat="43.40145" lon="6.07433">
        <ele>230.39999389648</ele>
        <time>2016-09-28T12:18:45Z</time>
      </trkpt>
      <trkpt lat="43.40144" lon="6.07464">
        <ele>231</ele>
        <time>2016-09-28T12:18:52Z</time>
      </trkpt>
      <trkpt lat="43.40142" lon="6.07476">
        <ele>231.39999389648</ele>
        <time>2016-09-28T12:18:55Z</time>
      </trkpt>
      <trkpt lat="43.40139" lon="6.07496">
        <ele>232.19999694824</ele>
        <time>2016-09-28T12:19:00Z</time>
      </trkpt>
      <trkpt lat="43.40137" lon="6.07502">
        <ele>232.80000305176</ele>
        <time>2016-09-28T12:19:02Z</time>
      </trkpt>
      <trkpt lat="43.40133" lon="6.07512">
        <ele>233.60000610352</ele>
        <time>2016-09-28T12:19:05Z</time>
      </trkpt>
      <trkpt lat="43.40132" lon="6.07516">
        <ele>233.80000305176</ele>
        <time>2016-09-28T12:19:06Z</time>
      </trkpt>
      <trkpt lat="43.40124" lon="6.07535">
        <ele>234.19999694824</ele>
        <time>2016-09-28T12:19:12Z</time>
      </trkpt>
      <trkpt lat="43.4011" lon="6.0756">
        <ele>234.80000305176</ele>
        <time>2016-09-28T12:19:20Z</time>
      </trkpt>
      <trkpt lat="43.40095" lon="6.07588">
        <ele>235.19999694824</ele>
        <time>2016-09-28T12:19:29Z</time>
      </trkpt>
      <trkpt lat="43.40092" lon="6.07599">
        <ele>235.39999389648</ele>
        <time>2016-09-28T12:19:32Z</time>
      </trkpt>
      <trkpt lat="43.40089" lon="6.07618">
        <ele>236</ele>
        <time>2016-09-28T12:19:37Z</time>
      </trkpt>
      <trkpt lat="43.40089" lon="6.07635">
        <ele>237</ele>
        <time>2016-09-28T12:19:42Z</time>
      </trkpt>
      <trkpt lat="43.40087" lon="6.0765">
        <ele>238</ele>
        <time>2016-09-28T12:19:47Z</time>
      </trkpt>
      <trkpt lat="43.40085" lon="6.07661">
        <ele>239.19999694824</ele>
        <time>2016-09-28T12:19:52Z</time>
      </trkpt>
      <trkpt lat="43.40079" lon="6.07675">
        <ele>240.19999694824</ele>
        <time>2016-09-28T12:19:58Z</time>
      </trkpt>
      <trkpt lat="43.40076" lon="6.07681">
        <ele>240.80000305176</ele>
        <time>2016-09-28T12:20:02Z</time>
      </trkpt>
      <trkpt lat="43.40073" lon="6.07691">
        <ele>241.19999694824</ele>
        <time>2016-09-28T12:20:08Z</time>
      </trkpt>
      <trkpt lat="43.40073" lon="6.07693">
        <ele>241.39999389648</ele>
        <time>2016-09-28T12:20:09Z</time>
      </trkpt>
      <trkpt lat="43.4007" lon="6.07695">
        <ele>241.39999389648</ele>
        <time>2016-09-28T12:20:12Z</time>
      </trkpt>
      <trkpt lat="43.4006" lon="6.07709">
        <ele>241.80000305176</ele>
        <time>2016-09-28T12:20:19Z</time>
      </trkpt>
      <trkpt lat="43.40055" lon="6.07716">
        <ele>241.80000305176</ele>
        <time>2016-09-28T12:20:22Z</time>
      </trkpt>
      <trkpt lat="43.40044" lon="6.07731">
        <ele>241.80000305176</ele>
        <time>2016-09-28T12:20:28Z</time>
      </trkpt>
      <trkpt lat="43.40038" lon="6.0774">
        <ele>242.19999694824</ele>
        <time>2016-09-28T12:20:32Z</time>
      </trkpt>
      <trkpt lat="43.40032" lon="6.07755">
        <ele>242.39999389648</ele>
        <time>2016-09-28T12:20:37Z</time>
      </trkpt>
      <trkpt lat="43.40028" lon="6.07768">
        <ele>242.39999389648</ele>
        <time>2016-09-28T12:20:41Z</time>
      </trkpt>
      <trkpt lat="43.40017" lon="6.07802">
        <ele>242.80000305176</ele>
        <time>2016-09-28T12:20:52Z</time>
      </trkpt>
      <trkpt lat="43.40012" lon="6.07824">
        <ele>243.39999389648</ele>
        <time>2016-09-28T12:20:59Z</time>
      </trkpt>
      <trkpt lat="43.40009" lon="6.07834">
        <ele>243.60000610352</ele>
        <time>2016-09-28T12:21:02Z</time>
      </trkpt>
      <trkpt lat="43.4" lon="6.07869">
        <ele>244</ele>
        <time>2016-09-28T12:21:12Z</time>
      </trkpt>
      <trkpt lat="43.39986" lon="6.07927">
        <ele>245.60000610352</ele>
        <time>2016-09-28T12:21:31Z</time>
      </trkpt>
      <trkpt lat="43.39983" lon="6.07941">
        <ele>246.19999694824</ele>
        <time>2016-09-28T12:21:36Z</time>
      </trkpt>
      <trkpt lat="43.39981" lon="6.0795">
        <ele>246.60000610352</ele>
        <time>2016-09-28T12:21:39Z</time>
      </trkpt>
      <trkpt lat="43.39978" lon="6.07959">
        <ele>247</ele>
        <time>2016-09-28T12:21:42Z</time>
      </trkpt>
      <trkpt lat="43.39973" lon="6.0797">
        <ele>247.80000305176</ele>
        <time>2016-09-28T12:21:47Z</time>
      </trkpt>
      <trkpt lat="43.39971" lon="6.07975">
        <ele>248.19999694824</ele>
        <time>2016-09-28T12:21:52Z</time>
      </trkpt>
      <trkpt lat="43.39965" lon="6.07977">
        <ele>248.80000305176</ele>
        <time>2016-09-28T12:21:59Z</time>
      </trkpt>
      <trkpt lat="43.3996" lon="6.07979">
        <ele>249</ele>
        <time>2016-09-28T12:22:02Z</time>
      </trkpt>
      <trkpt lat="43.39948" lon="6.07988">
        <ele>249.60000610352</ele>
        <time>2016-09-28T12:22:06Z</time>
      </trkpt>
      <trkpt lat="43.39941" lon="6.07991">
        <ele>250</ele>
        <time>2016-09-28T12:22:08Z</time>
      </trkpt>
      <trkpt lat="43.39928" lon="6.07995">
        <ele>250</ele>
        <time>2016-09-28T12:22:12Z</time>
      </trkpt>
      <trkpt lat="43.39897" lon="6.08024">
        <ele>249</ele>
        <time>2016-09-28T12:22:21Z</time>
      </trkpt>
      <trkpt lat="43.39894" lon="6.08027">
        <ele>249</ele>
        <time>2016-09-28T12:22:22Z</time>
      </trkpt>
      <trkpt lat="43.39887" lon="6.0803">
        <ele>248.80000305176</ele>
        <time>2016-09-28T12:22:24Z</time>
      </trkpt>
      <trkpt lat="43.39862" lon="6.08022">
        <ele>248</ele>
        <time>2016-09-28T12:22:31Z</time>
      </trkpt>
      <trkpt lat="43.39858" lon="6.0802">
        <ele>248</ele>
        <time>2016-09-28T12:22:32Z</time>
      </trkpt>
      <trkpt lat="43.39838" lon="6.08006">
        <ele>247.80000305176</ele>
        <time>2016-09-28T12:22:37Z</time>
      </trkpt>
      <trkpt lat="43.39816" lon="6.07992">
        <ele>247.80000305176</ele>
        <time>2016-09-28T12:22:42Z</time>
      </trkpt>
      <trkpt lat="43.39777" lon="6.07977">
        <ele>248.80000305176</ele>
        <time>2016-09-28T12:22:51Z</time>
      </trkpt>
      <trkpt lat="43.39774" lon="6.07976">
        <ele>249</ele>
        <time>2016-09-28T12:22:52Z</time>
      </trkpt>
      <trkpt lat="43.39766" lon="6.07971">
        <ele>249.80000305176</ele>
        <time>2016-09-28T12:22:55Z</time>
      </trkpt>
      <trkpt lat="43.39762" lon="6.0797">
        <ele>250.19999694824</ele>
        <time>2016-09-28T12:22:56Z</time>
      </trkpt>
      <trkpt lat="43.39756" lon="6.07967">
        <ele>251</ele>
        <time>2016-09-28T12:22:58Z</time>
      </trkpt>
      <trkpt lat="43.3975" lon="6.07963">
        <ele>251.39999389648</ele>
        <time>2016-09-28T12:23:00Z</time>
      </trkpt>
      <trkpt lat="43.39744" lon="6.07959">
        <ele>251.80000305176</ele>
        <time>2016-09-28T12:23:02Z</time>
      </trkpt>
      <trkpt lat="43.39734" lon="6.0795">
        <ele>252.39999389648</ele>
        <time>2016-09-28T12:23:06Z</time>
      </trkpt>
      <trkpt lat="43.39721" lon="6.07933">
        <ele>253.39999389648</ele>
        <time>2016-09-28T12:23:13Z</time>
      </trkpt>
      <trkpt lat="43.39711" lon="6.07918">
        <ele>254.60000610352</ele>
        <time>2016-09-28T12:23:21Z</time>
      </trkpt>
      <trkpt lat="43.3971" lon="6.07916">
        <ele>254.80000305176</ele>
        <time>2016-09-28T12:23:22Z</time>
      </trkpt>
      <trkpt lat="43.39705" lon="6.07911">
        <ele>256</ele>
        <time>2016-09-28T12:23:27Z</time>
      </trkpt>
      <trkpt lat="43.39701" lon="6.07906">
        <ele>256.79998779297</ele>
        <time>2016-09-28T12:23:32Z</time>
      </trkpt>
      <trkpt lat="43.39698" lon="6.07902">
        <ele>257</ele>
        <time>2016-09-28T12:23:35Z</time>
      </trkpt>
      <trkpt lat="43.3969" lon="6.07895">
        <ele>258.20001220703</ele>
        <time>2016-09-28T12:23:42Z</time>
      </trkpt>
      <trkpt lat="43.39676" lon="6.07888">
        <ele>258.79998779297</ele>
        <time>2016-09-28T12:23:52Z</time>
      </trkpt>
      <trkpt lat="43.39666" lon="6.07885">
        <ele>259.20001220703</ele>
        <time>2016-09-28T12:23:57Z</time>
      </trkpt>
      <trkpt lat="43.39657" lon="6.07885">
        <ele>259.60000610352</ele>
        <time>2016-09-28T12:24:02Z</time>
      </trkpt>
      <trkpt lat="43.39645" lon="6.07886">
        <ele>260.20001220703</ele>
        <time>2016-09-28T12:24:09Z</time>
      </trkpt>
      <trkpt lat="43.39639" lon="6.07888">
        <ele>260.20001220703</ele>
        <time>2016-09-28T12:24:12Z</time>
      </trkpt>
      <trkpt lat="43.39626" lon="6.07891">
        <ele>260.60000610352</ele>
        <time>2016-09-28T12:24:18Z</time>
      </trkpt>
      <trkpt lat="43.39618" lon="6.07894">
        <ele>260.79998779297</ele>
        <time>2016-09-28T12:24:22Z</time>
      </trkpt>
      <trkpt lat="43.39607" lon="6.079">
        <ele>261.39999389648</ele>
        <time>2016-09-28T12:24:28Z</time>
      </trkpt>
      <trkpt lat="43.39602" lon="6.07903">
        <ele>262.20001220703</ele>
        <time>2016-09-28T12:24:32Z</time>
      </trkpt>
      <trkpt lat="43.396" lon="6.07904">
        <ele>262.20001220703</ele>
        <time>2016-09-28T12:24:33Z</time>
      </trkpt>
      <trkpt lat="43.39597" lon="6.07904">
        <ele>262.39999389648</ele>
        <time>2016-09-28T12:24:35Z</time>
      </trkpt>
      <trkpt lat="43.3959" lon="6.07903">
        <ele>263.60000610352</ele>
        <time>2016-09-28T12:24:39Z</time>
      </trkpt>
      <trkpt lat="43.39585" lon="6.07903">
        <ele>264.60000610352</ele>
        <time>2016-09-28T12:24:42Z</time>
      </trkpt>
      <trkpt lat="43.39583" lon="6.07903">
        <ele>264.79998779297</ele>
        <time>2016-09-28T12:24:43Z</time>
      </trkpt>
      <trkpt lat="43.39575" lon="6.07911">
        <ele>265.20001220703</ele>
        <time>2016-09-28T12:24:52Z</time>
      </trkpt>
      <trkpt lat="43.39574" lon="6.07911">
        <ele>265.60000610352</ele>
        <time>2016-09-28T12:24:59Z</time>
      </trkpt>
      <trkpt lat="43.39574" lon="6.07912">
        <ele>265.60000610352</ele>
        <time>2016-09-28T12:25:02Z</time>
      </trkpt>
      <trkpt lat="43.39575" lon="6.07912">
        <ele>265.39999389648</ele>
        <time>2016-09-28T12:25:10Z</time>
      </trkpt>
      <trkpt lat="43.39574" lon="6.07911">
        <ele>265.60000610352</ele>
        <time>2016-09-28T12:25:12Z</time>
      </trkpt>
      <trkpt lat="43.39575" lon="6.07909">
        <ele>265.60000610352</ele>
        <time>2016-09-28T12:25:16Z</time>
      </trkpt>
      <trkpt lat="43.39576" lon="6.07909">
        <ele>265.60000610352</ele>
        <time>2016-09-28T12:25:20Z</time>
      </trkpt>
      <trkpt lat="43.39576" lon="6.07908">
        <ele>265.60000610352</ele>
        <time>2016-09-28T12:25:22Z</time>
      </trkpt>
      <trkpt lat="43.39577" lon="6.07907">
        <ele>265.39999389648</ele>
        <time>2016-09-28T12:25:29Z</time>
      </trkpt>
      <trkpt lat="43.39577" lon="6.07907">
        <ele>265.39999389648</ele>
        <time>2016-09-28T12:25:32Z</time>
      </trkpt>
      <trkpt lat="43.39577" lon="6.07909">
        <ele>265.20001220703</ele>
        <time>2016-09-28T12:26:02Z</time>
      </trkpt>
      <trkpt lat="43.39577" lon="6.07909">
        <ele>265.20001220703</ele>
        <time>2016-09-28T12:26:12Z</time>
      </trkpt>
      <trkpt lat="43.39576" lon="6.07908">
        <ele>265.20001220703</ele>
        <time>2016-09-28T12:26:22Z</time>
      </trkpt>
      <trkpt lat="43.39577" lon="6.07909">
        <ele>265.20001220703</ele>
        <time>2016-09-28T12:26:32Z</time>
      </trkpt>
      <trkpt lat="43.39577" lon="6.0791">
        <ele>265.20001220703</ele>
        <time>2016-09-28T12:26:42Z</time>
      </trkpt>
      <trkpt lat="43.39577" lon="6.07913">
        <ele>265.20001220703</ele>
        <time>2016-09-28T12:26:52Z</time>
      </trkpt>
      <trkpt lat="43.39577" lon="6.07913">
        <ele>265.20001220703</ele>
        <time>2016-09-28T12:26:58Z</time>
      </trkpt>
      <trkpt lat="43.39577" lon="6.07913">
        <ele>265.20001220703</ele>
        <time>2016-09-28T12:27:02Z</time>
      </trkpt>
      <trkpt lat="43.39576" lon="6.07913">
        <ele>265.20001220703</ele>
        <time>2016-09-28T12:27:12Z</time>
      </trkpt>
      <trkpt lat="43.39576" lon="6.07913">
        <ele>265.20001220703</ele>
        <time>2016-09-28T12:27:18Z</time>
      </trkpt>
      <trkpt lat="43.39576" lon="6.07913">
        <ele>265.20001220703</ele>
        <time>2016-09-28T12:27:22Z</time>
      </trkpt>
      <trkpt lat="43.39576" lon="6.07913">
        <ele>265.20001220703</ele>
        <time>2016-09-28T12:27:29Z</time>
      </trkpt>
      <trkpt lat="43.39576" lon="6.07913">
        <ele>265.20001220703</ele>
        <time>2016-09-28T12:27:32Z</time>
      </trkpt>
      <trkpt lat="43.39576" lon="6.07914">
        <ele>265.20001220703</ele>
        <time>2016-09-28T12:27:35Z</time>
      </trkpt>
      <trkpt lat="43.39576" lon="6.07914">
        <ele>265.20001220703</ele>
        <time>2016-09-28T12:27:42Z</time>
      </trkpt>
      <trkpt lat="43.39576" lon="6.07914">
        <ele>265.20001220703</ele>
        <time>2016-09-28T12:27:52Z</time>
      </trkpt>
      <trkpt lat="43.39576" lon="6.07913">
        <ele>265.20001220703</ele>
        <time>2016-09-28T12:28:04Z</time>
      </trkpt>
      <trkpt lat="43.39576" lon="6.07913">
        <ele>265.20001220703</ele>
        <time>2016-09-28T12:28:12Z</time>
      </trkpt>
      <trkpt lat="43.39576" lon="6.07913">
        <ele>265.20001220703</ele>
        <time>2016-09-28T12:28:16Z</time>
      </trkpt>
      <trkpt lat="43.39576" lon="6.07913">
        <ele>265.20001220703</ele>
        <time>2016-09-28T12:28:22Z</time>
      </trkpt>
      <trkpt lat="43.39576" lon="6.07913">
        <ele>265.20001220703</ele>
        <time>2016-09-28T12:28:32Z</time>
      </trkpt>
      <trkpt lat="43.39576" lon="6.07913">
        <ele>265.20001220703</ele>
        <time>2016-09-28T12:28:42Z</time>
      </trkpt>
      <trkpt lat="43.39577" lon="6.07913">
        <ele>265.20001220703</ele>
        <time>2016-09-28T12:29:02Z</time>
      </trkpt>
      <trkpt lat="43.39577" lon="6.07911">
        <ele>265.20001220703</ele>
        <time>2016-09-28T12:29:12Z</time>
      </trkpt>
      <trkpt lat="43.39577" lon="6.0791">
        <ele>265.20001220703</ele>
        <time>2016-09-28T12:29:22Z</time>
      </trkpt>
      <trkpt lat="43.39573" lon="6.0791">
        <ele>265.20001220703</ele>
        <time>2016-09-28T12:29:42Z</time>
      </trkpt>
      <trkpt lat="43.39573" lon="6.07911">
        <ele>265.20001220703</ele>
        <time>2016-09-28T12:29:52Z</time>
      </trkpt>
      <trkpt lat="43.39573" lon="6.07912">
        <ele>265.20001220703</ele>
        <time>2016-09-28T12:30:02Z</time>
      </trkpt>
      <trkpt lat="43.39573" lon="6.07915">
        <ele>265.20001220703</ele>
        <time>2016-09-28T12:30:22Z</time>
      </trkpt>
      <trkpt lat="43.39576" lon="6.07914">
        <ele>265.20001220703</ele>
        <time>2016-09-28T12:30:32Z</time>
      </trkpt>
      <trkpt lat="43.39577" lon="6.07914">
        <ele>265.20001220703</ele>
        <time>2016-09-28T12:30:42Z</time>
      </trkpt>
      <trkpt lat="43.39576" lon="6.07915">
        <ele>265.20001220703</ele>
        <time>2016-09-28T12:30:46Z</time>
      </trkpt>
      <trkpt lat="43.39577" lon="6.07915">
        <ele>265.20001220703</ele>
        <time>2016-09-28T12:30:51Z</time>
      </trkpt>
      <trkpt lat="43.39577" lon="6.07915">
        <ele>265.20001220703</ele>
        <time>2016-09-28T12:30:52Z</time>
      </trkpt>
      <trkpt lat="43.39577" lon="6.07916">
        <ele>265.20001220703</ele>
        <time>2016-09-28T12:31:02Z</time>
      </trkpt>
      <trkpt lat="43.39577" lon="6.0792">
        <ele>265.20001220703</ele>
        <time>2016-09-28T12:31:05Z</time>
      </trkpt>
      <trkpt lat="43.39576" lon="6.07923">
        <ele>265.20001220703</ele>
        <time>2016-09-28T12:31:06Z</time>
      </trkpt>
      <trkpt lat="43.39571" lon="6.07931">
        <ele>266.39999389648</ele>
        <time>2016-09-28T12:31:09Z</time>
      </trkpt>
      <trkpt lat="43.39566" lon="6.07934">
        <ele>267.60000610352</ele>
        <time>2016-09-28T12:31:11Z</time>
      </trkpt>
      <trkpt lat="43.39563" lon="6.07934">
        <ele>267.79998779297</ele>
        <time>2016-09-28T12:31:12Z</time>
      </trkpt>
      <trkpt lat="43.39555" lon="6.07935">
        <ele>268</ele>
        <time>2016-09-28T12:31:15Z</time>
      </trkpt>
      <trkpt lat="43.3955" lon="6.07937">
        <ele>268.20001220703</ele>
        <time>2016-09-28T12:31:17Z</time>
      </trkpt>
      <trkpt lat="43.39546" lon="6.07939">
        <ele>268.60000610352</ele>
        <time>2016-09-28T12:31:19Z</time>
      </trkpt>
      <trkpt lat="43.39541" lon="6.07941">
        <ele>269</ele>
        <time>2016-09-28T12:31:21Z</time>
      </trkpt>
      <trkpt lat="43.39534" lon="6.07945">
        <ele>269.79998779297</ele>
        <time>2016-09-28T12:31:24Z</time>
      </trkpt>
      <trkpt lat="43.39523" lon="6.07951">
        <ele>271</ele>
        <time>2016-09-28T12:31:29Z</time>
      </trkpt>
      <trkpt lat="43.39513" lon="6.07952">
        <ele>272.20001220703</ele>
        <time>2016-09-28T12:31:34Z</time>
      </trkpt>
      <trkpt lat="43.39497" lon="6.07959">
        <ele>273.20001220703</ele>
        <time>2016-09-28T12:31:42Z</time>
      </trkpt>
      <trkpt lat="43.39479" lon="6.07969">
        <ele>274.39999389648</ele>
        <time>2016-09-28T12:31:52Z</time>
      </trkpt>
      <trkpt lat="43.39465" lon="6.07974">
        <ele>275</ele>
        <time>2016-09-28T12:31:59Z</time>
      </trkpt>
      <trkpt lat="43.39458" lon="6.07976">
        <ele>275.39999389648</ele>
        <time>2016-09-28T12:32:03Z</time>
      </trkpt>
      <trkpt lat="43.39444" lon="6.07982">
        <ele>276</ele>
        <time>2016-09-28T12:32:11Z</time>
      </trkpt>
      <trkpt lat="43.39438" lon="6.07982">
        <ele>276.20001220703</ele>
        <time>2016-09-28T12:32:14Z</time>
      </trkpt>
      <trkpt lat="43.3943" lon="6.07984">
        <ele>276.39999389648</ele>
        <time>2016-09-28T12:32:18Z</time>
      </trkpt>
      <trkpt lat="43.39423" lon="6.07987">
        <ele>276.79998779297</ele>
        <time>2016-09-28T12:32:22Z</time>
      </trkpt>
      <trkpt lat="43.39417" lon="6.0799">
        <ele>277.60000610352</ele>
        <time>2016-09-28T12:32:26Z</time>
      </trkpt>
      <trkpt lat="43.39407" lon="6.07996">
        <ele>278.20001220703</ele>
        <time>2016-09-28T12:32:31Z</time>
      </trkpt>
      <trkpt lat="43.39406" lon="6.07997">
        <ele>278.20001220703</ele>
        <time>2016-09-28T12:32:32Z</time>
      </trkpt>
      <trkpt lat="43.39401" lon="6.07999">
        <ele>278.60000610352</ele>
        <time>2016-09-28T12:32:35Z</time>
      </trkpt>
      <trkpt lat="43.39393" lon="6.08003">
        <ele>279.60000610352</ele>
        <time>2016-09-28T12:32:39Z</time>
      </trkpt>
      <trkpt lat="43.39391" lon="6.08004">
        <ele>279.79998779297</ele>
        <time>2016-09-28T12:32:40Z</time>
      </trkpt>
      <trkpt lat="43.3939" lon="6.08005">
        <ele>280</ele>
        <time>2016-09-28T12:32:41Z</time>
      </trkpt>
      <trkpt lat="43.39388" lon="6.08006">
        <ele>280</ele>
        <time>2016-09-28T12:32:42Z</time>
      </trkpt>
      <trkpt lat="43.39383" lon="6.08012">
        <ele>281</ele>
        <time>2016-09-28T12:32:46Z</time>
      </trkpt>
      <trkpt lat="43.39381" lon="6.08014">
        <ele>281.20001220703</ele>
        <time>2016-09-28T12:32:47Z</time>
      </trkpt>
      <trkpt lat="43.39378" lon="6.08024">
        <ele>281.79998779297</ele>
        <time>2016-09-28T12:32:52Z</time>
      </trkpt>
      <trkpt lat="43.39375" lon="6.0803">
        <ele>282</ele>
        <time>2016-09-28T12:32:55Z</time>
      </trkpt>
      <trkpt lat="43.39372" lon="6.08034">
        <ele>282.20001220703</ele>
        <time>2016-09-28T12:32:57Z</time>
      </trkpt>
      <trkpt lat="43.39365" lon="6.08043">
        <ele>283</ele>
        <time>2016-09-28T12:33:02Z</time>
      </trkpt>
      <trkpt lat="43.39356" lon="6.08058">
        <ele>283.79998779297</ele>
        <time>2016-09-28T12:33:10Z</time>
      </trkpt>
      <trkpt lat="43.39354" lon="6.08062">
        <ele>284.20001220703</ele>
        <time>2016-09-28T12:33:12Z</time>
      </trkpt>
      <trkpt lat="43.3935" lon="6.08067">
        <ele>284.39999389648</ele>
        <time>2016-09-28T12:33:15Z</time>
      </trkpt>
      <trkpt lat="43.39347" lon="6.08072">
        <ele>284.60000610352</ele>
        <time>2016-09-28T12:33:18Z</time>
      </trkpt>
      <trkpt lat="43.39346" lon="6.08073">
        <ele>284.60000610352</ele>
        <time>2016-09-28T12:33:19Z</time>
      </trkpt>
      <trkpt lat="43.39343" lon="6.08078">
        <ele>284.79998779297</ele>
        <time>2016-09-28T12:33:22Z</time>
      </trkpt>
      <trkpt lat="43.39342" lon="6.08078">
        <ele>285</ele>
        <time>2016-09-28T12:33:23Z</time>
      </trkpt>
      <trkpt lat="43.3934" lon="6.08081">
        <ele>285.39999389648</ele>
        <time>2016-09-28T12:33:26Z</time>
      </trkpt>
      <trkpt lat="43.39339" lon="6.08083">
        <ele>285.39999389648</ele>
        <time>2016-09-28T12:33:27Z</time>
      </trkpt>
      <trkpt lat="43.39335" lon="6.08089">
        <ele>285.79998779297</ele>
        <time>2016-09-28T12:33:30Z</time>
      </trkpt>
      <trkpt lat="43.39333" lon="6.08093">
        <ele>286.20001220703</ele>
        <time>2016-09-28T12:33:32Z</time>
      </trkpt>
      <trkpt lat="43.3932" lon="6.08108">
        <ele>287.60000610352</ele>
        <time>2016-09-28T12:33:42Z</time>
      </trkpt>
      <trkpt lat="43.39317" lon="6.08116">
        <ele>288</ele>
        <time>2016-09-28T12:33:46Z</time>
      </trkpt>
      <trkpt lat="43.39315" lon="6.08122">
        <ele>288.39999389648</ele>
        <time>2016-09-28T12:33:49Z</time>
      </trkpt>
      <trkpt lat="43.39312" lon="6.08126">
        <ele>288.60000610352</ele>
        <time>2016-09-28T12:33:52Z</time>
      </trkpt>
      <trkpt lat="43.39308" lon="6.08139">
        <ele>289.39999389648</ele>
        <time>2016-09-28T12:33:59Z</time>
      </trkpt>
      <trkpt lat="43.39307" lon="6.08142">
        <ele>289.60000610352</ele>
        <time>2016-09-28T12:34:01Z</time>
      </trkpt>
      <trkpt lat="43.39305" lon="6.08151">
        <ele>290.20001220703</ele>
        <time>2016-09-28T12:34:05Z</time>
      </trkpt>
      <trkpt lat="43.39304" lon="6.08157">
        <ele>290.60000610352</ele>
        <time>2016-09-28T12:34:08Z</time>
      </trkpt>
      <trkpt lat="43.39301" lon="6.08165">
        <ele>291.20001220703</ele>
        <time>2016-09-28T12:34:12Z</time>
      </trkpt>
      <trkpt lat="43.39299" lon="6.08173">
        <ele>291.79998779297</ele>
        <time>2016-09-28T12:34:16Z</time>
      </trkpt>
      <trkpt lat="43.39295" lon="6.08184">
        <ele>292.39999389648</ele>
        <time>2016-09-28T12:34:22Z</time>
      </trkpt>
      <trkpt lat="43.39294" lon="6.08187">
        <ele>292.79998779297</ele>
        <time>2016-09-28T12:34:24Z</time>
      </trkpt>
      <trkpt lat="43.39289" lon="6.082">
        <ele>293.79998779297</ele>
        <time>2016-09-28T12:34:31Z</time>
      </trkpt>
      <trkpt lat="43.39286" lon="6.08219">
        <ele>295</ele>
        <time>2016-09-28T12:34:41Z</time>
      </trkpt>
      <trkpt lat="43.39281" lon="6.08242">
        <ele>295.60000610352</ele>
        <time>2016-09-28T12:34:52Z</time>
      </trkpt>
      <trkpt lat="43.39278" lon="6.08249">
        <ele>296.20001220703</ele>
        <time>2016-09-28T12:34:56Z</time>
      </trkpt>
      <trkpt lat="43.39278" lon="6.08249">
        <ele>296.20001220703</ele>
        <time>2016-09-28T12:35:02Z</time>
      </trkpt>
      <trkpt lat="43.39277" lon="6.08248">
        <ele>296.20001220703</ele>
        <time>2016-09-28T12:35:12Z</time>
      </trkpt>
      <trkpt lat="43.39277" lon="6.08248">
        <ele>296.20001220703</ele>
        <time>2016-09-28T12:35:19Z</time>
      </trkpt>
      <trkpt lat="43.39276" lon="6.08247">
        <ele>296.20001220703</ele>
        <time>2016-09-28T12:35:22Z</time>
      </trkpt>
      <trkpt lat="43.39276" lon="6.08247">
        <ele>296.20001220703</ele>
        <time>2016-09-28T12:35:23Z</time>
      </trkpt>
      <trkpt lat="43.39276" lon="6.08247">
        <ele>296.20001220703</ele>
        <time>2016-09-28T12:35:25Z</time>
      </trkpt>
      <trkpt lat="43.39275" lon="6.08246">
        <ele>296.20001220703</ele>
        <time>2016-09-28T12:35:27Z</time>
      </trkpt>
      <trkpt lat="43.39275" lon="6.08246">
        <ele>296.20001220703</ele>
        <time>2016-09-28T12:35:29Z</time>
      </trkpt>
      <trkpt lat="43.39275" lon="6.08246">
        <ele>296.20001220703</ele>
        <time>2016-09-28T12:35:42Z</time>
      </trkpt>
      <trkpt lat="43.39276" lon="6.08247">
        <ele>296</ele>
        <time>2016-09-28T12:35:46Z</time>
      </trkpt>
      <trkpt lat="43.39277" lon="6.08247">
        <ele>296</ele>
        <time>2016-09-28T12:35:52Z</time>
      </trkpt>
      <trkpt lat="43.39276" lon="6.08247">
        <ele>296.20001220703</ele>
        <time>2016-09-28T12:36:02Z</time>
      </trkpt>
      <trkpt lat="43.39277" lon="6.08247">
        <ele>296.20001220703</ele>
        <time>2016-09-28T12:36:07Z</time>
      </trkpt>
      <trkpt lat="43.39275" lon="6.08244">
        <ele>296.20001220703</ele>
        <time>2016-09-28T12:36:12Z</time>
      </trkpt>
      <trkpt lat="43.39275" lon="6.08244">
        <ele>296.20001220703</ele>
        <time>2016-09-28T12:36:13Z</time>
      </trkpt>
      <trkpt lat="43.39275" lon="6.08244">
        <ele>296.20001220703</ele>
        <time>2016-09-28T12:36:21Z</time>
      </trkpt>
      <trkpt lat="43.39275" lon="6.08244">
        <ele>296.20001220703</ele>
        <time>2016-09-28T12:36:22Z</time>
      </trkpt>
      <trkpt lat="43.39277" lon="6.08245">
        <ele>296.20001220703</ele>
        <time>2016-09-28T12:36:32Z</time>
      </trkpt>
      <trkpt lat="43.39275" lon="6.08246">
        <ele>296.20001220703</ele>
        <time>2016-09-28T12:36:42Z</time>
      </trkpt>
      <trkpt lat="43.39275" lon="6.08248">
        <ele>296.20001220703</ele>
        <time>2016-09-28T12:36:45Z</time>
      </trkpt>
      <trkpt lat="43.39271" lon="6.08256">
        <ele>297.20001220703</ele>
        <time>2016-09-28T12:36:49Z</time>
      </trkpt>
      <trkpt lat="43.39269" lon="6.0826">
        <ele>297</ele>
        <time>2016-09-28T12:36:51Z</time>
      </trkpt>
      <trkpt lat="43.39268" lon="6.08263">
        <ele>297</ele>
        <time>2016-09-28T12:36:52Z</time>
      </trkpt>
      <trkpt lat="43.39263" lon="6.08275">
        <ele>297.60000610352</ele>
        <time>2016-09-28T12:36:57Z</time>
      </trkpt>
      <trkpt lat="43.3926" lon="6.08284">
        <ele>298.60000610352</ele>
        <time>2016-09-28T12:37:01Z</time>
      </trkpt>
      <trkpt lat="43.39259" lon="6.08286">
        <ele>298.79998779297</ele>
        <time>2016-09-28T12:37:02Z</time>
      </trkpt>
      <trkpt lat="43.39257" lon="6.08292">
        <ele>299.20001220703</ele>
        <time>2016-09-28T12:37:05Z</time>
      </trkpt>
      <trkpt lat="43.39256" lon="6.08297">
        <ele>299.39999389648</ele>
        <time>2016-09-28T12:37:07Z</time>
      </trkpt>
      <trkpt lat="43.39255" lon="6.08302">
        <ele>299.79998779297</ele>
        <time>2016-09-28T12:37:09Z</time>
      </trkpt>
      <trkpt lat="43.39254" lon="6.08308">
        <ele>300.39999389648</ele>
        <time>2016-09-28T12:37:12Z</time>
      </trkpt>
      <trkpt lat="43.39252" lon="6.08316">
        <ele>300.39999389648</ele>
        <time>2016-09-28T12:37:16Z</time>
      </trkpt>
      <trkpt lat="43.39251" lon="6.08325">
        <ele>301.60000610352</ele>
        <time>2016-09-28T12:37:20Z</time>
      </trkpt>
      <trkpt lat="43.39249" lon="6.08328">
        <ele>302</ele>
        <time>2016-09-28T12:37:22Z</time>
      </trkpt>
      <trkpt lat="43.39248" lon="6.08328">
        <ele>302</ele>
        <time>2016-09-28T12:37:32Z</time>
      </trkpt>
      <trkpt lat="43.39248" lon="6.08329">
        <ele>302.20001220703</ele>
        <time>2016-09-28T12:37:40Z</time>
      </trkpt>
      <trkpt lat="43.39248" lon="6.08329">
        <ele>302.20001220703</ele>
        <time>2016-09-28T12:37:45Z</time>
      </trkpt>
      <trkpt lat="43.39248" lon="6.08329">
        <ele>302.20001220703</ele>
        <time>2016-09-28T12:37:52Z</time>
      </trkpt>
      <trkpt lat="43.39249" lon="6.08328">
        <ele>302.20001220703</ele>
        <time>2016-09-28T12:38:07Z</time>
      </trkpt>
      <trkpt lat="43.39249" lon="6.08328">
        <ele>302</ele>
        <time>2016-09-28T12:38:12Z</time>
      </trkpt>
      <trkpt lat="43.39249" lon="6.08328">
        <ele>302.20001220703</ele>
        <time>2016-09-28T12:38:32Z</time>
      </trkpt>
      <trkpt lat="43.39249" lon="6.08328">
        <ele>302</ele>
        <time>2016-09-28T12:38:42Z</time>
      </trkpt>
      <trkpt lat="43.3925" lon="6.08329">
        <ele>302.20001220703</ele>
        <time>2016-09-28T12:38:52Z</time>
      </trkpt>
      <trkpt lat="43.3925" lon="6.0833">
        <ele>302</ele>
        <time>2016-09-28T12:38:57Z</time>
      </trkpt>
      <trkpt lat="43.39249" lon="6.08333">
        <ele>302.79998779297</ele>
        <time>2016-09-28T12:38:59Z</time>
      </trkpt>
      <trkpt lat="43.39248" lon="6.08337">
        <ele>303</ele>
        <time>2016-09-28T12:39:01Z</time>
      </trkpt>
      <trkpt lat="43.39247" lon="6.0834">
        <ele>302.79998779297</ele>
        <time>2016-09-28T12:39:02Z</time>
      </trkpt>
      <trkpt lat="43.39245" lon="6.08346">
        <ele>304</ele>
        <time>2016-09-28T12:39:04Z</time>
      </trkpt>
      <trkpt lat="43.39243" lon="6.08352">
        <ele>303.60000610352</ele>
        <time>2016-09-28T12:39:06Z</time>
      </trkpt>
      <trkpt lat="43.39241" lon="6.0836">
        <ele>304</ele>
        <time>2016-09-28T12:39:09Z</time>
      </trkpt>
      <trkpt lat="43.39238" lon="6.08368">
        <ele>304</ele>
        <time>2016-09-28T12:39:12Z</time>
      </trkpt>
      <trkpt lat="43.39236" lon="6.08373">
        <ele>304.20001220703</ele>
        <time>2016-09-28T12:39:14Z</time>
      </trkpt>
      <trkpt lat="43.39232" lon="6.08381">
        <ele>305.20001220703</ele>
        <time>2016-09-28T12:39:18Z</time>
      </trkpt>
      <trkpt lat="43.3923" lon="6.08388">
        <ele>305.79998779297</ele>
        <time>2016-09-28T12:39:21Z</time>
      </trkpt>
      <trkpt lat="43.39229" lon="6.0839">
        <ele>306.20001220703</ele>
        <time>2016-09-28T12:39:22Z</time>
      </trkpt>
      <trkpt lat="43.39227" lon="6.08399">
        <ele>306.79998779297</ele>
        <time>2016-09-28T12:39:26Z</time>
      </trkpt>
      <trkpt lat="43.39227" lon="6.08404">
        <ele>306.79998779297</ele>
        <time>2016-09-28T12:39:28Z</time>
      </trkpt>
      <trkpt lat="43.39226" lon="6.08406">
        <ele>306.79998779297</ele>
        <time>2016-09-28T12:39:29Z</time>
      </trkpt>
      <trkpt lat="43.39225" lon="6.08413">
        <ele>308</ele>
        <time>2016-09-28T12:39:32Z</time>
      </trkpt>
      <trkpt lat="43.39224" lon="6.08424">
        <ele>309.20001220703</ele>
        <time>2016-09-28T12:39:38Z</time>
      </trkpt>
      <trkpt lat="43.39222" lon="6.0843">
        <ele>309.79998779297</ele>
        <time>2016-09-28T12:39:41Z</time>
      </trkpt>
      <trkpt lat="43.39222" lon="6.08432">
        <ele>310</ele>
        <time>2016-09-28T12:39:42Z</time>
      </trkpt>
      <trkpt lat="43.3922" lon="6.08439">
        <ele>310.79998779297</ele>
        <time>2016-09-28T12:39:45Z</time>
      </trkpt>
      <trkpt lat="43.39217" lon="6.08452">
        <ele>311.60000610352</ele>
        <time>2016-09-28T12:39:52Z</time>
      </trkpt>
      <trkpt lat="43.39217" lon="6.08454">
        <ele>311.79998779297</ele>
        <time>2016-09-28T12:39:53Z</time>
      </trkpt>
      <trkpt lat="43.39214" lon="6.08465">
        <ele>312.79998779297</ele>
        <time>2016-09-28T12:39:59Z</time>
      </trkpt>
      <trkpt lat="43.39213" lon="6.08471">
        <ele>313.60000610352</ele>
        <time>2016-09-28T12:40:02Z</time>
      </trkpt>
      <trkpt lat="43.39212" lon="6.08473">
        <ele>314</ele>
        <time>2016-09-28T12:40:03Z</time>
      </trkpt>
      <trkpt lat="43.3921" lon="6.0848">
        <ele>315</ele>
        <time>2016-09-28T12:40:08Z</time>
      </trkpt>
      <trkpt lat="43.39208" lon="6.08486">
        <ele>315.20001220703</ele>
        <time>2016-09-28T12:40:12Z</time>
      </trkpt>
      <trkpt lat="43.39207" lon="6.08488">
        <ele>315.20001220703</ele>
        <time>2016-09-28T12:40:14Z</time>
      </trkpt>
      <trkpt lat="43.39206" lon="6.0849">
        <ele>315.20001220703</ele>
        <time>2016-09-28T12:40:19Z</time>
      </trkpt>
      <trkpt lat="43.39206" lon="6.0849">
        <ele>315.20001220703</ele>
        <time>2016-09-28T12:40:21Z</time>
      </trkpt>
      <trkpt lat="43.39207" lon="6.0849">
        <ele>315.20001220703</ele>
        <time>2016-09-28T12:40:22Z</time>
      </trkpt>
      <trkpt lat="43.39207" lon="6.08491">
        <ele>315</ele>
        <time>2016-09-28T12:40:26Z</time>
      </trkpt>
      <trkpt lat="43.39207" lon="6.08491">
        <ele>315.20001220703</ele>
        <time>2016-09-28T12:40:32Z</time>
      </trkpt>
      <trkpt lat="43.39207" lon="6.08491">
        <ele>315.20001220703</ele>
        <time>2016-09-28T12:40:38Z</time>
      </trkpt>
      <trkpt lat="43.39207" lon="6.08491">
        <ele>315.20001220703</ele>
        <time>2016-09-28T12:40:52Z</time>
      </trkpt>
      <trkpt lat="43.39207" lon="6.0849">
        <ele>315</ele>
        <time>2016-09-28T12:40:58Z</time>
      </trkpt>
      <trkpt lat="43.39207" lon="6.08489">
        <ele>315</ele>
        <time>2016-09-28T12:41:02Z</time>
      </trkpt>
      <trkpt lat="43.39207" lon="6.08487">
        <ele>315</ele>
        <time>2016-09-28T12:41:12Z</time>
      </trkpt>
      <trkpt lat="43.39207" lon="6.08486">
        <ele>314.79998779297</ele>
        <time>2016-09-28T12:41:22Z</time>
      </trkpt>
      <trkpt lat="43.39207" lon="6.08485">
        <ele>314.79998779297</ele>
        <time>2016-09-28T12:41:32Z</time>
      </trkpt>
      <trkpt lat="43.39207" lon="6.08485">
        <ele>314.79998779297</ele>
        <time>2016-09-28T12:41:36Z</time>
      </trkpt>
      <trkpt lat="43.39207" lon="6.08485">
        <ele>314.79998779297</ele>
        <time>2016-09-28T12:41:42Z</time>
      </trkpt>
      <trkpt lat="43.39207" lon="6.08486">
        <ele>314.79998779297</ele>
        <time>2016-09-28T12:41:52Z</time>
      </trkpt>
      <trkpt lat="43.39207" lon="6.08487">
        <ele>314.79998779297</ele>
        <time>2016-09-28T12:42:02Z</time>
      </trkpt>
      <trkpt lat="43.39207" lon="6.08487">
        <ele>314.79998779297</ele>
        <time>2016-09-28T12:42:12Z</time>
      </trkpt>
      <trkpt lat="43.39206" lon="6.08487">
        <ele>314.79998779297</ele>
        <time>2016-09-28T12:42:32Z</time>
      </trkpt>
      <trkpt lat="43.39206" lon="6.08488">
        <ele>314.79998779297</ele>
        <time>2016-09-28T12:42:36Z</time>
      </trkpt>
      <trkpt lat="43.39205" lon="6.08489">
        <ele>314.79998779297</ele>
        <time>2016-09-28T12:42:42Z</time>
      </trkpt>
      <trkpt lat="43.39205" lon="6.08491">
        <ele>314.79998779297</ele>
        <time>2016-09-28T12:42:52Z</time>
      </trkpt>
      <trkpt lat="43.39205" lon="6.08492">
        <ele>314.79998779297</ele>
        <time>2016-09-28T12:43:01Z</time>
      </trkpt>
      <trkpt lat="43.39204" lon="6.08492">
        <ele>314.79998779297</ele>
        <time>2016-09-28T12:43:02Z</time>
      </trkpt>
      <trkpt lat="43.39203" lon="6.08494">
        <ele>314.79998779297</ele>
        <time>2016-09-28T12:43:12Z</time>
      </trkpt>
      <trkpt lat="43.392" lon="6.08498">
        <ele>314.79998779297</ele>
        <time>2016-09-28T12:43:16Z</time>
      </trkpt>
      <trkpt lat="43.39192" lon="6.08509">
        <ele>315.20001220703</ele>
        <time>2016-09-28T12:43:22Z</time>
      </trkpt>
      <trkpt lat="43.39185" lon="6.08524">
        <ele>314.79998779297</ele>
        <time>2016-09-28T12:43:26Z</time>
      </trkpt>
      <trkpt lat="43.39175" lon="6.08553">
        <ele>314.20001220703</ele>
        <time>2016-09-28T12:43:31Z</time>
      </trkpt>
      <trkpt lat="43.39173" lon="6.08559">
        <ele>314</ele>
        <time>2016-09-28T12:43:32Z</time>
      </trkpt>
      <trkpt lat="43.3917" lon="6.08571">
        <ele>313.60000610352</ele>
        <time>2016-09-28T12:43:34Z</time>
      </trkpt>
      <trkpt lat="43.39167" lon="6.08594">
        <ele>312.60000610352</ele>
        <time>2016-09-28T12:43:38Z</time>
      </trkpt>
      <trkpt lat="43.39163" lon="6.08617">
        <ele>312.20001220703</ele>
        <time>2016-09-28T12:43:42Z</time>
      </trkpt>
      <trkpt lat="43.39161" lon="6.08622">
        <ele>312.20001220703</ele>
        <time>2016-09-28T12:43:43Z</time>
      </trkpt>
      <trkpt lat="43.39157" lon="6.08634">
        <ele>312.39999389648</ele>
        <time>2016-09-28T12:43:45Z</time>
      </trkpt>
      <trkpt lat="43.39154" lon="6.08659">
        <ele>312.60000610352</ele>
        <time>2016-09-28T12:43:49Z</time>
      </trkpt>
      <trkpt lat="43.3915" lon="6.08675">
        <ele>312.79998779297</ele>
        <time>2016-09-28T12:43:52Z</time>
      </trkpt>
      <trkpt lat="43.39145" lon="6.08716">
        <ele>313.39999389648</ele>
        <time>2016-09-28T12:44:00Z</time>
      </trkpt>
      <trkpt lat="43.39143" lon="6.08724">
        <ele>313.60000610352</ele>
        <time>2016-09-28T12:44:02Z</time>
      </trkpt>
      <trkpt lat="43.39142" lon="6.08729">
        <ele>313.79998779297</ele>
        <time>2016-09-28T12:44:03Z</time>
      </trkpt>
      <trkpt lat="43.39134" lon="6.08765">
        <ele>314.79998779297</ele>
        <time>2016-09-28T12:44:11Z</time>
      </trkpt>
      <trkpt lat="43.39133" lon="6.0877">
        <ele>315</ele>
        <time>2016-09-28T12:44:12Z</time>
      </trkpt>
      <trkpt lat="43.39125" lon="6.08797">
        <ele>315.20001220703</ele>
        <time>2016-09-28T12:44:18Z</time>
      </trkpt>
      <trkpt lat="43.39123" lon="6.08804">
        <ele>315.60000610352</ele>
        <time>2016-09-28T12:44:22Z</time>
      </trkpt>
      <trkpt lat="43.39124" lon="6.08804">
        <ele>316</ele>
        <time>2016-09-28T12:44:24Z</time>
      </trkpt>
      <trkpt lat="43.39123" lon="6.08805">
        <ele>316</ele>
        <time>2016-09-28T12:44:30Z</time>
      </trkpt>
      <trkpt lat="43.39121" lon="6.0881">
        <ele>315.79998779297</ele>
        <time>2016-09-28T12:44:32Z</time>
      </trkpt>
      <trkpt lat="43.39119" lon="6.0882">
        <ele>315.60000610352</ele>
        <time>2016-09-28T12:44:35Z</time>
      </trkpt>
      <trkpt lat="43.39114" lon="6.08842">
        <ele>315.79998779297</ele>
        <time>2016-09-28T12:44:42Z</time>
      </trkpt>
      <trkpt lat="43.39107" lon="6.08879">
        <ele>316.39999389648</ele>
        <time>2016-09-28T12:44:52Z</time>
      </trkpt>
      <trkpt lat="43.39105" lon="6.08895">
        <ele>316.79998779297</ele>
        <time>2016-09-28T12:44:55Z</time>
      </trkpt>
      <trkpt lat="43.39102" lon="6.08913">
        <ele>316.79998779297</ele>
        <time>2016-09-28T12:44:58Z</time>
      </trkpt>
      <trkpt lat="43.39099" lon="6.08924">
        <ele>316.79998779297</ele>
        <time>2016-09-28T12:45:00Z</time>
      </trkpt>
      <trkpt lat="43.39095" lon="6.08936">
        <ele>317</ele>
        <time>2016-09-28T12:45:02Z</time>
      </trkpt>
      <trkpt lat="43.39093" lon="6.08947">
        <ele>317.39999389648</ele>
        <time>2016-09-28T12:45:04Z</time>
      </trkpt>
      <trkpt lat="43.39087" lon="6.08967">
        <ele>317.60000610352</ele>
        <time>2016-09-28T12:45:08Z</time>
      </trkpt>
      <trkpt lat="43.3908" lon="6.08984">
        <ele>317.79998779297</ele>
        <time>2016-09-28T12:45:12Z</time>
      </trkpt>
      <trkpt lat="43.39077" lon="6.08992">
        <ele>318.20001220703</ele>
        <time>2016-09-28T12:45:14Z</time>
      </trkpt>
      <trkpt lat="43.39068" lon="6.09009">
        <ele>319</ele>
        <time>2016-09-28T12:45:22Z</time>
      </trkpt>
      <trkpt lat="43.39067" lon="6.09012">
        <ele>319</ele>
        <time>2016-09-28T12:45:23Z</time>
      </trkpt>
      <trkpt lat="43.39055" lon="6.09035">
        <ele>319.20001220703</ele>
        <time>2016-09-28T12:45:31Z</time>
      </trkpt>
      <trkpt lat="43.39053" lon="6.09038">
        <ele>319.39999389648</ele>
        <time>2016-09-28T12:45:32Z</time>
      </trkpt>
      <trkpt lat="43.39042" lon="6.09066">
        <ele>320.20001220703</ele>
        <time>2016-09-28T12:45:42Z</time>
      </trkpt>
      <trkpt lat="43.39041" lon="6.09069">
        <ele>320.39999389648</ele>
        <time>2016-09-28T12:45:43Z</time>
      </trkpt>
      <trkpt lat="43.39031" lon="6.09096">
        <ele>320.60000610352</ele>
        <time>2016-09-28T12:45:52Z</time>
      </trkpt>
      <trkpt lat="43.39023" lon="6.09124">
        <ele>321.20001220703</ele>
        <time>2016-09-28T12:46:02Z</time>
      </trkpt>
      <trkpt lat="43.39021" lon="6.09131">
        <ele>321.39999389648</ele>
        <time>2016-09-28T12:46:04Z</time>
      </trkpt>
      <trkpt lat="43.39012" lon="6.09165">
        <ele>321.39999389648</ele>
        <time>2016-09-28T12:46:12Z</time>
      </trkpt>
      <trkpt lat="43.39009" lon="6.09179">
        <ele>322.39999389648</ele>
        <time>2016-09-28T12:46:16Z</time>
      </trkpt>
      <trkpt lat="43.39006" lon="6.09199">
        <ele>323.20001220703</ele>
        <time>2016-09-28T12:46:21Z</time>
      </trkpt>
      <trkpt lat="43.39005" lon="6.09203">
        <ele>323.20001220703</ele>
        <time>2016-09-28T12:46:22Z</time>
      </trkpt>
      <trkpt lat="43.38997" lon="6.09247">
        <ele>322.79998779297</ele>
        <time>2016-09-28T12:46:32Z</time>
      </trkpt>
      <trkpt lat="43.38988" lon="6.09273">
        <ele>323.60000610352</ele>
        <time>2016-09-28T12:46:39Z</time>
      </trkpt>
      <trkpt lat="43.38984" lon="6.09283">
        <ele>323.79998779297</ele>
        <time>2016-09-28T12:46:42Z</time>
      </trkpt>
      <trkpt lat="43.38974" lon="6.09296">
        <ele>324.79998779297</ele>
        <time>2016-09-28T12:46:48Z</time>
      </trkpt>
      <trkpt lat="43.38972" lon="6.09298">
        <ele>325</ele>
        <time>2016-09-28T12:46:49Z</time>
      </trkpt>
      <trkpt lat="43.38968" lon="6.09306">
        <ele>325.60000610352</ele>
        <time>2016-09-28T12:46:52Z</time>
      </trkpt>
      <trkpt lat="43.38964" lon="6.09312">
        <ele>325.79998779297</ele>
        <time>2016-09-28T12:46:55Z</time>
      </trkpt>
      <trkpt lat="43.38956" lon="6.0933">
        <ele>326.39999389648</ele>
        <time>2016-09-28T12:47:02Z</time>
      </trkpt>
      <trkpt lat="43.38945" lon="6.09343">
        <ele>326.79998779297</ele>
        <time>2016-09-28T12:47:08Z</time>
      </trkpt>
      <trkpt lat="43.38937" lon="6.09351">
        <ele>327.20001220703</ele>
        <time>2016-09-28T12:47:12Z</time>
      </trkpt>
      <trkpt lat="43.3893" lon="6.09359">
        <ele>327.20001220703</ele>
        <time>2016-09-28T12:47:15Z</time>
      </trkpt>
      <trkpt lat="43.38918" lon="6.09372">
        <ele>327.20001220703</ele>
        <time>2016-09-28T12:47:22Z</time>
      </trkpt>
      <trkpt lat="43.38915" lon="6.09376">
        <ele>328</ele>
        <time>2016-09-28T12:47:25Z</time>
      </trkpt>
      <trkpt lat="43.3891" lon="6.09384">
        <ele>328.79998779297</ele>
        <time>2016-09-28T12:47:30Z</time>
      </trkpt>
      <trkpt lat="43.38907" lon="6.09387">
        <ele>329</ele>
        <time>2016-09-28T12:47:32Z</time>
      </trkpt>
      <trkpt lat="43.38902" lon="6.09392">
        <ele>329.60000610352</ele>
        <time>2016-09-28T12:47:35Z</time>
      </trkpt>
      <trkpt lat="43.38899" lon="6.09395">
        <ele>330.20001220703</ele>
        <time>2016-09-28T12:47:37Z</time>
      </trkpt>
      <trkpt lat="43.38894" lon="6.09399">
        <ele>331</ele>
        <time>2016-09-28T12:47:41Z</time>
      </trkpt>
      <trkpt lat="43.38893" lon="6.09401">
        <ele>331.20001220703</ele>
        <time>2016-09-28T12:47:42Z</time>
      </trkpt>
      <trkpt lat="43.38892" lon="6.09403">
        <ele>331.39999389648</ele>
        <time>2016-09-28T12:47:45Z</time>
      </trkpt>
      <trkpt lat="43.38892" lon="6.09404">
        <ele>332</ele>
        <time>2016-09-28T12:47:52Z</time>
      </trkpt>
      <trkpt lat="43.38892" lon="6.09404">
        <ele>332</ele>
        <time>2016-09-28T12:47:56Z</time>
      </trkpt>
      <trkpt lat="43.38891" lon="6.09409">
        <ele>331.79998779297</ele>
        <time>2016-09-28T12:48:10Z</time>
      </trkpt>
      <trkpt lat="43.38892" lon="6.09409">
        <ele>331.60000610352</ele>
        <time>2016-09-28T12:48:12Z</time>
      </trkpt>
      <trkpt lat="43.38894" lon="6.0941">
        <ele>331.20001220703</ele>
        <time>2016-09-28T12:48:15Z</time>
      </trkpt>
      <trkpt lat="43.38894" lon="6.0941">
        <ele>331.20001220703</ele>
        <time>2016-09-28T12:48:18Z</time>
      </trkpt>
      <trkpt lat="43.38894" lon="6.0941">
        <ele>331.39999389648</ele>
        <time>2016-09-28T12:48:22Z</time>
      </trkpt>
      <trkpt lat="43.38894" lon="6.0941">
        <ele>331.39999389648</ele>
        <time>2016-09-28T12:48:25Z</time>
      </trkpt>
      <trkpt lat="43.38892" lon="6.0941">
        <ele>331.39999389648</ele>
        <time>2016-09-28T12:48:29Z</time>
      </trkpt>
      <trkpt lat="43.38892" lon="6.09409">
        <ele>331.20001220703</ele>
        <time>2016-09-28T12:48:32Z</time>
      </trkpt>
      <trkpt lat="43.38891" lon="6.0941">
        <ele>331.20001220703</ele>
        <time>2016-09-28T12:48:36Z</time>
      </trkpt>
      <trkpt lat="43.38887" lon="6.09408">
        <ele>331.20001220703</ele>
        <time>2016-09-28T12:48:42Z</time>
      </trkpt>
      <trkpt lat="43.3889" lon="6.09408">
        <ele>331.20001220703</ele>
        <time>2016-09-28T12:48:52Z</time>
      </trkpt>
      <trkpt lat="43.38892" lon="6.09409">
        <ele>331.20001220703</ele>
        <time>2016-09-28T12:48:56Z</time>
      </trkpt>
      <trkpt lat="43.38893" lon="6.0941">
        <ele>331.60000610352</ele>
        <time>2016-09-28T12:49:02Z</time>
      </trkpt>
      <trkpt lat="43.38894" lon="6.09411">
        <ele>331.39999389648</ele>
        <time>2016-09-28T12:49:08Z</time>
      </trkpt>
      <trkpt lat="43.38893" lon="6.09411">
        <ele>331.60000610352</ele>
        <time>2016-09-28T12:49:12Z</time>
      </trkpt>
      <trkpt lat="43.38892" lon="6.09411">
        <ele>331.20001220703</ele>
        <time>2016-09-28T12:49:22Z</time>
      </trkpt>
      <trkpt lat="43.38892" lon="6.09409">
        <ele>331.39999389648</ele>
        <time>2016-09-28T12:49:26Z</time>
      </trkpt>
      <trkpt lat="43.38892" lon="6.09409">
        <ele>332.20001220703</ele>
        <time>2016-09-28T12:49:28Z</time>
      </trkpt>
      <trkpt lat="43.38892" lon="6.09409">
        <ele>332.20001220703</ele>
        <time>2016-09-28T12:49:32Z</time>
      </trkpt>
      <trkpt lat="43.38892" lon="6.09409">
        <ele>332.20001220703</ele>
        <time>2016-09-28T12:49:35Z</time>
      </trkpt>
      <trkpt lat="43.38891" lon="6.09409">
        <ele>332.39999389648</ele>
        <time>2016-09-28T12:49:38Z</time>
      </trkpt>
      <trkpt lat="43.38891" lon="6.09411">
        <ele>332.60000610352</ele>
        <time>2016-09-28T12:49:42Z</time>
      </trkpt>
      <trkpt lat="43.38891" lon="6.09415">
        <ele>332.60000610352</ele>
        <time>2016-09-28T12:49:45Z</time>
      </trkpt>
      <trkpt lat="43.38889" lon="6.09417">
        <ele>333</ele>
        <time>2016-09-28T12:49:48Z</time>
      </trkpt>
      <trkpt lat="43.38889" lon="6.09418">
        <ele>333.39999389648</ele>
        <time>2016-09-28T12:49:49Z</time>
      </trkpt>
      <trkpt lat="43.38888" lon="6.09418">
        <ele>333.20001220703</ele>
        <time>2016-09-28T12:49:51Z</time>
      </trkpt>
      <trkpt lat="43.38888" lon="6.09419">
        <ele>333.20001220703</ele>
        <time>2016-09-28T12:49:52Z</time>
      </trkpt>
      <trkpt lat="43.38887" lon="6.09418">
        <ele>333.20001220703</ele>
        <time>2016-09-28T12:49:55Z</time>
      </trkpt>
      <trkpt lat="43.38888" lon="6.09417">
        <ele>333.20001220703</ele>
        <time>2016-09-28T12:50:02Z</time>
      </trkpt>
      <trkpt lat="43.38887" lon="6.09418">
        <ele>333.20001220703</ele>
        <time>2016-09-28T12:50:10Z</time>
      </trkpt>
      <trkpt lat="43.38887" lon="6.09418">
        <ele>333.20001220703</ele>
        <time>2016-09-28T12:50:12Z</time>
      </trkpt>
      <trkpt lat="43.38886" lon="6.09419">
        <ele>333.79998779297</ele>
        <time>2016-09-28T12:50:15Z</time>
      </trkpt>
      <trkpt lat="43.38885" lon="6.09419">
        <ele>334</ele>
        <time>2016-09-28T12:50:17Z</time>
      </trkpt>
      <trkpt lat="43.38883" lon="6.09422">
        <ele>334.39999389648</ele>
        <time>2016-09-28T12:50:22Z</time>
      </trkpt>
      <trkpt lat="43.38883" lon="6.09422">
        <ele>334.39999389648</ele>
        <time>2016-09-28T12:50:25Z</time>
      </trkpt>
      <trkpt lat="43.3888" lon="6.09424">
        <ele>335</ele>
        <time>2016-09-28T12:50:32Z</time>
      </trkpt>
      <trkpt lat="43.3888" lon="6.09427">
        <ele>335</ele>
        <time>2016-09-28T12:50:41Z</time>
      </trkpt>
      <trkpt lat="43.3888" lon="6.09427">
        <ele>335</ele>
        <time>2016-09-28T12:50:42Z</time>
      </trkpt>
      <trkpt lat="43.38878" lon="6.09426">
        <ele>335.20001220703</ele>
        <time>2016-09-28T12:50:52Z</time>
      </trkpt>
      <trkpt lat="43.38877" lon="6.09424">
        <ele>335</ele>
        <time>2016-09-28T12:50:55Z</time>
      </trkpt>
      <trkpt lat="43.38879" lon="6.09425">
        <ele>335</ele>
        <time>2016-09-28T12:51:05Z</time>
      </trkpt>
      <trkpt lat="43.38879" lon="6.09425">
        <ele>335</ele>
        <time>2016-09-28T12:51:07Z</time>
      </trkpt>
      <trkpt lat="43.38877" lon="6.09425">
        <ele>335</ele>
        <time>2016-09-28T12:51:12Z</time>
      </trkpt>
      <trkpt lat="43.38874" lon="6.09429">
        <ele>334.79998779297</ele>
        <time>2016-09-28T12:51:19Z</time>
      </trkpt>
      <trkpt lat="43.38874" lon="6.09429">
        <ele>334.60000610352</ele>
        <time>2016-09-28T12:51:22Z</time>
      </trkpt>
      <trkpt lat="43.38873" lon="6.09431">
        <ele>334.39999389648</ele>
        <time>2016-09-28T12:51:31Z</time>
      </trkpt>
      <trkpt lat="43.38873" lon="6.09431">
        <ele>334.39999389648</ele>
        <time>2016-09-28T12:51:32Z</time>
      </trkpt>
      <trkpt lat="43.38873" lon="6.0943">
        <ele>334.60000610352</ele>
        <time>2016-09-28T12:51:34Z</time>
      </trkpt>
      <trkpt lat="43.38871" lon="6.09425">
        <ele>334</ele>
        <time>2016-09-28T12:51:47Z</time>
      </trkpt>
      <trkpt lat="43.38874" lon="6.09424">
        <ele>334</ele>
        <time>2016-09-28T12:51:52Z</time>
      </trkpt>
      <trkpt lat="43.38876" lon="6.09424">
        <ele>334.60000610352</ele>
        <time>2016-09-28T12:51:57Z</time>
      </trkpt>
      <trkpt lat="43.38876" lon="6.09425">
        <ele>334.60000610352</ele>
        <time>2016-09-28T12:52:02Z</time>
      </trkpt>
      <trkpt lat="43.38876" lon="6.09428">
        <ele>334.60000610352</ele>
        <time>2016-09-28T12:52:12Z</time>
      </trkpt>
      <trkpt lat="43.38875" lon="6.09432">
        <ele>334.60000610352</ele>
        <time>2016-09-28T12:52:22Z</time>
      </trkpt>
      <trkpt lat="43.38876" lon="6.09434">
        <ele>334.60000610352</ele>
        <time>2016-09-28T12:52:32Z</time>
      </trkpt>
      <trkpt lat="43.38875" lon="6.0943">
        <ele>334.60000610352</ele>
        <time>2016-09-28T12:52:42Z</time>
      </trkpt>
      <trkpt lat="43.38874" lon="6.09431">
        <ele>334.60000610352</ele>
        <time>2016-09-28T12:52:52Z</time>
      </trkpt>
      <trkpt lat="43.38874" lon="6.09433">
        <ele>334.60000610352</ele>
        <time>2016-09-28T12:53:02Z</time>
      </trkpt>
      <trkpt lat="43.38873" lon="6.09433">
        <ele>334.60000610352</ele>
        <time>2016-09-28T12:53:12Z</time>
      </trkpt>
      <trkpt lat="43.38873" lon="6.09433">
        <ele>334.60000610352</ele>
        <time>2016-09-28T12:53:19Z</time>
      </trkpt>
      <trkpt lat="43.38875" lon="6.09432">
        <ele>334.60000610352</ele>
        <time>2016-09-28T12:53:30Z</time>
      </trkpt>
      <trkpt lat="43.38873" lon="6.09432">
        <ele>334.60000610352</ele>
        <time>2016-09-28T12:53:32Z</time>
      </trkpt>
      <trkpt lat="43.38872" lon="6.09432">
        <ele>334.60000610352</ele>
        <time>2016-09-28T12:53:42Z</time>
      </trkpt>
      <trkpt lat="43.38872" lon="6.09432">
        <ele>334.60000610352</ele>
        <time>2016-09-28T12:53:46Z</time>
      </trkpt>
      <trkpt lat="43.38873" lon="6.09431">
        <ele>334.60000610352</ele>
        <time>2016-09-28T12:53:52Z</time>
      </trkpt>
      <trkpt lat="43.38872" lon="6.09432">
        <ele>334.60000610352</ele>
        <time>2016-09-28T12:53:59Z</time>
      </trkpt>
      <trkpt lat="43.38873" lon="6.09433">
        <ele>334.60000610352</ele>
        <time>2016-09-28T12:54:02Z</time>
      </trkpt>
      <trkpt lat="43.38874" lon="6.09434">
        <ele>334.60000610352</ele>
        <time>2016-09-28T12:54:22Z</time>
      </trkpt>
      <trkpt lat="43.38873" lon="6.09434">
        <ele>334.60000610352</ele>
        <time>2016-09-28T12:54:31Z</time>
      </trkpt>
      <trkpt lat="43.38873" lon="6.09433">
        <ele>334.60000610352</ele>
        <time>2016-09-28T12:54:32Z</time>
      </trkpt>
      <trkpt lat="43.38873" lon="6.09434">
        <ele>334.60000610352</ele>
        <time>2016-09-28T12:54:42Z</time>
      </trkpt>
      <trkpt lat="43.38871" lon="6.09433">
        <ele>334.60000610352</ele>
        <time>2016-09-28T12:54:52Z</time>
      </trkpt>
      <trkpt lat="43.38871" lon="6.09432">
        <ele>334.60000610352</ele>
        <time>2016-09-28T12:55:02Z</time>
      </trkpt>
      <trkpt lat="43.38873" lon="6.09429">
        <ele>334.60000610352</ele>
        <time>2016-09-28T12:55:12Z</time>
      </trkpt>
      <trkpt lat="43.38873" lon="6.09429">
        <ele>334.60000610352</ele>
        <time>2016-09-28T12:55:19Z</time>
      </trkpt>
      <trkpt lat="43.38874" lon="6.09429">
        <ele>334.60000610352</ele>
        <time>2016-09-28T12:55:22Z</time>
      </trkpt>
      <trkpt lat="43.38874" lon="6.0943">
        <ele>334.60000610352</ele>
        <time>2016-09-28T12:55:29Z</time>
      </trkpt>
      <trkpt lat="43.38874" lon="6.09431">
        <ele>334.60000610352</ele>
        <time>2016-09-28T12:55:32Z</time>
      </trkpt>
      <trkpt lat="43.38873" lon="6.09432">
        <ele>334.60000610352</ele>
        <time>2016-09-28T12:55:42Z</time>
      </trkpt>
      <trkpt lat="43.38873" lon="6.09432">
        <ele>334.60000610352</ele>
        <time>2016-09-28T12:55:52Z</time>
      </trkpt>
      <trkpt lat="43.38873" lon="6.09433">
        <ele>334.60000610352</ele>
        <time>2016-09-28T12:56:02Z</time>
      </trkpt>
      <trkpt lat="43.38874" lon="6.09434">
        <ele>334.60000610352</ele>
        <time>2016-09-28T12:56:12Z</time>
      </trkpt>
      <trkpt lat="43.38876" lon="6.09434">
        <ele>334.60000610352</ele>
        <time>2016-09-28T12:56:22Z</time>
      </trkpt>
      <trkpt lat="43.38874" lon="6.09435">
        <ele>334.60000610352</ele>
        <time>2016-09-28T12:56:36Z</time>
      </trkpt>
      <trkpt lat="43.38871" lon="6.09433">
        <ele>334.60000610352</ele>
        <time>2016-09-28T12:56:52Z</time>
      </trkpt>
      <trkpt lat="43.38873" lon="6.09433">
        <ele>334.60000610352</ele>
        <time>2016-09-28T12:57:02Z</time>
      </trkpt>
      <trkpt lat="43.38874" lon="6.09433">
        <ele>334.60000610352</ele>
        <time>2016-09-28T12:57:08Z</time>
      </trkpt>
      <trkpt lat="43.38874" lon="6.09433">
        <ele>334.60000610352</ele>
        <time>2016-09-28T12:57:12Z</time>
      </trkpt>
      <trkpt lat="43.38875" lon="6.09431">
        <ele>334.60000610352</ele>
        <time>2016-09-28T12:57:22Z</time>
      </trkpt>
      <trkpt lat="43.38874" lon="6.09432">
        <ele>334.60000610352</ele>
        <time>2016-09-28T12:57:32Z</time>
      </trkpt>
      <trkpt lat="43.38873" lon="6.09434">
        <ele>334.60000610352</ele>
        <time>2016-09-28T12:57:42Z</time>
      </trkpt>
      <trkpt lat="43.38875" lon="6.09431">
        <ele>334.60000610352</ele>
        <time>2016-09-28T12:57:52Z</time>
      </trkpt>
      <trkpt lat="43.38873" lon="6.09431">
        <ele>334.60000610352</ele>
        <time>2016-09-28T12:58:02Z</time>
      </trkpt>
      <trkpt lat="43.38874" lon="6.0943">
        <ele>334.60000610352</ele>
        <time>2016-09-28T12:58:12Z</time>
      </trkpt>
      <trkpt lat="43.38875" lon="6.09431">
        <ele>334.60000610352</ele>
        <time>2016-09-28T12:58:22Z</time>
      </trkpt>
      <trkpt lat="43.38875" lon="6.09432">
        <ele>334.60000610352</ele>
        <time>2016-09-28T12:58:32Z</time>
      </trkpt>
      <trkpt lat="43.38875" lon="6.09432">
        <ele>334.60000610352</ele>
        <time>2016-09-28T12:58:42Z</time>
      </trkpt>
      <trkpt lat="43.38874" lon="6.09433">
        <ele>334.60000610352</ele>
        <time>2016-09-28T12:59:02Z</time>
      </trkpt>
      <trkpt lat="43.38874" lon="6.09432">
        <ele>334.60000610352</ele>
        <time>2016-09-28T12:59:12Z</time>
      </trkpt>
      <trkpt lat="43.38874" lon="6.09432">
        <ele>334.60000610352</ele>
        <time>2016-09-28T12:59:22Z</time>
      </trkpt>
      <trkpt lat="43.38876" lon="6.09433">
        <ele>334.60000610352</ele>
        <time>2016-09-28T12:59:32Z</time>
      </trkpt>
      <trkpt lat="43.38876" lon="6.09435">
        <ele>334.60000610352</ele>
        <time>2016-09-28T12:59:42Z</time>
      </trkpt>
      <trkpt lat="43.38875" lon="6.09434">
        <ele>334.60000610352</ele>
        <time>2016-09-28T12:59:52Z</time>
      </trkpt>
      <trkpt lat="43.38873" lon="6.09436">
        <ele>334.60000610352</ele>
        <time>2016-09-28T13:00:02Z</time>
      </trkpt>
      <trkpt lat="43.38874" lon="6.09435">
        <ele>334.60000610352</ele>
        <time>2016-09-28T13:00:12Z</time>
      </trkpt>
      <trkpt lat="43.38874" lon="6.09434">
        <ele>334.60000610352</ele>
        <time>2016-09-28T13:00:22Z</time>
      </trkpt>
      <trkpt lat="43.38874" lon="6.09435">
        <ele>334.60000610352</ele>
        <time>2016-09-28T13:00:32Z</time>
      </trkpt>
      <trkpt lat="43.38875" lon="6.09434">
        <ele>334.60000610352</ele>
        <time>2016-09-28T13:00:42Z</time>
      </trkpt>
      <trkpt lat="43.38873" lon="6.09434">
        <ele>334.60000610352</ele>
        <time>2016-09-28T13:00:50Z</time>
      </trkpt>
      <trkpt lat="43.38874" lon="6.09434">
        <ele>334.60000610352</ele>
        <time>2016-09-28T13:00:52Z</time>
      </trkpt>
      <trkpt lat="43.38875" lon="6.09432">
        <ele>334.60000610352</ele>
        <time>2016-09-28T13:01:02Z</time>
      </trkpt>
      <trkpt lat="43.38876" lon="6.09434">
        <ele>334.60000610352</ele>
        <time>2016-09-28T13:01:12Z</time>
      </trkpt>
      <trkpt lat="43.38874" lon="6.09432">
        <ele>334.60000610352</ele>
        <time>2016-09-28T13:01:22Z</time>
      </trkpt>
      <trkpt lat="43.38874" lon="6.09431">
        <ele>334.60000610352</ele>
        <time>2016-09-28T13:01:32Z</time>
      </trkpt>
      <trkpt lat="43.38877" lon="6.09433">
        <ele>334.60000610352</ele>
        <time>2016-09-28T13:01:36Z</time>
      </trkpt>
      <trkpt lat="43.38877" lon="6.09432">
        <ele>334.60000610352</ele>
        <time>2016-09-28T13:01:42Z</time>
      </trkpt>
      <trkpt lat="43.38874" lon="6.09436">
        <ele>334.60000610352</ele>
        <time>2016-09-28T13:01:52Z</time>
      </trkpt>
      <trkpt lat="43.38868" lon="6.0943">
        <ele>334.39999389648</ele>
        <time>2016-09-28T13:02:02Z</time>
      </trkpt>
      <trkpt lat="43.38866" lon="6.09413">
        <ele>335</ele>
        <time>2016-09-28T13:02:10Z</time>
      </trkpt>
      <trkpt lat="43.38868" lon="6.09413">
        <ele>335.20001220703</ele>
        <time>2016-09-28T13:02:12Z</time>
      </trkpt>
      <trkpt lat="43.38869" lon="6.09413">
        <ele>335.39999389648</ele>
        <time>2016-09-28T13:02:15Z</time>
      </trkpt>
      <trkpt lat="43.38869" lon="6.09413">
        <ele>335.60000610352</ele>
        <time>2016-09-28T13:02:17Z</time>
      </trkpt>
      <trkpt lat="43.38869" lon="6.09413">
        <ele>335.60000610352</ele>
        <time>2016-09-28T13:02:22Z</time>
      </trkpt>
      <trkpt lat="43.38868" lon="6.09415">
        <ele>335.79998779297</ele>
        <time>2016-09-28T13:02:32Z</time>
      </trkpt>
      <trkpt lat="43.38866" lon="6.09414">
        <ele>335.39999389648</ele>
        <time>2016-09-28T13:02:42Z</time>
      </trkpt>
      <trkpt lat="43.38865" lon="6.09413">
        <ele>335.39999389648</ele>
        <time>2016-09-28T13:02:52Z</time>
      </trkpt>
      <trkpt lat="43.38866" lon="6.09414">
        <ele>335.60000610352</ele>
        <time>2016-09-28T13:03:00Z</time>
      </trkpt>
      <trkpt lat="43.38869" lon="6.09414">
        <ele>335.79998779297</ele>
        <time>2016-09-28T13:03:02Z</time>
      </trkpt>
      <trkpt lat="43.3887" lon="6.09414">
        <ele>335.79998779297</ele>
        <time>2016-09-28T13:03:03Z</time>
      </trkpt>
      <trkpt lat="43.38871" lon="6.09413">
        <ele>335.79998779297</ele>
        <time>2016-09-28T13:03:05Z</time>
      </trkpt>
      <trkpt lat="43.38869" lon="6.09411">
        <ele>336</ele>
        <time>2016-09-28T13:03:12Z</time>
      </trkpt>
      <trkpt lat="43.38869" lon="6.09412">
        <ele>335.79998779297</ele>
        <time>2016-09-28T13:03:17Z</time>
      </trkpt>
      <trkpt lat="43.38869" lon="6.09414">
        <ele>335.79998779297</ele>
        <time>2016-09-28T13:03:28Z</time>
      </trkpt>
      <trkpt lat="43.38868" lon="6.09415">
        <ele>335.79998779297</ele>
        <time>2016-09-28T13:03:32Z</time>
      </trkpt>
      <trkpt lat="43.38868" lon="6.09415">
        <ele>335.79998779297</ele>
        <time>2016-09-28T13:03:35Z</time>
      </trkpt>
      <trkpt lat="43.38866" lon="6.09414">
        <ele>335.60000610352</ele>
        <time>2016-09-28T13:03:44Z</time>
      </trkpt>
      <trkpt lat="43.38865" lon="6.09413">
        <ele>335.39999389648</ele>
        <time>2016-09-28T13:03:47Z</time>
      </trkpt>
      <trkpt lat="43.38866" lon="6.09412">
        <ele>335.60000610352</ele>
        <time>2016-09-28T13:03:52Z</time>
      </trkpt>
      <trkpt lat="43.38866" lon="6.09414">
        <ele>335.39999389648</ele>
        <time>2016-09-28T13:04:02Z</time>
      </trkpt>
      <trkpt lat="43.38866" lon="6.09413">
        <ele>335.20001220703</ele>
        <time>2016-09-28T13:04:14Z</time>
      </trkpt>
      <trkpt lat="43.38869" lon="6.09414">
        <ele>335.20001220703</ele>
        <time>2016-09-28T13:04:22Z</time>
      </trkpt>
      <trkpt lat="43.38872" lon="6.09414">
        <ele>335.20001220703</ele>
        <time>2016-09-28T13:04:26Z</time>
      </trkpt>
      <trkpt lat="43.38871" lon="6.09414">
        <ele>336.20001220703</ele>
        <time>2016-09-28T13:04:28Z</time>
      </trkpt>
      <trkpt lat="43.38869" lon="6.09414">
        <ele>336.39999389648</ele>
        <time>2016-09-28T13:04:32Z</time>
      </trkpt>
      <trkpt lat="43.38869" lon="6.09415">
        <ele>336.20001220703</ele>
        <time>2016-09-28T13:04:36Z</time>
      </trkpt>
      <trkpt lat="43.38869" lon="6.09418">
        <ele>336</ele>
        <time>2016-09-28T13:04:40Z</time>
      </trkpt>
      <trkpt lat="43.38869" lon="6.09417">
        <ele>336</ele>
        <time>2016-09-28T13:04:42Z</time>
      </trkpt>
      <trkpt lat="43.38868" lon="6.09413">
        <ele>335.20001220703</ele>
        <time>2016-09-28T13:04:48Z</time>
      </trkpt>
      <trkpt lat="43.38865" lon="6.09413">
        <ele>334.60000610352</ele>
        <time>2016-09-28T13:04:52Z</time>
      </trkpt>
      <trkpt lat="43.38864" lon="6.09414">
        <ele>335</ele>
        <time>2016-09-28T13:05:02Z</time>
      </trkpt>
      <trkpt lat="43.38865" lon="6.09415">
        <ele>335.20001220703</ele>
        <time>2016-09-28T13:05:12Z</time>
      </trkpt>
      <trkpt lat="43.38866" lon="6.09416">
        <ele>335.20001220703</ele>
        <time>2016-09-28T13:05:22Z</time>
      </trkpt>
      <trkpt lat="43.38867" lon="6.09412">
        <ele>335.39999389648</ele>
        <time>2016-09-28T13:05:32Z</time>
      </trkpt>
      <trkpt lat="43.38867" lon="6.09413">
        <ele>335.20001220703</ele>
        <time>2016-09-28T13:05:42Z</time>
      </trkpt>
      <trkpt lat="43.38871" lon="6.09414">
        <ele>336.20001220703</ele>
        <time>2016-09-28T13:05:48Z</time>
      </trkpt>
      <trkpt lat="43.38869" lon="6.09412">
        <ele>336.39999389648</ele>
        <time>2016-09-28T13:05:52Z</time>
      </trkpt>
      <trkpt lat="43.38869" lon="6.09413">
        <ele>337</ele>
        <time>2016-09-28T13:05:57Z</time>
      </trkpt>
      <trkpt lat="43.38868" lon="6.09412">
        <ele>336.60000610352</ele>
        <time>2016-09-28T13:06:02Z</time>
      </trkpt>
      <trkpt lat="43.38868" lon="6.09412">
        <ele>335.20001220703</ele>
        <time>2016-09-28T13:06:07Z</time>
      </trkpt>
      <trkpt lat="43.38866" lon="6.09412">
        <ele>334.79998779297</ele>
        <time>2016-09-28T13:06:12Z</time>
      </trkpt>
      <trkpt lat="43.38865" lon="6.09412">
        <ele>334.79998779297</ele>
        <time>2016-09-28T13:06:22Z</time>
      </trkpt>
      <trkpt lat="43.38865" lon="6.09411">
        <ele>335.20001220703</ele>
        <time>2016-09-28T13:06:27Z</time>
      </trkpt>
      <trkpt lat="43.38865" lon="6.09411">
        <ele>335</ele>
        <time>2016-09-28T13:06:32Z</time>
      </trkpt>
      <trkpt lat="43.38865" lon="6.09411">
        <ele>335</ele>
        <time>2016-09-28T13:06:38Z</time>
      </trkpt>
      <trkpt lat="43.38865" lon="6.09412">
        <ele>335</ele>
        <time>2016-09-28T13:06:42Z</time>
      </trkpt>
      <trkpt lat="43.38863" lon="6.09413">
        <ele>335.20001220703</ele>
        <time>2016-09-28T13:06:49Z</time>
      </trkpt>
      <trkpt lat="43.38863" lon="6.09414">
        <ele>335.20001220703</ele>
        <time>2016-09-28T13:06:52Z</time>
      </trkpt>
      <trkpt lat="43.38863" lon="6.09415">
        <ele>335</ele>
        <time>2016-09-28T13:07:02Z</time>
      </trkpt>
      <trkpt lat="43.38863" lon="6.09418">
        <ele>335.20001220703</ele>
        <time>2016-09-28T13:07:12Z</time>
      </trkpt>
      <trkpt lat="43.38864" lon="6.09423">
        <ele>335.20001220703</ele>
        <time>2016-09-28T13:07:22Z</time>
      </trkpt>
      <trkpt lat="43.38866" lon="6.09419">
        <ele>335</ele>
        <time>2016-09-28T13:07:32Z</time>
      </trkpt>
      <trkpt lat="43.38866" lon="6.09419">
        <ele>334.39999389648</ele>
        <time>2016-09-28T13:07:42Z</time>
      </trkpt>
      <trkpt lat="43.38866" lon="6.09417">
        <ele>334.60000610352</ele>
        <time>2016-09-28T13:07:46Z</time>
      </trkpt>
      <trkpt lat="43.38867" lon="6.09415">
        <ele>335</ele>
        <time>2016-09-28T13:07:52Z</time>
      </trkpt>
      <trkpt lat="43.38868" lon="6.09415">
        <ele>335</ele>
        <time>2016-09-28T13:08:02Z</time>
      </trkpt>
      <trkpt lat="43.38868" lon="6.09414">
        <ele>335</ele>
        <time>2016-09-28T13:08:07Z</time>
      </trkpt>
      <trkpt lat="43.3887" lon="6.09414">
        <ele>335.79998779297</ele>
        <time>2016-09-28T13:08:11Z</time>
      </trkpt>
      <trkpt lat="43.38872" lon="6.09414">
        <ele>336.20001220703</ele>
        <time>2016-09-28T13:08:13Z</time>
      </trkpt>
      <trkpt lat="43.38873" lon="6.09414">
        <ele>336.20001220703</ele>
        <time>2016-09-28T13:08:15Z</time>
      </trkpt>
      <trkpt lat="43.38871" lon="6.09414">
        <ele>336</ele>
        <time>2016-09-28T13:08:22Z</time>
      </trkpt>
      <trkpt lat="43.38869" lon="6.09422">
        <ele>336</ele>
        <time>2016-09-28T13:08:32Z</time>
      </trkpt>
      <trkpt lat="43.38868" lon="6.0942">
        <ele>336</ele>
        <time>2016-09-28T13:08:42Z</time>
      </trkpt>
      <trkpt lat="43.38868" lon="6.09418">
        <ele>335.39999389648</ele>
        <time>2016-09-28T13:08:59Z</time>
      </trkpt>
      <trkpt lat="43.38868" lon="6.09418">
        <ele>335.60000610352</ele>
        <time>2016-09-28T13:09:02Z</time>
      </trkpt>
      <trkpt lat="43.3887" lon="6.09421">
        <ele>336</ele>
        <time>2016-09-28T13:09:12Z</time>
      </trkpt>
      <trkpt lat="43.38871" lon="6.09421">
        <ele>335.79998779297</ele>
        <time>2016-09-28T13:09:14Z</time>
      </trkpt>
      <trkpt lat="43.3887" lon="6.09419">
        <ele>335.79998779297</ele>
        <time>2016-09-28T13:09:22Z</time>
      </trkpt>
      <trkpt lat="43.38869" lon="6.09413">
        <ele>336.39999389648</ele>
        <time>2016-09-28T13:09:32Z</time>
      </trkpt>
      <trkpt lat="43.38869" lon="6.09409">
        <ele>336.60000610352</ele>
        <time>2016-09-28T13:09:42Z</time>
      </trkpt>
      <trkpt lat="43.38871" lon="6.09411">
        <ele>336.39999389648</ele>
        <time>2016-09-28T13:09:52Z</time>
      </trkpt>
      <trkpt lat="43.3887" lon="6.09417">
        <ele>335.20001220703</ele>
        <time>2016-09-28T13:09:58Z</time>
      </trkpt>
      <trkpt lat="43.3887" lon="6.09425">
        <ele>336.39999389648</ele>
        <time>2016-09-28T13:10:00Z</time>
      </trkpt>
      <trkpt lat="43.38871" lon="6.09432">
        <ele>336.20001220703</ele>
        <time>2016-09-28T13:10:02Z</time>
      </trkpt>
      <trkpt lat="43.38872" lon="6.09433">
        <ele>334.60000610352</ele>
        <time>2016-09-28T13:10:04Z</time>
      </trkpt>
      <trkpt lat="43.38872" lon="6.0943">
        <ele>334.60000610352</ele>
        <time>2016-09-28T13:10:12Z</time>
      </trkpt>
      <trkpt lat="43.38874" lon="6.09429">
        <ele>334.39999389648</ele>
        <time>2016-09-28T13:10:22Z</time>
      </trkpt>
      <trkpt lat="43.38872" lon="6.09429">
        <ele>334.39999389648</ele>
        <time>2016-09-28T13:10:32Z</time>
      </trkpt>
      <trkpt lat="43.38872" lon="6.0943">
        <ele>334.60000610352</ele>
        <time>2016-09-28T13:10:38Z</time>
      </trkpt>
      <trkpt lat="43.38872" lon="6.0943">
        <ele>334.60000610352</ele>
        <time>2016-09-28T13:10:42Z</time>
      </trkpt>
      <trkpt lat="43.38873" lon="6.09431">
        <ele>334.79998779297</ele>
        <time>2016-09-28T13:10:52Z</time>
      </trkpt>
      <trkpt lat="43.38874" lon="6.09432">
        <ele>335</ele>
        <time>2016-09-28T13:11:02Z</time>
      </trkpt>
      <trkpt lat="43.38873" lon="6.09431">
        <ele>335</ele>
        <time>2016-09-28T13:11:12Z</time>
      </trkpt>
      <trkpt lat="43.38872" lon="6.09432">
        <ele>335</ele>
        <time>2016-09-28T13:11:22Z</time>
      </trkpt>
      <trkpt lat="43.38871" lon="6.09431">
        <ele>335</ele>
        <time>2016-09-28T13:11:30Z</time>
      </trkpt>
      <trkpt lat="43.38869" lon="6.0943">
        <ele>334.39999389648</ele>
        <time>2016-09-28T13:11:32Z</time>
      </trkpt>
      <trkpt lat="43.38867" lon="6.09427">
        <ele>333.60000610352</ele>
        <time>2016-09-28T13:11:34Z</time>
      </trkpt>
      <trkpt lat="43.38865" lon="6.09425">
        <ele>333.20001220703</ele>
        <time>2016-09-28T13:11:35Z</time>
      </trkpt>
      <trkpt lat="43.38855" lon="6.09411">
        <ele>332</ele>
        <time>2016-09-28T13:11:41Z</time>
      </trkpt>
      <trkpt lat="43.38851" lon="6.09405">
        <ele>330.79998779297</ele>
        <time>2016-09-28T13:11:43Z</time>
      </trkpt>
      <trkpt lat="43.38847" lon="6.09397">
        <ele>329.79998779297</ele>
        <time>2016-09-28T13:11:46Z</time>
      </trkpt>
      <trkpt lat="43.38844" lon="6.09392">
        <ele>329.20001220703</ele>
        <time>2016-09-28T13:11:48Z</time>
      </trkpt>
      <trkpt lat="43.3884" lon="6.09392">
        <ele>328.60000610352</ele>
        <time>2016-09-28T13:11:50Z</time>
      </trkpt>
      <trkpt lat="43.38838" lon="6.09395">
        <ele>328.20001220703</ele>
        <time>2016-09-28T13:11:52Z</time>
      </trkpt>
      <trkpt lat="43.38837" lon="6.09401">
        <ele>327.39999389648</ele>
        <time>2016-09-28T13:11:55Z</time>
      </trkpt>
      <trkpt lat="43.38836" lon="6.09407">
        <ele>326.20001220703</ele>
        <time>2016-09-28T13:11:58Z</time>
      </trkpt>
      <trkpt lat="43.38835" lon="6.09414">
        <ele>325.79998779297</ele>
        <time>2016-09-28T13:12:02Z</time>
      </trkpt>
      <trkpt lat="43.38834" lon="6.09417">
        <ele>325</ele>
        <time>2016-09-28T13:12:04Z</time>
      </trkpt>
      <trkpt lat="43.38832" lon="6.0942">
        <ele>324</ele>
        <time>2016-09-28T13:12:12Z</time>
      </trkpt>
      <trkpt lat="43.38829" lon="6.09434">
        <ele>323.79998779297</ele>
        <time>2016-09-28T13:12:22Z</time>
      </trkpt>
      <trkpt lat="43.38828" lon="6.09445">
        <ele>324.60000610352</ele>
        <time>2016-09-28T13:12:28Z</time>
      </trkpt>
      <trkpt lat="43.38827" lon="6.0945">
        <ele>325</ele>
        <time>2016-09-28T13:12:32Z</time>
      </trkpt>
      <trkpt lat="43.38832" lon="6.09458">
        <ele>324.79998779297</ele>
        <time>2016-09-28T13:12:42Z</time>
      </trkpt>
      <trkpt lat="43.38833" lon="6.09458">
        <ele>325</ele>
        <time>2016-09-28T13:12:43Z</time>
      </trkpt>
      <trkpt lat="43.38839" lon="6.09459">
        <ele>325.79998779297</ele>
        <time>2016-09-28T13:12:48Z</time>
      </trkpt>
      <trkpt lat="43.3884" lon="6.09459">
        <ele>326</ele>
        <time>2016-09-28T13:12:49Z</time>
      </trkpt>
      <trkpt lat="43.38844" lon="6.09461">
        <ele>327.20001220703</ele>
        <time>2016-09-28T13:12:52Z</time>
      </trkpt>
      <trkpt lat="43.38842" lon="6.09464">
        <ele>326.79998779297</ele>
        <time>2016-09-28T13:13:02Z</time>
      </trkpt>
      <trkpt lat="43.3884" lon="6.09461">
        <ele>326</ele>
        <time>2016-09-28T13:13:09Z</time>
      </trkpt>
      <trkpt lat="43.3884" lon="6.09462">
        <ele>326.60000610352</ele>
        <time>2016-09-28T13:13:12Z</time>
      </trkpt>
      <trkpt lat="43.38842" lon="6.09461">
        <ele>327.20001220703</ele>
        <time>2016-09-28T13:13:14Z</time>
      </trkpt>
      <trkpt lat="43.38841" lon="6.0946">
        <ele>327.60000610352</ele>
        <time>2016-09-28T13:13:22Z</time>
      </trkpt>
      <trkpt lat="43.38844" lon="6.09458">
        <ele>327.39999389648</ele>
        <time>2016-09-28T13:13:32Z</time>
      </trkpt>
      <trkpt lat="43.38843" lon="6.09457">
        <ele>327.39999389648</ele>
        <time>2016-09-28T13:13:37Z</time>
      </trkpt>
      <trkpt lat="43.3884" lon="6.09457">
        <ele>327</ele>
        <time>2016-09-28T13:13:42Z</time>
      </trkpt>
      <trkpt lat="43.38836" lon="6.09455">
        <ele>326.20001220703</ele>
        <time>2016-09-28T13:13:47Z</time>
      </trkpt>
      <trkpt lat="43.38832" lon="6.09453">
        <ele>325.79998779297</ele>
        <time>2016-09-28T13:13:52Z</time>
      </trkpt>
      <trkpt lat="43.38831" lon="6.09453">
        <ele>325.60000610352</ele>
        <time>2016-09-28T13:13:55Z</time>
      </trkpt>
      <trkpt lat="43.3883" lon="6.09454">
        <ele>325.39999389648</ele>
        <time>2016-09-28T13:13:58Z</time>
      </trkpt>
      <trkpt lat="43.38829" lon="6.09454">
        <ele>325.39999389648</ele>
        <time>2016-09-28T13:14:00Z</time>
      </trkpt>
      <trkpt lat="43.38829" lon="6.09454">
        <ele>325.39999389648</ele>
        <time>2016-09-28T13:14:02Z</time>
      </trkpt>
      <trkpt lat="43.3883" lon="6.09454">
        <ele>325.39999389648</ele>
        <time>2016-09-28T13:14:04Z</time>
      </trkpt>
      <trkpt lat="43.3883" lon="6.09453">
        <ele>325.60000610352</ele>
        <time>2016-09-28T13:14:12Z</time>
      </trkpt>
      <trkpt lat="43.38829" lon="6.09453">
        <ele>325.60000610352</ele>
        <time>2016-09-28T13:14:15Z</time>
      </trkpt>
      <trkpt lat="43.38829" lon="6.09452">
        <ele>325.20001220703</ele>
        <time>2016-09-28T13:14:20Z</time>
      </trkpt>
      <trkpt lat="43.3883" lon="6.09451">
        <ele>325</ele>
        <time>2016-09-28T13:14:32Z</time>
      </trkpt>
      <trkpt lat="43.38831" lon="6.09453">
        <ele>325</ele>
        <time>2016-09-28T13:14:40Z</time>
      </trkpt>
      <trkpt lat="43.38831" lon="6.09453">
        <ele>324.79998779297</ele>
        <time>2016-09-28T13:14:42Z</time>
      </trkpt>
      <trkpt lat="43.38831" lon="6.09453">
        <ele>325.20001220703</ele>
        <time>2016-09-28T13:14:52Z</time>
      </trkpt>
      <trkpt lat="43.38833" lon="6.09456">
        <ele>325</ele>
        <time>2016-09-28T13:15:01Z</time>
      </trkpt>
      <trkpt lat="43.38834" lon="6.09456">
        <ele>325.60000610352</ele>
        <time>2016-09-28T13:15:02Z</time>
      </trkpt>
      <trkpt lat="43.38837" lon="6.09457">
        <ele>326.20001220703</ele>
        <time>2016-09-28T13:15:04Z</time>
      </trkpt>
      <trkpt lat="43.38838" lon="6.09457">
        <ele>326.60000610352</ele>
        <time>2016-09-28T13:15:05Z</time>
      </trkpt>
      <trkpt lat="43.38841" lon="6.09459">
        <ele>326.79998779297</ele>
        <time>2016-09-28T13:15:07Z</time>
      </trkpt>
      <trkpt lat="43.38845" lon="6.09464">
        <ele>326</ele>
        <time>2016-09-28T13:15:12Z</time>
      </trkpt>
      <trkpt lat="43.38846" lon="6.09464">
        <ele>326.20001220703</ele>
        <time>2016-09-28T13:15:13Z</time>
      </trkpt>
      <trkpt lat="43.38847" lon="6.09464">
        <ele>326.39999389648</ele>
        <time>2016-09-28T13:15:15Z</time>
      </trkpt>
      <trkpt lat="43.38849" lon="6.09464">
        <ele>326.60000610352</ele>
        <time>2016-09-28T13:15:17Z</time>
      </trkpt>
      <trkpt lat="43.38852" lon="6.09462">
        <ele>327</ele>
        <time>2016-09-28T13:15:22Z</time>
      </trkpt>
      <trkpt lat="43.38853" lon="6.09461">
        <ele>327.79998779297</ele>
        <time>2016-09-28T13:15:25Z</time>
      </trkpt>
      <trkpt lat="43.38855" lon="6.09458">
        <ele>329</ele>
        <time>2016-09-28T13:15:32Z</time>
      </trkpt>
      <trkpt lat="43.38857" lon="6.09458">
        <ele>329.60000610352</ele>
        <time>2016-09-28T13:15:42Z</time>
      </trkpt>
      <trkpt lat="43.38857" lon="6.09458">
        <ele>329.60000610352</ele>
        <time>2016-09-28T13:15:52Z</time>
      </trkpt>
      <trkpt lat="43.38861" lon="6.09464">
        <ele>330</ele>
        <time>2016-09-28T13:16:01Z</time>
      </trkpt>
      <trkpt lat="43.38863" lon="6.09465">
        <ele>330.20001220703</ele>
        <time>2016-09-28T13:16:02Z</time>
      </trkpt>
      <trkpt lat="43.38866" lon="6.09468">
        <ele>331</ele>
        <time>2016-09-28T13:16:04Z</time>
      </trkpt>
      <trkpt lat="43.3887" lon="6.09471">
        <ele>331.79998779297</ele>
        <time>2016-09-28T13:16:07Z</time>
      </trkpt>
      <trkpt lat="43.38871" lon="6.09473">
        <ele>332.20001220703</ele>
        <time>2016-09-28T13:16:09Z</time>
      </trkpt>
      <trkpt lat="43.38873" lon="6.09474">
        <ele>332.20001220703</ele>
        <time>2016-09-28T13:16:12Z</time>
      </trkpt>
      <trkpt lat="43.38872" lon="6.09474">
        <ele>332.39999389648</ele>
        <time>2016-09-28T13:16:17Z</time>
      </trkpt>
      <trkpt lat="43.38872" lon="6.09474">
        <ele>332.39999389648</ele>
        <time>2016-09-28T13:16:22Z</time>
      </trkpt>
      <trkpt lat="43.38872" lon="6.09474">
        <ele>332.60000610352</ele>
        <time>2016-09-28T13:16:29Z</time>
      </trkpt>
      <trkpt lat="43.38872" lon="6.09473">
        <ele>332</ele>
        <time>2016-09-28T13:16:42Z</time>
      </trkpt>
      <trkpt lat="43.38872" lon="6.09472">
        <ele>332</ele>
        <time>2016-09-28T13:16:44Z</time>
      </trkpt>
      <trkpt lat="43.38872" lon="6.09472">
        <ele>332</ele>
        <time>2016-09-28T13:16:47Z</time>
      </trkpt>
      <trkpt lat="43.38872" lon="6.09472">
        <ele>332.20001220703</ele>
        <time>2016-09-28T13:16:50Z</time>
      </trkpt>
      <trkpt lat="43.38872" lon="6.09473">
        <ele>332.20001220703</ele>
        <time>2016-09-28T13:16:52Z</time>
      </trkpt>
      <trkpt lat="43.38872" lon="6.09473">
        <ele>332.39999389648</ele>
        <time>2016-09-28T13:16:56Z</time>
      </trkpt>
      <trkpt lat="43.38872" lon="6.09474">
        <ele>332.60000610352</ele>
        <time>2016-09-28T13:17:02Z</time>
      </trkpt>
      <trkpt lat="43.38872" lon="6.09474">
        <ele>332.60000610352</ele>
        <time>2016-09-28T13:17:06Z</time>
      </trkpt>
      <trkpt lat="43.38872" lon="6.09474">
        <ele>332.39999389648</ele>
        <time>2016-09-28T13:17:11Z</time>
      </trkpt>
      <trkpt lat="43.38872" lon="6.09474">
        <ele>332.20001220703</ele>
        <time>2016-09-28T13:17:22Z</time>
      </trkpt>
      <trkpt lat="43.38872" lon="6.09475">
        <ele>332.20001220703</ele>
        <time>2016-09-28T13:17:32Z</time>
      </trkpt>
      <trkpt lat="43.38872" lon="6.09474">
        <ele>332.20001220703</ele>
        <time>2016-09-28T13:17:42Z</time>
      </trkpt>
      <trkpt lat="43.38872" lon="6.09474">
        <ele>332.20001220703</ele>
        <time>2016-09-28T13:18:02Z</time>
      </trkpt>
      <trkpt lat="43.38872" lon="6.09474">
        <ele>332.20001220703</ele>
        <time>2016-09-28T13:18:22Z</time>
      </trkpt>
      <trkpt lat="43.38872" lon="6.09474">
        <ele>332.20001220703</ele>
        <time>2016-09-28T13:18:32Z</time>
      </trkpt>
      <trkpt lat="43.38872" lon="6.09477">
        <ele>332.20001220703</ele>
        <time>2016-09-28T13:18:37Z</time>
      </trkpt>
      <trkpt lat="43.38873" lon="6.09487">
        <ele>332.39999389648</ele>
        <time>2016-09-28T13:18:41Z</time>
      </trkpt>
      <trkpt lat="43.38874" lon="6.0949">
        <ele>332.79998779297</ele>
        <time>2016-09-28T13:18:42Z</time>
      </trkpt>
      <trkpt lat="43.38876" lon="6.09536">
        <ele>332.20001220703</ele>
        <time>2016-09-28T13:18:52Z</time>
      </trkpt>
      <trkpt lat="43.38881" lon="6.096">
        <ele>331</ele>
        <time>2016-09-28T13:19:02Z</time>
      </trkpt>
      <trkpt lat="43.38882" lon="6.09608">
        <ele>330.60000610352</ele>
        <time>2016-09-28T13:19:03Z</time>
      </trkpt>
      <trkpt lat="43.38888" lon="6.09621">
        <ele>330.20001220703</ele>
        <time>2016-09-28T13:19:05Z</time>
      </trkpt>
      <trkpt lat="43.38892" lon="6.09627">
        <ele>329.79998779297</ele>
        <time>2016-09-28T13:19:06Z</time>
      </trkpt>
      <trkpt lat="43.38895" lon="6.09632">
        <ele>329.79998779297</ele>
        <time>2016-09-28T13:19:07Z</time>
      </trkpt>
      <trkpt lat="43.38898" lon="6.09645">
        <ele>329.39999389648</ele>
        <time>2016-09-28T13:19:09Z</time>
      </trkpt>
      <trkpt lat="43.389" lon="6.09667">
        <ele>328.79998779297</ele>
        <time>2016-09-28T13:19:12Z</time>
      </trkpt>
      <trkpt lat="43.389" lon="6.09701">
        <ele>327.79998779297</ele>
        <time>2016-09-28T13:19:16Z</time>
      </trkpt>
      <trkpt lat="43.38902" lon="6.0971">
        <ele>327.60000610352</ele>
        <time>2016-09-28T13:19:17Z</time>
      </trkpt>
      <trkpt lat="43.38905" lon="6.0974">
        <ele>326.39999389648</ele>
        <time>2016-09-28T13:19:20Z</time>
      </trkpt>
      <trkpt lat="43.38904" lon="6.09761">
        <ele>325.20001220703</ele>
        <time>2016-09-28T13:19:22Z</time>
      </trkpt>
      <trkpt lat="43.38903" lon="6.09771">
        <ele>324.79998779297</ele>
        <time>2016-09-28T13:19:23Z</time>
      </trkpt>
      <trkpt lat="43.389" lon="6.0979">
        <ele>323.79998779297</ele>
        <time>2016-09-28T13:19:25Z</time>
      </trkpt>
      <trkpt lat="43.38894" lon="6.09815">
        <ele>322.60000610352</ele>
        <time>2016-09-28T13:19:28Z</time>
      </trkpt>
      <trkpt lat="43.38892" lon="6.09824">
        <ele>322</ele>
        <time>2016-09-28T13:19:29Z</time>
      </trkpt>
      <trkpt lat="43.38891" lon="6.09833">
        <ele>321</ele>
        <time>2016-09-28T13:19:30Z</time>
      </trkpt>
      <trkpt lat="43.38889" lon="6.09852">
        <ele>319.39999389648</ele>
        <time>2016-09-28T13:19:32Z</time>
      </trkpt>
      <trkpt lat="43.38886" lon="6.09873">
        <ele>317.79998779297</ele>
        <time>2016-09-28T13:19:34Z</time>
      </trkpt>
      <trkpt lat="43.38884" lon="6.09885">
        <ele>316.39999389648</ele>
        <time>2016-09-28T13:19:35Z</time>
      </trkpt>
      <trkpt lat="43.38882" lon="6.09897">
        <ele>315</ele>
        <time>2016-09-28T13:19:36Z</time>
      </trkpt>
      <trkpt lat="43.38879" lon="6.09909">
        <ele>313.39999389648</ele>
        <time>2016-09-28T13:19:37Z</time>
      </trkpt>
      <trkpt lat="43.38876" lon="6.09921">
        <ele>312.20001220703</ele>
        <time>2016-09-28T13:19:38Z</time>
      </trkpt>
      <trkpt lat="43.38874" lon="6.09932">
        <ele>311</ele>
        <time>2016-09-28T13:19:39Z</time>
      </trkpt>
      <trkpt lat="43.38869" lon="6.09952">
        <ele>309.39999389648</ele>
        <time>2016-09-28T13:19:41Z</time>
      </trkpt>
      <trkpt lat="43.38867" lon="6.09963">
        <ele>309</ele>
        <time>2016-09-28T13:19:42Z</time>
      </trkpt>
      <trkpt lat="43.38864" lon="6.09987">
        <ele>307.60000610352</ele>
        <time>2016-09-28T13:19:44Z</time>
      </trkpt>
      <trkpt lat="43.38861" lon="6.10012">
        <ele>306</ele>
        <time>2016-09-28T13:19:46Z</time>
      </trkpt>
      <trkpt lat="43.38856" lon="6.10035">
        <ele>305</ele>
        <time>2016-09-28T13:19:48Z</time>
      </trkpt>
      <trkpt lat="43.38851" lon="6.10056">
        <ele>303.60000610352</ele>
        <time>2016-09-28T13:19:50Z</time>
      </trkpt>
      <trkpt lat="43.38845" lon="6.10074">
        <ele>302.20001220703</ele>
        <time>2016-09-28T13:19:52Z</time>
      </trkpt>
      <trkpt lat="43.38839" lon="6.10093">
        <ele>301.39999389648</ele>
        <time>2016-09-28T13:19:54Z</time>
      </trkpt>
      <trkpt lat="43.38836" lon="6.10111">
        <ele>301</ele>
        <time>2016-09-28T13:19:56Z</time>
      </trkpt>
      <trkpt lat="43.38827" lon="6.1014">
        <ele>299.79998779297</ele>
        <time>2016-09-28T13:20:02Z</time>
      </trkpt>
      <trkpt lat="43.38825" lon="6.10143">
        <ele>299.39999389648</ele>
        <time>2016-09-28T13:20:04Z</time>
      </trkpt>
      <trkpt lat="43.38826" lon="6.10148">
        <ele>298.79998779297</ele>
        <time>2016-09-28T13:20:08Z</time>
      </trkpt>
      <trkpt lat="43.38826" lon="6.10155">
        <ele>298.60000610352</ele>
        <time>2016-09-28T13:20:12Z</time>
      </trkpt>
      <trkpt lat="43.38828" lon="6.1016">
        <ele>299.20001220703</ele>
        <time>2016-09-28T13:20:19Z</time>
      </trkpt>
      <trkpt lat="43.38828" lon="6.1016">
        <ele>299.39999389648</ele>
        <time>2016-09-28T13:20:22Z</time>
      </trkpt>
      <trkpt lat="43.38828" lon="6.1016">
        <ele>299.60000610352</ele>
        <time>2016-09-28T13:20:32Z</time>
      </trkpt>
      <trkpt lat="43.38827" lon="6.1016">
        <ele>299.20001220703</ele>
        <time>2016-09-28T13:20:42Z</time>
      </trkpt>
      <trkpt lat="43.38829" lon="6.10171">
        <ele>298.39999389648</ele>
        <time>2016-09-28T13:20:48Z</time>
      </trkpt>
      <trkpt lat="43.38829" lon="6.10174">
        <ele>298.39999389648</ele>
        <time>2016-09-28T13:20:49Z</time>
      </trkpt>
      <trkpt lat="43.38826" lon="6.10183">
        <ele>298.20001220703</ele>
        <time>2016-09-28T13:20:52Z</time>
      </trkpt>
      <trkpt lat="43.38821" lon="6.10194">
        <ele>299.60000610352</ele>
        <time>2016-09-28T13:20:57Z</time>
      </trkpt>
      <trkpt lat="43.38821" lon="6.10197">
        <ele>300</ele>
        <time>2016-09-28T13:20:58Z</time>
      </trkpt>
      <trkpt lat="43.3882" lon="6.10208">
        <ele>300.79998779297</ele>
        <time>2016-09-28T13:21:02Z</time>
      </trkpt>
      <trkpt lat="43.38824" lon="6.10235">
        <ele>300.79998779297</ele>
        <time>2016-09-28T13:21:10Z</time>
      </trkpt>
      <trkpt lat="43.38826" lon="6.10243">
        <ele>300.39999389648</ele>
        <time>2016-09-28T13:21:12Z</time>
      </trkpt>
      <trkpt lat="43.38828" lon="6.10258">
        <ele>299.39999389648</ele>
        <time>2016-09-28T13:21:15Z</time>
      </trkpt>
      <trkpt lat="43.38829" lon="6.10264">
        <ele>298.79998779297</ele>
        <time>2016-09-28T13:21:16Z</time>
      </trkpt>
      <trkpt lat="43.38831" lon="6.10285">
        <ele>297.79998779297</ele>
        <time>2016-09-28T13:21:19Z</time>
      </trkpt>
      <trkpt lat="43.38832" lon="6.10293">
        <ele>297.79998779297</ele>
        <time>2016-09-28T13:21:20Z</time>
      </trkpt>
      <trkpt lat="43.38832" lon="6.10309">
        <ele>297.60000610352</ele>
        <time>2016-09-28T13:21:22Z</time>
      </trkpt>
      <trkpt lat="43.38832" lon="6.10339">
        <ele>296.60000610352</ele>
        <time>2016-09-28T13:21:26Z</time>
      </trkpt>
      <trkpt lat="43.38832" lon="6.10361">
        <ele>295.79998779297</ele>
        <time>2016-09-28T13:21:29Z</time>
      </trkpt>
      <trkpt lat="43.38833" lon="6.10384">
        <ele>295.39999389648</ele>
        <time>2016-09-28T13:21:32Z</time>
      </trkpt>
      <trkpt lat="43.38832" lon="6.10417">
        <ele>294.79998779297</ele>
        <time>2016-09-28T13:21:36Z</time>
      </trkpt>
      <trkpt lat="43.38831" lon="6.10425">
        <ele>294.39999389648</ele>
        <time>2016-09-28T13:21:37Z</time>
      </trkpt>
      <trkpt lat="43.3883" lon="6.10433">
        <ele>294.20001220703</ele>
        <time>2016-09-28T13:21:38Z</time>
      </trkpt>
      <trkpt lat="43.38828" lon="6.10448">
        <ele>293.60000610352</ele>
        <time>2016-09-28T13:21:40Z</time>
      </trkpt>
      <trkpt lat="43.38828" lon="6.10455">
        <ele>293</ele>
        <time>2016-09-28T13:21:41Z</time>
      </trkpt>
      <trkpt lat="43.38827" lon="6.10477">
        <ele>291.79998779297</ele>
        <time>2016-09-28T13:21:44Z</time>
      </trkpt>
      <trkpt lat="43.38823" lon="6.10497">
        <ele>291.39999389648</ele>
        <time>2016-09-28T13:21:47Z</time>
      </trkpt>
      <trkpt lat="43.38819" lon="6.10512">
        <ele>290.79998779297</ele>
        <time>2016-09-28T13:21:50Z</time>
      </trkpt>
      <trkpt lat="43.38816" lon="6.1052">
        <ele>290.39999389648</ele>
        <time>2016-09-28T13:21:52Z</time>
      </trkpt>
      <trkpt lat="43.38814" lon="6.10537">
        <ele>289.60000610352</ele>
        <time>2016-09-28T13:21:57Z</time>
      </trkpt>
      <trkpt lat="43.3881" lon="6.10556">
        <ele>289.20001220703</ele>
        <time>2016-09-28T13:22:02Z</time>
      </trkpt>
      <trkpt lat="43.38807" lon="6.10562">
        <ele>289.20001220703</ele>
        <time>2016-09-28T13:22:04Z</time>
      </trkpt>
      <trkpt lat="43.38804" lon="6.1059">
        <ele>288.60000610352</ele>
        <time>2016-09-28T13:22:10Z</time>
      </trkpt>
      <trkpt lat="43.38802" lon="6.10603">
        <ele>288</ele>
        <time>2016-09-28T13:22:12Z</time>
      </trkpt>
      <trkpt lat="43.38797" lon="6.10623">
        <ele>287.39999389648</ele>
        <time>2016-09-28T13:22:15Z</time>
      </trkpt>
      <trkpt lat="43.38795" lon="6.10638">
        <ele>286.20001220703</ele>
        <time>2016-09-28T13:22:18Z</time>
      </trkpt>
      <trkpt lat="43.38792" lon="6.10651">
        <ele>285.39999389648</ele>
        <time>2016-09-28T13:22:22Z</time>
      </trkpt>
      <trkpt lat="43.38791" lon="6.10658">
        <ele>285.20001220703</ele>
        <time>2016-09-28T13:22:24Z</time>
      </trkpt>
      <trkpt lat="43.38783" lon="6.10691">
        <ele>284.79998779297</ele>
        <time>2016-09-28T13:22:32Z</time>
      </trkpt>
      <trkpt lat="43.3878" lon="6.10701">
        <ele>284.39999389648</ele>
        <time>2016-09-28T13:22:34Z</time>
      </trkpt>
      <trkpt lat="43.38779" lon="6.10713">
        <ele>284</ele>
        <time>2016-09-28T13:22:36Z</time>
      </trkpt>
      <trkpt lat="43.38777" lon="6.1072">
        <ele>283.79998779297</ele>
        <time>2016-09-28T13:22:37Z</time>
      </trkpt>
      <trkpt lat="43.38774" lon="6.10741">
        <ele>283.20001220703</ele>
        <time>2016-09-28T13:22:41Z</time>
      </trkpt>
      <trkpt lat="43.38774" lon="6.10742">
        <ele>283</ele>
        <time>2016-09-28T13:22:42Z</time>
      </trkpt>
      <trkpt lat="43.38774" lon="6.10744">
        <ele>283</ele>
        <time>2016-09-28T13:22:43Z</time>
      </trkpt>
      <trkpt lat="43.38774" lon="6.10743">
        <ele>283</ele>
        <time>2016-09-28T13:22:52Z</time>
      </trkpt>
      <trkpt lat="43.38774" lon="6.10743">
        <ele>283</ele>
        <time>2016-09-28T13:23:02Z</time>
      </trkpt>
      <trkpt lat="43.38774" lon="6.10743">
        <ele>283</ele>
        <time>2016-09-28T13:23:41Z</time>
      </trkpt>
      <trkpt lat="43.38774" lon="6.10744">
        <ele>283</ele>
        <time>2016-09-28T13:23:42Z</time>
      </trkpt>
      <trkpt lat="43.38774" lon="6.10744">
        <ele>282.79998779297</ele>
        <time>2016-09-28T13:23:49Z</time>
      </trkpt>
      <trkpt lat="43.38774" lon="6.10745">
        <ele>282.79998779297</ele>
        <time>2016-09-28T13:23:52Z</time>
      </trkpt>
      <trkpt lat="43.38772" lon="6.1075">
        <ele>282.79998779297</ele>
        <time>2016-09-28T13:23:55Z</time>
      </trkpt>
      <trkpt lat="43.38767" lon="6.10756">
        <ele>282.39999389648</ele>
        <time>2016-09-28T13:23:58Z</time>
      </trkpt>
      <trkpt lat="43.38757" lon="6.10763">
        <ele>282.79998779297</ele>
        <time>2016-09-28T13:24:02Z</time>
      </trkpt>
      <trkpt lat="43.38747" lon="6.10766">
        <ele>283.20001220703</ele>
        <time>2016-09-28T13:24:06Z</time>
      </trkpt>
      <trkpt lat="43.38739" lon="6.10771">
        <ele>284.20001220703</ele>
        <time>2016-09-28T13:24:09Z</time>
      </trkpt>
      <trkpt lat="43.38735" lon="6.10776">
        <ele>284.60000610352</ele>
        <time>2016-09-28T13:24:11Z</time>
      </trkpt>
      <trkpt lat="43.38733" lon="6.1078">
        <ele>284.60000610352</ele>
        <time>2016-09-28T13:24:12Z</time>
      </trkpt>
      <trkpt lat="43.3873" lon="6.10792">
        <ele>284.60000610352</ele>
        <time>2016-09-28T13:24:15Z</time>
      </trkpt>
      <trkpt lat="43.38716" lon="6.10803">
        <ele>284.79998779297</ele>
        <time>2016-09-28T13:24:21Z</time>
      </trkpt>
      <trkpt lat="43.38713" lon="6.10804">
        <ele>285</ele>
        <time>2016-09-28T13:24:22Z</time>
      </trkpt>
      <trkpt lat="43.38708" lon="6.10808">
        <ele>285.39999389648</ele>
        <time>2016-09-28T13:24:24Z</time>
      </trkpt>
      <trkpt lat="43.38702" lon="6.10814">
        <ele>285.60000610352</ele>
        <time>2016-09-28T13:24:27Z</time>
      </trkpt>
      <trkpt lat="43.38693" lon="6.10832">
        <ele>285.79998779297</ele>
        <time>2016-09-28T13:24:32Z</time>
      </trkpt>
      <trkpt lat="43.38683" lon="6.10883">
        <ele>285.39999389648</ele>
        <time>2016-09-28T13:24:42Z</time>
      </trkpt>
      <trkpt lat="43.38673" lon="6.10918">
        <ele>285.60000610352</ele>
        <time>2016-09-28T13:24:49Z</time>
      </trkpt>
      <trkpt lat="43.3867" lon="6.10935">
        <ele>285.79998779297</ele>
        <time>2016-09-28T13:24:52Z</time>
      </trkpt>
      <trkpt lat="43.38662" lon="6.10989">
        <ele>286</ele>
        <time>2016-09-28T13:25:02Z</time>
      </trkpt>
      <trkpt lat="43.38659" lon="6.11">
        <ele>286.39999389648</ele>
        <time>2016-09-28T13:25:07Z</time>
      </trkpt>
      <trkpt lat="43.38657" lon="6.11004">
        <ele>286.79998779297</ele>
        <time>2016-09-28T13:25:12Z</time>
      </trkpt>
      <trkpt lat="43.38657" lon="6.11004">
        <ele>286.79998779297</ele>
        <time>2016-09-28T13:25:15Z</time>
      </trkpt>
      <trkpt lat="43.38657" lon="6.11004">
        <ele>287.20001220703</ele>
        <time>2016-09-28T13:25:21Z</time>
      </trkpt>
      <trkpt lat="43.38657" lon="6.11005">
        <ele>287</ele>
        <time>2016-09-28T13:25:28Z</time>
      </trkpt>
      <trkpt lat="43.38659" lon="6.11003">
        <ele>286.79998779297</ele>
        <time>2016-09-28T13:25:32Z</time>
      </trkpt>
      <trkpt lat="43.3866" lon="6.11003">
        <ele>286.79998779297</ele>
        <time>2016-09-28T13:25:33Z</time>
      </trkpt>
      <trkpt lat="43.3866" lon="6.11003">
        <ele>286.39999389648</ele>
        <time>2016-09-28T13:25:36Z</time>
      </trkpt>
      <trkpt lat="43.3866" lon="6.11002">
        <ele>286.39999389648</ele>
        <time>2016-09-28T13:25:37Z</time>
      </trkpt>
      <trkpt lat="43.38659" lon="6.11001">
        <ele>286.60000610352</ele>
        <time>2016-09-28T13:25:39Z</time>
      </trkpt>
      <trkpt lat="43.38654" lon="6.11001">
        <ele>286.79998779297</ele>
        <time>2016-09-28T13:25:42Z</time>
      </trkpt>
      <trkpt lat="43.38646" lon="6.11">
        <ele>287.39999389648</ele>
        <time>2016-09-28T13:25:46Z</time>
      </trkpt>
      <trkpt lat="43.38642" lon="6.11001">
        <ele>287.79998779297</ele>
        <time>2016-09-28T13:25:48Z</time>
      </trkpt>
      <trkpt lat="43.38638" lon="6.11006">
        <ele>288.39999389648</ele>
        <time>2016-09-28T13:25:52Z</time>
      </trkpt>
      <trkpt lat="43.38637" lon="6.11007">
        <ele>288.60000610352</ele>
        <time>2016-09-28T13:25:55Z</time>
      </trkpt>
      <trkpt lat="43.38629" lon="6.11001">
        <ele>289.39999389648</ele>
        <time>2016-09-28T13:26:02Z</time>
      </trkpt>
      <trkpt lat="43.38625" lon="6.10997">
        <ele>289.60000610352</ele>
        <time>2016-09-28T13:26:04Z</time>
      </trkpt>
      <trkpt lat="43.3861" lon="6.10988">
        <ele>289.60000610352</ele>
        <time>2016-09-28T13:26:12Z</time>
      </trkpt>
      <trkpt lat="43.38577" lon="6.10988">
        <ele>288.20001220703</ele>
        <time>2016-09-28T13:26:21Z</time>
      </trkpt>
      <trkpt lat="43.38571" lon="6.10988">
        <ele>287.79998779297</ele>
        <time>2016-09-28T13:26:22Z</time>
      </trkpt>
      <trkpt lat="43.38559" lon="6.10986">
        <ele>287.20001220703</ele>
        <time>2016-09-28T13:26:24Z</time>
      </trkpt>
      <trkpt lat="43.38536" lon="6.10975">
        <ele>286.20001220703</ele>
        <time>2016-09-28T13:26:28Z</time>
      </trkpt>
      <trkpt lat="43.38521" lon="6.10969">
        <ele>285.39999389648</ele>
        <time>2016-09-28T13:26:31Z</time>
      </trkpt>
      <trkpt lat="43.38515" lon="6.10968">
        <ele>285</ele>
        <time>2016-09-28T13:26:32Z</time>
      </trkpt>
      <trkpt lat="43.38505" lon="6.10965">
        <ele>283.79998779297</ele>
        <time>2016-09-28T13:26:34Z</time>
      </trkpt>
      <trkpt lat="43.38494" lon="6.10963">
        <ele>282.79998779297</ele>
        <time>2016-09-28T13:26:36Z</time>
      </trkpt>
      <trkpt lat="43.38485" lon="6.10961">
        <ele>281.60000610352</ele>
        <time>2016-09-28T13:26:38Z</time>
      </trkpt>
      <trkpt lat="43.38479" lon="6.10962">
        <ele>280.79998779297</ele>
        <time>2016-09-28T13:26:42Z</time>
      </trkpt>
      <trkpt lat="43.38454" lon="6.10958">
        <ele>280.60000610352</ele>
        <time>2016-09-28T13:26:51Z</time>
      </trkpt>
      <trkpt lat="43.38449" lon="6.10958">
        <ele>280.20001220703</ele>
        <time>2016-09-28T13:26:52Z</time>
      </trkpt>
      <trkpt lat="43.38418" lon="6.10951">
        <ele>279.39999389648</ele>
        <time>2016-09-28T13:26:58Z</time>
      </trkpt>
      <trkpt lat="43.38394" lon="6.10945">
        <ele>279</ele>
        <time>2016-09-28T13:27:02Z</time>
      </trkpt>
      <trkpt lat="43.38369" lon="6.10938">
        <ele>278.20001220703</ele>
        <time>2016-09-28T13:27:06Z</time>
      </trkpt>
      <trkpt lat="43.38356" lon="6.10935">
        <ele>277.79998779297</ele>
        <time>2016-09-28T13:27:08Z</time>
      </trkpt>
      <trkpt lat="43.38335" lon="6.1093">
        <ele>277.39999389648</ele>
        <time>2016-09-28T13:27:12Z</time>
      </trkpt>
      <trkpt lat="43.38329" lon="6.10927">
        <ele>277.39999389648</ele>
        <time>2016-09-28T13:27:13Z</time>
      </trkpt>
      <trkpt lat="43.38305" lon="6.10917">
        <ele>277.20001220703</ele>
        <time>2016-09-28T13:27:17Z</time>
      </trkpt>
      <trkpt lat="43.38286" lon="6.10912">
        <ele>277</ele>
        <time>2016-09-28T13:27:20Z</time>
      </trkpt>
      <trkpt lat="43.38274" lon="6.10909">
        <ele>276.79998779297</ele>
        <time>2016-09-28T13:27:22Z</time>
      </trkpt>
      <trkpt lat="43.38257" lon="6.10904">
        <ele>276.79998779297</ele>
        <time>2016-09-28T13:27:25Z</time>
      </trkpt>
      <trkpt lat="43.38226" lon="6.10894">
        <ele>277</ele>
        <time>2016-09-28T13:27:31Z</time>
      </trkpt>
      <trkpt lat="43.38221" lon="6.10893">
        <ele>277</ele>
        <time>2016-09-28T13:27:32Z</time>
      </trkpt>
      <trkpt lat="43.38201" lon="6.10888">
        <ele>277.60000610352</ele>
        <time>2016-09-28T13:27:42Z</time>
      </trkpt>
      <trkpt lat="43.38201" lon="6.10888">
        <ele>277.60000610352</ele>
        <time>2016-09-28T13:27:52Z</time>
      </trkpt>
      <trkpt lat="43.38201" lon="6.10888">
        <ele>277.60000610352</ele>
        <time>2016-09-28T13:28:12Z</time>
      </trkpt>
      <trkpt lat="43.38201" lon="6.10888">
        <ele>277.79998779297</ele>
        <time>2016-09-28T13:28:52Z</time>
      </trkpt>
      <trkpt lat="43.38199" lon="6.10889">
        <ele>277.79998779297</ele>
        <time>2016-09-28T13:28:58Z</time>
      </trkpt>
      <trkpt lat="43.38197" lon="6.10901">
        <ele>277.60000610352</ele>
        <time>2016-09-28T13:29:02Z</time>
      </trkpt>
      <trkpt lat="43.38194" lon="6.10921">
        <ele>278.20001220703</ele>
        <time>2016-09-28T13:29:07Z</time>
      </trkpt>
      <trkpt lat="43.38189" lon="6.10943">
        <ele>278.79998779297</ele>
        <time>2016-09-28T13:29:12Z</time>
      </trkpt>
      <trkpt lat="43.38186" lon="6.10962">
        <ele>279.20001220703</ele>
        <time>2016-09-28T13:29:16Z</time>
      </trkpt>
      <trkpt lat="43.38175" lon="6.11016">
        <ele>280.60000610352</ele>
        <time>2016-09-28T13:29:28Z</time>
      </trkpt>
      <trkpt lat="43.38171" lon="6.11038">
        <ele>281.39999389648</ele>
        <time>2016-09-28T13:29:33Z</time>
      </trkpt>
      <trkpt lat="43.38166" lon="6.11061">
        <ele>281.60000610352</ele>
        <time>2016-09-28T13:29:38Z</time>
      </trkpt>
      <trkpt lat="43.38161" lon="6.11077">
        <ele>282.39999389648</ele>
        <time>2016-09-28T13:29:42Z</time>
      </trkpt>
      <trkpt lat="43.38159" lon="6.11082">
        <ele>282.39999389648</ele>
        <time>2016-09-28T13:29:43Z</time>
      </trkpt>
      <trkpt lat="43.38145" lon="6.11113">
        <ele>283.20001220703</ele>
        <time>2016-09-28T13:29:51Z</time>
      </trkpt>
      <trkpt lat="43.38136" lon="6.11125">
        <ele>283.60000610352</ele>
        <time>2016-09-28T13:29:55Z</time>
      </trkpt>
      <trkpt lat="43.38119" lon="6.11142">
        <ele>284.60000610352</ele>
        <time>2016-09-28T13:30:02Z</time>
      </trkpt>
      <trkpt lat="43.38104" lon="6.11157">
        <ele>285.60000610352</ele>
        <time>2016-09-28T13:30:09Z</time>
      </trkpt>
      <trkpt lat="43.38098" lon="6.11163">
        <ele>286.20001220703</ele>
        <time>2016-09-28T13:30:12Z</time>
      </trkpt>
      <trkpt lat="43.38095" lon="6.11167">
        <ele>286.79998779297</ele>
        <time>2016-09-28T13:30:14Z</time>
      </trkpt>
      <trkpt lat="43.3808" lon="6.11182">
        <ele>288</ele>
        <time>2016-09-28T13:30:22Z</time>
      </trkpt>
      <trkpt lat="43.38067" lon="6.11195">
        <ele>288.39999389648</ele>
        <time>2016-09-28T13:30:29Z</time>
      </trkpt>
      <trkpt lat="43.38061" lon="6.11203">
        <ele>288.39999389648</ele>
        <time>2016-09-28T13:30:32Z</time>
      </trkpt>
      <trkpt lat="43.3804" lon="6.11238">
        <ele>288</ele>
        <time>2016-09-28T13:30:42Z</time>
      </trkpt>
      <trkpt lat="43.38031" lon="6.1126">
        <ele>287.60000610352</ele>
        <time>2016-09-28T13:30:47Z</time>
      </trkpt>
      <trkpt lat="43.38022" lon="6.1128">
        <ele>287.60000610352</ele>
        <time>2016-09-28T13:30:52Z</time>
      </trkpt>
      <trkpt lat="43.38015" lon="6.11296">
        <ele>287.60000610352</ele>
        <time>2016-09-28T13:30:56Z</time>
      </trkpt>
      <trkpt lat="43.38004" lon="6.11322">
        <ele>288</ele>
        <time>2016-09-28T13:31:02Z</time>
      </trkpt>
      <trkpt lat="43.37982" lon="6.11357">
        <ele>287.60000610352</ele>
        <time>2016-09-28T13:31:10Z</time>
      </trkpt>
      <trkpt lat="43.37975" lon="6.11366">
        <ele>287.79998779297</ele>
        <time>2016-09-28T13:31:12Z</time>
      </trkpt>
      <trkpt lat="43.37971" lon="6.1137">
        <ele>287.79998779297</ele>
        <time>2016-09-28T13:31:13Z</time>
      </trkpt>
      <trkpt lat="43.37948" lon="6.11397">
        <ele>288</ele>
        <time>2016-09-28T13:31:20Z</time>
      </trkpt>
      <trkpt lat="43.37943" lon="6.11405">
        <ele>288.20001220703</ele>
        <time>2016-09-28T13:31:22Z</time>
      </trkpt>
      <trkpt lat="43.37917" lon="6.11437">
        <ele>288.60000610352</ele>
        <time>2016-09-28T13:31:32Z</time>
      </trkpt>
      <trkpt lat="43.37885" lon="6.11465">
        <ele>288.39999389648</ele>
        <time>2016-09-28T13:31:42Z</time>
      </trkpt>
      <trkpt lat="43.37868" lon="6.1147">
        <ele>289</ele>
        <time>2016-09-28T13:31:47Z</time>
      </trkpt>
      <trkpt lat="43.37854" lon="6.11481">
        <ele>289</ele>
        <time>2016-09-28T13:31:52Z</time>
      </trkpt>
      <trkpt lat="43.3785" lon="6.11489">
        <ele>290.20001220703</ele>
        <time>2016-09-28T13:31:55Z</time>
      </trkpt>
      <trkpt lat="43.37846" lon="6.11498">
        <ele>290.60000610352</ele>
        <time>2016-09-28T13:31:58Z</time>
      </trkpt>
      <trkpt lat="43.3784" lon="6.11512">
        <ele>291.39999389648</ele>
        <time>2016-09-28T13:32:03Z</time>
      </trkpt>
      <trkpt lat="43.3783" lon="6.11538">
        <ele>292</ele>
        <time>2016-09-28T13:32:12Z</time>
      </trkpt>
      <trkpt lat="43.37825" lon="6.11548">
        <ele>292.39999389648</ele>
        <time>2016-09-28T13:32:16Z</time>
      </trkpt>
      <trkpt lat="43.37822" lon="6.11557">
        <ele>293.20001220703</ele>
        <time>2016-09-28T13:32:20Z</time>
      </trkpt>
      <trkpt lat="43.3782" lon="6.11563">
        <ele>293.39999389648</ele>
        <time>2016-09-28T13:32:22Z</time>
      </trkpt>
      <trkpt lat="43.37803" lon="6.11583">
        <ele>294</ele>
        <time>2016-09-28T13:32:32Z</time>
      </trkpt>
      <trkpt lat="43.37796" lon="6.11593">
        <ele>294.60000610352</ele>
        <time>2016-09-28T13:32:36Z</time>
      </trkpt>
      <trkpt lat="43.37785" lon="6.11606">
        <ele>295</ele>
        <time>2016-09-28T13:32:42Z</time>
      </trkpt>
      <trkpt lat="43.37772" lon="6.11623">
        <ele>295.60000610352</ele>
        <time>2016-09-28T13:32:50Z</time>
      </trkpt>
      <trkpt lat="43.37768" lon="6.11628">
        <ele>296</ele>
        <time>2016-09-28T13:32:52Z</time>
      </trkpt>
      <trkpt lat="43.37764" lon="6.11636">
        <ele>296.60000610352</ele>
        <time>2016-09-28T13:32:55Z</time>
      </trkpt>
      <trkpt lat="43.37757" lon="6.11651">
        <ele>297.79998779297</ele>
        <time>2016-09-28T13:33:01Z</time>
      </trkpt>
      <trkpt lat="43.37756" lon="6.11654">
        <ele>298</ele>
        <time>2016-09-28T13:33:02Z</time>
      </trkpt>
      <trkpt lat="43.37744" lon="6.11682">
        <ele>298.60000610352</ele>
        <time>2016-09-28T13:33:12Z</time>
      </trkpt>
      <trkpt lat="43.37741" lon="6.1169">
        <ele>298.79998779297</ele>
        <time>2016-09-28T13:33:15Z</time>
      </trkpt>
      <trkpt lat="43.37737" lon="6.11698">
        <ele>299.39999389648</ele>
        <time>2016-09-28T13:33:22Z</time>
      </trkpt>
      <trkpt lat="43.37737" lon="6.11699">
        <ele>299.39999389648</ele>
        <time>2016-09-28T13:33:25Z</time>
      </trkpt>
      <trkpt lat="43.37737" lon="6.11699">
        <ele>299.39999389648</ele>
        <time>2016-09-28T13:33:31Z</time>
      </trkpt>
      <trkpt lat="43.37737" lon="6.11699">
        <ele>299.79998779297</ele>
        <time>2016-09-28T13:33:38Z</time>
      </trkpt>
      <trkpt lat="43.37735" lon="6.11701">
        <ele>299.79998779297</ele>
        <time>2016-09-28T13:33:42Z</time>
      </trkpt>
      <trkpt lat="43.37724" lon="6.11722">
        <ele>300</ele>
        <time>2016-09-28T13:33:51Z</time>
      </trkpt>
      <trkpt lat="43.37723" lon="6.11724">
        <ele>300.20001220703</ele>
        <time>2016-09-28T13:33:52Z</time>
      </trkpt>
      <trkpt lat="43.37713" lon="6.11742">
        <ele>301</ele>
        <time>2016-09-28T13:33:59Z</time>
      </trkpt>
      <trkpt lat="43.37708" lon="6.1175">
        <ele>301.39999389648</ele>
        <time>2016-09-28T13:34:02Z</time>
      </trkpt>
      <trkpt lat="43.37701" lon="6.11766">
        <ele>302.20001220703</ele>
        <time>2016-09-28T13:34:08Z</time>
      </trkpt>
      <trkpt lat="43.37696" lon="6.11777">
        <ele>302.39999389648</ele>
        <time>2016-09-28T13:34:12Z</time>
      </trkpt>
      <trkpt lat="43.37688" lon="6.11792">
        <ele>303.20001220703</ele>
        <time>2016-09-28T13:34:18Z</time>
      </trkpt>
      <trkpt lat="43.37685" lon="6.11801">
        <ele>304</ele>
        <time>2016-09-28T13:34:22Z</time>
      </trkpt>
      <trkpt lat="43.37684" lon="6.11804">
        <ele>304.39999389648</ele>
        <time>2016-09-28T13:34:23Z</time>
      </trkpt>
      <trkpt lat="43.37682" lon="6.11815">
        <ele>305.39999389648</ele>
        <time>2016-09-28T13:34:27Z</time>
      </trkpt>
      <trkpt lat="43.37682" lon="6.11817">
        <ele>305.60000610352</ele>
        <time>2016-09-28T13:34:28Z</time>
      </trkpt>
      <trkpt lat="43.37678" lon="6.11825">
        <ele>306.60000610352</ele>
        <time>2016-09-28T13:34:32Z</time>
      </trkpt>
      <trkpt lat="43.37674" lon="6.11833">
        <ele>307.20001220703</ele>
        <time>2016-09-28T13:34:36Z</time>
      </trkpt>
      <trkpt lat="43.37672" lon="6.11838">
        <ele>307.60000610352</ele>
        <time>2016-09-28T13:34:39Z</time>
      </trkpt>
      <trkpt lat="43.37669" lon="6.11843">
        <ele>308</ele>
        <time>2016-09-28T13:34:42Z</time>
      </trkpt>
      <trkpt lat="43.37662" lon="6.11851">
        <ele>308.60000610352</ele>
        <time>2016-09-28T13:34:47Z</time>
      </trkpt>
      <trkpt lat="43.37655" lon="6.11859">
        <ele>309.20001220703</ele>
        <time>2016-09-28T13:34:52Z</time>
      </trkpt>
      <trkpt lat="43.37648" lon="6.11869">
        <ele>309.79998779297</ele>
        <time>2016-09-28T13:34:58Z</time>
      </trkpt>
      <trkpt lat="43.37645" lon="6.11875">
        <ele>310.20001220703</ele>
        <time>2016-09-28T13:35:02Z</time>
      </trkpt>
      <trkpt lat="43.37642" lon="6.11883">
        <ele>310.79998779297</ele>
        <time>2016-09-28T13:35:06Z</time>
      </trkpt>
      <trkpt lat="43.37637" lon="6.11891">
        <ele>311.20001220703</ele>
        <time>2016-09-28T13:35:12Z</time>
      </trkpt>
      <trkpt lat="43.37634" lon="6.11892">
        <ele>311.79998779297</ele>
        <time>2016-09-28T13:35:15Z</time>
      </trkpt>
      <trkpt lat="43.37634" lon="6.11893">
        <ele>311.79998779297</ele>
        <time>2016-09-28T13:35:16Z</time>
      </trkpt>
      <trkpt lat="43.37632" lon="6.11896">
        <ele>312.20001220703</ele>
        <time>2016-09-28T13:35:20Z</time>
      </trkpt>
      <trkpt lat="43.37628" lon="6.11901">
        <ele>312.79998779297</ele>
        <time>2016-09-28T13:35:27Z</time>
      </trkpt>
      <trkpt lat="43.37624" lon="6.11906">
        <ele>313.60000610352</ele>
        <time>2016-09-28T13:35:32Z</time>
      </trkpt>
      <trkpt lat="43.37621" lon="6.11911">
        <ele>314</ele>
        <time>2016-09-28T13:35:36Z</time>
      </trkpt>
      <trkpt lat="43.37617" lon="6.11918">
        <ele>314.79998779297</ele>
        <time>2016-09-28T13:35:40Z</time>
      </trkpt>
      <trkpt lat="43.37611" lon="6.11929">
        <ele>316.20001220703</ele>
        <time>2016-09-28T13:35:47Z</time>
      </trkpt>
      <trkpt lat="43.37607" lon="6.11936">
        <ele>316.79998779297</ele>
        <time>2016-09-28T13:35:52Z</time>
      </trkpt>
      <trkpt lat="43.37604" lon="6.1194">
        <ele>317.39999389648</ele>
        <time>2016-09-28T13:35:55Z</time>
      </trkpt>
      <trkpt lat="43.37599" lon="6.11948">
        <ele>318.39999389648</ele>
        <time>2016-09-28T13:36:00Z</time>
      </trkpt>
      <trkpt lat="43.37595" lon="6.11955">
        <ele>319.39999389648</ele>
        <time>2016-09-28T13:36:04Z</time>
      </trkpt>
      <trkpt lat="43.37588" lon="6.11964">
        <ele>320.39999389648</ele>
        <time>2016-09-28T13:36:12Z</time>
      </trkpt>
      <trkpt lat="43.37586" lon="6.11965">
        <ele>320.60000610352</ele>
        <time>2016-09-28T13:36:13Z</time>
      </trkpt>
      <trkpt lat="43.37579" lon="6.1197">
        <ele>321.39999389648</ele>
        <time>2016-09-28T13:36:18Z</time>
      </trkpt>
      <trkpt lat="43.37578" lon="6.11971">
        <ele>321.60000610352</ele>
        <time>2016-09-28T13:36:19Z</time>
      </trkpt>
      <trkpt lat="43.37574" lon="6.11973">
        <ele>322.20001220703</ele>
        <time>2016-09-28T13:36:22Z</time>
      </trkpt>
      <trkpt lat="43.37561" lon="6.11983">
        <ele>323.79998779297</ele>
        <time>2016-09-28T13:36:33Z</time>
      </trkpt>
      <trkpt lat="43.37552" lon="6.11992">
        <ele>325</ele>
        <time>2016-09-28T13:36:41Z</time>
      </trkpt>
      <trkpt lat="43.37551" lon="6.11993">
        <ele>325.20001220703</ele>
        <time>2016-09-28T13:36:42Z</time>
      </trkpt>
      <trkpt lat="43.37547" lon="6.11998">
        <ele>326.20001220703</ele>
        <time>2016-09-28T13:36:47Z</time>
      </trkpt>
      <trkpt lat="43.37541" lon="6.12002">
        <ele>327.20001220703</ele>
        <time>2016-09-28T13:36:52Z</time>
      </trkpt>
      <trkpt lat="43.37536" lon="6.12006">
        <ele>328.20001220703</ele>
        <time>2016-09-28T13:36:56Z</time>
      </trkpt>
      <trkpt lat="43.37532" lon="6.12012">
        <ele>329.39999389648</ele>
        <time>2016-09-28T13:37:01Z</time>
      </trkpt>
      <trkpt lat="43.37531" lon="6.12013">
        <ele>329.39999389648</ele>
        <time>2016-09-28T13:37:02Z</time>
      </trkpt>
      <trkpt lat="43.37524" lon="6.12019">
        <ele>330.60000610352</ele>
        <time>2016-09-28T13:37:08Z</time>
      </trkpt>
      <trkpt lat="43.37522" lon="6.12023">
        <ele>331</ele>
        <time>2016-09-28T13:37:12Z</time>
      </trkpt>
      <trkpt lat="43.37518" lon="6.12029">
        <ele>331.60000610352</ele>
        <time>2016-09-28T13:37:16Z</time>
      </trkpt>
      <trkpt lat="43.37512" lon="6.12036">
        <ele>332.79998779297</ele>
        <time>2016-09-28T13:37:22Z</time>
      </trkpt>
      <trkpt lat="43.37506" lon="6.12042">
        <ele>333.79998779297</ele>
        <time>2016-09-28T13:37:29Z</time>
      </trkpt>
      <trkpt lat="43.37503" lon="6.12044">
        <ele>334.39999389648</ele>
        <time>2016-09-28T13:37:32Z</time>
      </trkpt>
      <trkpt lat="43.37495" lon="6.12051">
        <ele>335.79998779297</ele>
        <time>2016-09-28T13:37:40Z</time>
      </trkpt>
      <trkpt lat="43.37493" lon="6.12053">
        <ele>336.39999389648</ele>
        <time>2016-09-28T13:37:42Z</time>
      </trkpt>
      <trkpt lat="43.3749" lon="6.12057">
        <ele>337.20001220703</ele>
        <time>2016-09-28T13:37:46Z</time>
      </trkpt>
      <trkpt lat="43.37484" lon="6.12063">
        <ele>338.20001220703</ele>
        <time>2016-09-28T13:37:52Z</time>
      </trkpt>
      <trkpt lat="43.37482" lon="6.12065">
        <ele>338.60000610352</ele>
        <time>2016-09-28T13:37:54Z</time>
      </trkpt>
      <trkpt lat="43.37476" lon="6.1207">
        <ele>339.39999389648</ele>
        <time>2016-09-28T13:38:00Z</time>
      </trkpt>
      <trkpt lat="43.37474" lon="6.12072">
        <ele>339.60000610352</ele>
        <time>2016-09-28T13:38:02Z</time>
      </trkpt>
      <trkpt lat="43.3747" lon="6.12075">
        <ele>340.60000610352</ele>
        <time>2016-09-28T13:38:07Z</time>
      </trkpt>
      <trkpt lat="43.37465" lon="6.12078">
        <ele>340.79998779297</ele>
        <time>2016-09-28T13:38:12Z</time>
      </trkpt>
      <trkpt lat="43.37461" lon="6.12081">
        <ele>341.60000610352</ele>
        <time>2016-09-28T13:38:16Z</time>
      </trkpt>
      <trkpt lat="43.37455" lon="6.12083">
        <ele>342.60000610352</ele>
        <time>2016-09-28T13:38:22Z</time>
      </trkpt>
      <trkpt lat="43.37453" lon="6.12083">
        <ele>342.79998779297</ele>
        <time>2016-09-28T13:38:23Z</time>
      </trkpt>
      <trkpt lat="43.37445" lon="6.12086">
        <ele>343.79998779297</ele>
        <time>2016-09-28T13:38:31Z</time>
      </trkpt>
      <trkpt lat="43.3744" lon="6.12085">
        <ele>344.39999389648</ele>
        <time>2016-09-28T13:38:36Z</time>
      </trkpt>
      <trkpt lat="43.37436" lon="6.12084">
        <ele>344.79998779297</ele>
        <time>2016-09-28T13:38:39Z</time>
      </trkpt>
      <trkpt lat="43.37435" lon="6.12084">
        <ele>344.79998779297</ele>
        <time>2016-09-28T13:38:41Z</time>
      </trkpt>
      <trkpt lat="43.37434" lon="6.12084">
        <ele>345</ele>
        <time>2016-09-28T13:38:42Z</time>
      </trkpt>
      <trkpt lat="43.37434" lon="6.12084">
        <ele>345.20001220703</ele>
        <time>2016-09-28T13:38:47Z</time>
      </trkpt>
      <trkpt lat="43.37434" lon="6.12084">
        <ele>345.20001220703</ele>
        <time>2016-09-28T13:38:52Z</time>
      </trkpt>
      <trkpt lat="43.37434" lon="6.12084">
        <ele>345.39999389648</ele>
        <time>2016-09-28T13:39:00Z</time>
      </trkpt>
      <trkpt lat="43.37434" lon="6.12084">
        <ele>345.20001220703</ele>
        <time>2016-09-28T13:39:02Z</time>
      </trkpt>
      <trkpt lat="43.37434" lon="6.12084">
        <ele>345.20001220703</ele>
        <time>2016-09-28T13:39:09Z</time>
      </trkpt>
      <trkpt lat="43.37434" lon="6.12084">
        <ele>345</ele>
        <time>2016-09-28T13:39:12Z</time>
      </trkpt>
      <trkpt lat="43.37434" lon="6.12084">
        <ele>345.20001220703</ele>
        <time>2016-09-28T13:39:22Z</time>
      </trkpt>
      <trkpt lat="43.37434" lon="6.12083">
        <ele>345.39999389648</ele>
        <time>2016-09-28T13:39:32Z</time>
      </trkpt>
      <trkpt lat="43.37434" lon="6.12083">
        <ele>345.20001220703</ele>
        <time>2016-09-28T13:39:44Z</time>
      </trkpt>
      <trkpt lat="43.37434" lon="6.12083">
        <ele>345.20001220703</ele>
        <time>2016-09-28T13:40:02Z</time>
      </trkpt>
      <trkpt lat="43.37434" lon="6.12084">
        <ele>345.20001220703</ele>
        <time>2016-09-28T13:40:09Z</time>
      </trkpt>
      <trkpt lat="43.37434" lon="6.12084">
        <ele>345.20001220703</ele>
        <time>2016-09-28T13:40:22Z</time>
      </trkpt>
      <trkpt lat="43.37434" lon="6.12085">
        <ele>345.20001220703</ele>
        <time>2016-09-28T13:40:33Z</time>
      </trkpt>
      <trkpt lat="43.37435" lon="6.12085">
        <ele>345.20001220703</ele>
        <time>2016-09-28T13:40:40Z</time>
      </trkpt>
      <trkpt lat="43.37435" lon="6.12085">
        <ele>345.20001220703</ele>
        <time>2016-09-28T13:40:42Z</time>
      </trkpt>
      <trkpt lat="43.37435" lon="6.12086">
        <ele>345.20001220703</ele>
        <time>2016-09-28T13:40:48Z</time>
      </trkpt>
      <trkpt lat="43.37435" lon="6.12086">
        <ele>345.20001220703</ele>
        <time>2016-09-28T13:40:52Z</time>
      </trkpt>
      <trkpt lat="43.37432" lon="6.12086">
        <ele>345.20001220703</ele>
        <time>2016-09-28T13:41:02Z</time>
      </trkpt>
      <trkpt lat="43.37431" lon="6.12085">
        <ele>345.20001220703</ele>
        <time>2016-09-28T13:41:12Z</time>
      </trkpt>
      <trkpt lat="43.37431" lon="6.12084">
        <ele>345.20001220703</ele>
        <time>2016-09-28T13:41:22Z</time>
      </trkpt>
      <trkpt lat="43.37431" lon="6.12084">
        <ele>345.20001220703</ele>
        <time>2016-09-28T13:41:32Z</time>
      </trkpt>
      <trkpt lat="43.37433" lon="6.12082">
        <ele>345.20001220703</ele>
        <time>2016-09-28T13:41:42Z</time>
      </trkpt>
      <trkpt lat="43.37433" lon="6.12081">
        <ele>345.20001220703</ele>
        <time>2016-09-28T13:41:52Z</time>
      </trkpt>
      <trkpt lat="43.37433" lon="6.12081">
        <ele>345.20001220703</ele>
        <time>2016-09-28T13:42:02Z</time>
      </trkpt>
      <trkpt lat="43.37433" lon="6.12082">
        <ele>345.20001220703</ele>
        <time>2016-09-28T13:42:32Z</time>
      </trkpt>
      <trkpt lat="43.37433" lon="6.12083">
        <ele>345.20001220703</ele>
        <time>2016-09-28T13:42:37Z</time>
      </trkpt>
      <trkpt lat="43.37433" lon="6.12084">
        <ele>345.20001220703</ele>
        <time>2016-09-28T13:42:42Z</time>
      </trkpt>
      <trkpt lat="43.37434" lon="6.12084">
        <ele>345.20001220703</ele>
        <time>2016-09-28T13:42:52Z</time>
      </trkpt>
      <trkpt lat="43.37433" lon="6.12082">
        <ele>345.20001220703</ele>
        <time>2016-09-28T13:43:02Z</time>
      </trkpt>
      <trkpt lat="43.37433" lon="6.12083">
        <ele>345.20001220703</ele>
        <time>2016-09-28T13:43:12Z</time>
      </trkpt>
      <trkpt lat="43.37432" lon="6.12085">
        <ele>345.20001220703</ele>
        <time>2016-09-28T13:43:22Z</time>
      </trkpt>
      <trkpt lat="43.37433" lon="6.12085">
        <ele>345.20001220703</ele>
        <time>2016-09-28T13:43:40Z</time>
      </trkpt>
      <trkpt lat="43.37433" lon="6.12086">
        <ele>345.20001220703</ele>
        <time>2016-09-28T13:43:41Z</time>
      </trkpt>
      <trkpt lat="43.37431" lon="6.12086">
        <ele>345.20001220703</ele>
        <time>2016-09-28T13:43:47Z</time>
      </trkpt>
      <trkpt lat="43.37421" lon="6.12085">
        <ele>344.60000610352</ele>
        <time>2016-09-28T13:43:52Z</time>
      </trkpt>
      <trkpt lat="43.3742" lon="6.12084">
        <ele>344.60000610352</ele>
        <time>2016-09-28T13:43:53Z</time>
      </trkpt>
      <trkpt lat="43.37419" lon="6.12072">
        <ele>344.60000610352</ele>
        <time>2016-09-28T13:43:57Z</time>
      </trkpt>
      <trkpt lat="43.37419" lon="6.12065">
        <ele>344.39999389648</ele>
        <time>2016-09-28T13:43:59Z</time>
      </trkpt>
      <trkpt lat="43.3742" lon="6.12055">
        <ele>344.39999389648</ele>
        <time>2016-09-28T13:44:02Z</time>
      </trkpt>
      <trkpt lat="43.3742" lon="6.12037">
        <ele>344.60000610352</ele>
        <time>2016-09-28T13:44:07Z</time>
      </trkpt>
      <trkpt lat="43.3742" lon="6.12018">
        <ele>344.79998779297</ele>
        <time>2016-09-28T13:44:12Z</time>
      </trkpt>
      <trkpt lat="43.37419" lon="6.11999">
        <ele>345.20001220703</ele>
        <time>2016-09-28T13:44:16Z</time>
      </trkpt>
      <trkpt lat="43.37419" lon="6.11984">
        <ele>345.20001220703</ele>
        <time>2016-09-28T13:44:19Z</time>
      </trkpt>
      <trkpt lat="43.37419" lon="6.11966">
        <ele>345</ele>
        <time>2016-09-28T13:44:22Z</time>
      </trkpt>
      <trkpt lat="43.3742" lon="6.11926">
        <ele>344.20001220703</ele>
        <time>2016-09-28T13:44:28Z</time>
      </trkpt>
      <trkpt lat="43.37418" lon="6.11904">
        <ele>343.79998779297</ele>
        <time>2016-09-28T13:44:31Z</time>
      </trkpt>
      <trkpt lat="43.3742" lon="6.11897">
        <ele>343.60000610352</ele>
        <time>2016-09-28T13:44:32Z</time>
      </trkpt>
      <trkpt lat="43.37422" lon="6.11891">
        <ele>343.39999389648</ele>
        <time>2016-09-28T13:44:33Z</time>
      </trkpt>
      <trkpt lat="43.37426" lon="6.11871">
        <ele>342.79998779297</ele>
        <time>2016-09-28T13:44:36Z</time>
      </trkpt>
      <trkpt lat="43.37429" lon="6.11859">
        <ele>342.39999389648</ele>
        <time>2016-09-28T13:44:38Z</time>
      </trkpt>
      <trkpt lat="43.37432" lon="6.11845">
        <ele>342</ele>
        <time>2016-09-28T13:44:40Z</time>
      </trkpt>
      <trkpt lat="43.37434" lon="6.1183">
        <ele>341.60000610352</ele>
        <time>2016-09-28T13:44:42Z</time>
      </trkpt>
      <trkpt lat="43.37439" lon="6.11792">
        <ele>340.20001220703</ele>
        <time>2016-09-28T13:44:47Z</time>
      </trkpt>
      <trkpt lat="43.37443" lon="6.1177">
        <ele>338.79998779297</ele>
        <time>2016-09-28T13:44:50Z</time>
      </trkpt>
      <trkpt lat="43.3745" lon="6.117">
        <ele>336.39999389648</ele>
        <time>2016-09-28T13:44:59Z</time>
      </trkpt>
      <trkpt lat="43.37452" lon="6.11683">
        <ele>336.20001220703</ele>
        <time>2016-09-28T13:45:01Z</time>
      </trkpt>
      <trkpt lat="43.37452" lon="6.11675">
        <ele>336.20001220703</ele>
        <time>2016-09-28T13:45:02Z</time>
      </trkpt>
      <trkpt lat="43.37455" lon="6.11659">
        <ele>336.20001220703</ele>
        <time>2016-09-28T13:45:04Z</time>
      </trkpt>
      <trkpt lat="43.37462" lon="6.11608">
        <ele>335.20001220703</ele>
        <time>2016-09-28T13:45:11Z</time>
      </trkpt>
      <trkpt lat="43.37463" lon="6.11601">
        <ele>335</ele>
        <time>2016-09-28T13:45:12Z</time>
      </trkpt>
      <trkpt lat="43.37467" lon="6.11579">
        <ele>334.79998779297</ele>
        <time>2016-09-28T13:45:15Z</time>
      </trkpt>
      <trkpt lat="43.37471" lon="6.11557">
        <ele>334</ele>
        <time>2016-09-28T13:45:18Z</time>
      </trkpt>
      <trkpt lat="43.37473" lon="6.11542">
        <ele>333.39999389648</ele>
        <time>2016-09-28T13:45:20Z</time>
      </trkpt>
      <trkpt lat="43.37473" lon="6.11526">
        <ele>333.20001220703</ele>
        <time>2016-09-28T13:45:22Z</time>
      </trkpt>
      <trkpt lat="43.37472" lon="6.11512">
        <ele>333</ele>
        <time>2016-09-28T13:45:24Z</time>
      </trkpt>
      <trkpt lat="43.37471" lon="6.11505">
        <ele>332.79998779297</ele>
        <time>2016-09-28T13:45:29Z</time>
      </trkpt>
      <trkpt lat="43.3747" lon="6.11506">
        <ele>332.79998779297</ele>
        <time>2016-09-28T13:45:32Z</time>
      </trkpt>
      <trkpt lat="43.3747" lon="6.11506">
        <ele>332.79998779297</ele>
        <time>2016-09-28T13:45:42Z</time>
      </trkpt>
      <trkpt lat="43.3747" lon="6.11506">
        <ele>332.79998779297</ele>
        <time>2016-09-28T13:45:52Z</time>
      </trkpt>
      <trkpt lat="43.37471" lon="6.11502">
        <ele>332.79998779297</ele>
        <time>2016-09-28T13:45:58Z</time>
      </trkpt>
      <trkpt lat="43.37473" lon="6.11499">
        <ele>332.39999389648</ele>
        <time>2016-09-28T13:45:59Z</time>
      </trkpt>
      <trkpt lat="43.37474" lon="6.1149">
        <ele>331.79998779297</ele>
        <time>2016-09-28T13:46:01Z</time>
      </trkpt>
      <trkpt lat="43.37475" lon="6.11486">
        <ele>331.60000610352</ele>
        <time>2016-09-28T13:46:02Z</time>
      </trkpt>
      <trkpt lat="43.37479" lon="6.11468">
        <ele>331</ele>
        <time>2016-09-28T13:46:06Z</time>
      </trkpt>
      <trkpt lat="43.37482" lon="6.11463">
        <ele>331</ele>
        <time>2016-09-28T13:46:12Z</time>
      </trkpt>
      <trkpt lat="43.37482" lon="6.11463">
        <ele>331</ele>
        <time>2016-09-28T13:46:22Z</time>
      </trkpt>
      <trkpt lat="43.37485" lon="6.11443">
        <ele>330.60000610352</ele>
        <time>2016-09-28T13:46:32Z</time>
      </trkpt>
      <trkpt lat="43.37489" lon="6.1142">
        <ele>329.60000610352</ele>
        <time>2016-09-28T13:46:37Z</time>
      </trkpt>
      <trkpt lat="43.37493" lon="6.11395">
        <ele>329.60000610352</ele>
        <time>2016-09-28T13:46:42Z</time>
      </trkpt>
      <trkpt lat="43.375" lon="6.1138">
        <ele>328.20001220703</ele>
        <time>2016-09-28T13:46:46Z</time>
      </trkpt>
      <trkpt lat="43.37507" lon="6.11369">
        <ele>326.79998779297</ele>
        <time>2016-09-28T13:46:49Z</time>
      </trkpt>
      <trkpt lat="43.3751" lon="6.11352">
        <ele>325.60000610352</ele>
        <time>2016-09-28T13:46:52Z</time>
      </trkpt>
      <trkpt lat="43.37516" lon="6.11326">
        <ele>324.60000610352</ele>
        <time>2016-09-28T13:46:57Z</time>
      </trkpt>
      <trkpt lat="43.3752" lon="6.11318">
        <ele>323.39999389648</ele>
        <time>2016-09-28T13:46:59Z</time>
      </trkpt>
      <trkpt lat="43.37526" lon="6.11308">
        <ele>322.20001220703</ele>
        <time>2016-09-28T13:47:01Z</time>
      </trkpt>
      <trkpt lat="43.37528" lon="6.11302">
        <ele>321.20001220703</ele>
        <time>2016-09-28T13:47:02Z</time>
      </trkpt>
      <trkpt lat="43.37531" lon="6.11296">
        <ele>320.39999389648</ele>
        <time>2016-09-28T13:47:03Z</time>
      </trkpt>
      <trkpt lat="43.37532" lon="6.11289">
        <ele>319.20001220703</ele>
        <time>2016-09-28T13:47:04Z</time>
      </trkpt>
      <trkpt lat="43.37535" lon="6.11282">
        <ele>318.60000610352</ele>
        <time>2016-09-28T13:47:05Z</time>
      </trkpt>
      <trkpt lat="43.37537" lon="6.11275">
        <ele>318.60000610352</ele>
        <time>2016-09-28T13:47:06Z</time>
      </trkpt>
      <trkpt lat="43.37538" lon="6.11268">
        <ele>318.39999389648</ele>
        <time>2016-09-28T13:47:07Z</time>
      </trkpt>
      <trkpt lat="43.37539" lon="6.11263">
        <ele>318</ele>
        <time>2016-09-28T13:47:08Z</time>
      </trkpt>
      <trkpt lat="43.37539" lon="6.11257">
        <ele>317.79998779297</ele>
        <time>2016-09-28T13:47:09Z</time>
      </trkpt>
      <trkpt lat="43.37541" lon="6.11248">
        <ele>317.39999389648</ele>
        <time>2016-09-28T13:47:11Z</time>
      </trkpt>
      <trkpt lat="43.37543" lon="6.11244">
        <ele>317</ele>
        <time>2016-09-28T13:47:12Z</time>
      </trkpt>
      <trkpt lat="43.37546" lon="6.11235">
        <ele>315.39999389648</ele>
        <time>2016-09-28T13:47:15Z</time>
      </trkpt>
      <trkpt lat="43.3755" lon="6.11229">
        <ele>314.20001220703</ele>
        <time>2016-09-28T13:47:17Z</time>
      </trkpt>
      <trkpt lat="43.37555" lon="6.11224">
        <ele>313.20001220703</ele>
        <time>2016-09-28T13:47:20Z</time>
      </trkpt>
      <trkpt lat="43.37555" lon="6.11222">
        <ele>312.79998779297</ele>
        <time>2016-09-28T13:47:22Z</time>
      </trkpt>
      <trkpt lat="43.3756" lon="6.11212">
        <ele>312</ele>
        <time>2016-09-28T13:47:31Z</time>
      </trkpt>
      <trkpt lat="43.3756" lon="6.11209">
        <ele>311.79998779297</ele>
        <time>2016-09-28T13:47:32Z</time>
      </trkpt>
      <trkpt lat="43.37563" lon="6.11202">
        <ele>311</ele>
        <time>2016-09-28T13:47:35Z</time>
      </trkpt>
      <trkpt lat="43.37567" lon="6.1119">
        <ele>309.60000610352</ele>
        <time>2016-09-28T13:47:39Z</time>
      </trkpt>
      <trkpt lat="43.3757" lon="6.11179">
        <ele>308.39999389648</ele>
        <time>2016-09-28T13:47:42Z</time>
      </trkpt>
      <trkpt lat="43.37574" lon="6.11166">
        <ele>307.20001220703</ele>
        <time>2016-09-28T13:47:46Z</time>
      </trkpt>
      <trkpt lat="43.37578" lon="6.1116">
        <ele>306.20001220703</ele>
        <time>2016-09-28T13:47:48Z</time>
      </trkpt>
      <trkpt lat="43.37579" lon="6.11157">
        <ele>305.79998779297</ele>
        <time>2016-09-28T13:47:49Z</time>
      </trkpt>
      <trkpt lat="43.37582" lon="6.1115">
        <ele>304.79998779297</ele>
        <time>2016-09-28T13:47:52Z</time>
      </trkpt>
      <trkpt lat="43.37583" lon="6.11147">
        <ele>304.60000610352</ele>
        <time>2016-09-28T13:47:53Z</time>
      </trkpt>
      <trkpt lat="43.37587" lon="6.11136">
        <ele>303.60000610352</ele>
        <time>2016-09-28T13:48:00Z</time>
      </trkpt>
      <trkpt lat="43.37587" lon="6.11135">
        <ele>303.20001220703</ele>
        <time>2016-09-28T13:48:02Z</time>
      </trkpt>
      <trkpt lat="43.37589" lon="6.11135">
        <ele>303.20001220703</ele>
        <time>2016-09-28T13:48:05Z</time>
      </trkpt>
      <trkpt lat="43.37589" lon="6.11135">
        <ele>303.20001220703</ele>
        <time>2016-09-28T13:48:06Z</time>
      </trkpt>
      <trkpt lat="43.37591" lon="6.11135">
        <ele>303.20001220703</ele>
        <time>2016-09-28T13:48:09Z</time>
      </trkpt>
      <trkpt lat="43.37592" lon="6.11136">
        <ele>303.20001220703</ele>
        <time>2016-09-28T13:48:12Z</time>
      </trkpt>
      <trkpt lat="43.37593" lon="6.11137">
        <ele>303</ele>
        <time>2016-09-28T13:48:16Z</time>
      </trkpt>
      <trkpt lat="43.37593" lon="6.11137">
        <ele>303</ele>
        <time>2016-09-28T13:48:19Z</time>
      </trkpt>
      <trkpt lat="43.37593" lon="6.11137">
        <ele>303</ele>
        <time>2016-09-28T13:48:22Z</time>
      </trkpt>
      <trkpt lat="43.37594" lon="6.11133">
        <ele>303.20001220703</ele>
        <time>2016-09-28T13:48:32Z</time>
      </trkpt>
      <trkpt lat="43.37597" lon="6.1113">
        <ele>302.79998779297</ele>
        <time>2016-09-28T13:48:35Z</time>
      </trkpt>
      <trkpt lat="43.37598" lon="6.11129">
        <ele>302.39999389648</ele>
        <time>2016-09-28T13:48:36Z</time>
      </trkpt>
      <trkpt lat="43.37597" lon="6.11128">
        <ele>301.60000610352</ele>
        <time>2016-09-28T13:48:42Z</time>
      </trkpt>
      <trkpt lat="43.37599" lon="6.11125">
        <ele>301.60000610352</ele>
        <time>2016-09-28T13:48:46Z</time>
      </trkpt>
      <trkpt lat="43.376" lon="6.11119">
        <ele>301.20001220703</ele>
        <time>2016-09-28T13:48:49Z</time>
      </trkpt>
      <trkpt lat="43.37605" lon="6.11111">
        <ele>300.20001220703</ele>
        <time>2016-09-28T13:48:52Z</time>
      </trkpt>
      <trkpt lat="43.37612" lon="6.11104">
        <ele>299</ele>
        <time>2016-09-28T13:48:56Z</time>
      </trkpt>
      <trkpt lat="43.37613" lon="6.11102">
        <ele>298.79998779297</ele>
        <time>2016-09-28T13:48:57Z</time>
      </trkpt>
      <trkpt lat="43.37613" lon="6.111">
        <ele>298</ele>
        <time>2016-09-28T13:49:01Z</time>
      </trkpt>
      <trkpt lat="43.37613" lon="6.111">
        <ele>297.79998779297</ele>
        <time>2016-09-28T13:49:02Z</time>
      </trkpt>
      <trkpt lat="43.37615" lon="6.1109">
        <ele>297.39999389648</ele>
        <time>2016-09-28T13:49:06Z</time>
      </trkpt>
      <trkpt lat="43.37618" lon="6.11086">
        <ele>296.60000610352</ele>
        <time>2016-09-28T13:49:08Z</time>
      </trkpt>
      <trkpt lat="43.37623" lon="6.11077">
        <ele>295.60000610352</ele>
        <time>2016-09-28T13:49:11Z</time>
      </trkpt>
      <trkpt lat="43.37624" lon="6.11073">
        <ele>295.39999389648</ele>
        <time>2016-09-28T13:49:12Z</time>
      </trkpt>
      <trkpt lat="43.37627" lon="6.11066">
        <ele>294.79998779297</ele>
        <time>2016-09-28T13:49:14Z</time>
      </trkpt>
      <trkpt lat="43.37627" lon="6.11065">
        <ele>294.39999389648</ele>
        <time>2016-09-28T13:49:15Z</time>
      </trkpt>
      <trkpt lat="43.37629" lon="6.11064">
        <ele>294</ele>
        <time>2016-09-28T13:49:22Z</time>
      </trkpt>
      <trkpt lat="43.3763" lon="6.11065">
        <ele>293.79998779297</ele>
        <time>2016-09-28T13:49:32Z</time>
      </trkpt>
      <trkpt lat="43.37631" lon="6.11065">
        <ele>294</ele>
        <time>2016-09-28T13:49:37Z</time>
      </trkpt>
      <trkpt lat="43.37631" lon="6.11065">
        <ele>294</ele>
        <time>2016-09-28T13:49:40Z</time>
      </trkpt>
      <trkpt lat="43.37631" lon="6.11063">
        <ele>294</ele>
        <time>2016-09-28T13:49:44Z</time>
      </trkpt>
      <trkpt lat="43.37629" lon="6.11063">
        <ele>293.79998779297</ele>
        <time>2016-09-28T13:49:52Z</time>
      </trkpt>
      <trkpt lat="43.37628" lon="6.11063">
        <ele>293.79998779297</ele>
        <time>2016-09-28T13:49:57Z</time>
      </trkpt>
      <trkpt lat="43.37628" lon="6.11063">
        <ele>294</ele>
        <time>2016-09-28T13:50:00Z</time>
      </trkpt>
      <trkpt lat="43.37628" lon="6.11063">
        <ele>294</ele>
        <time>2016-09-28T13:50:02Z</time>
      </trkpt>
      <trkpt lat="43.37628" lon="6.11064">
        <ele>294</ele>
        <time>2016-09-28T13:50:04Z</time>
      </trkpt>
      <trkpt lat="43.37628" lon="6.11064">
        <ele>293.79998779297</ele>
        <time>2016-09-28T13:50:05Z</time>
      </trkpt>
      <trkpt lat="43.37628" lon="6.11064">
        <ele>293.79998779297</ele>
        <time>2016-09-28T13:50:11Z</time>
      </trkpt>
      <trkpt lat="43.37628" lon="6.11064">
        <ele>294</ele>
        <time>2016-09-28T13:50:16Z</time>
      </trkpt>
      <trkpt lat="43.37629" lon="6.11063">
        <ele>294.20001220703</ele>
        <time>2016-09-28T13:50:20Z</time>
      </trkpt>
      <trkpt lat="43.37629" lon="6.11062">
        <ele>294</ele>
        <time>2016-09-28T13:50:22Z</time>
      </trkpt>
      <trkpt lat="43.37628" lon="6.11064">
        <ele>294</ele>
        <time>2016-09-28T13:50:32Z</time>
      </trkpt>
      <trkpt lat="43.37627" lon="6.11065">
        <ele>294</ele>
        <time>2016-09-28T13:50:42Z</time>
      </trkpt>
      <trkpt lat="43.37626" lon="6.11066">
        <ele>294</ele>
        <time>2016-09-28T13:50:52Z</time>
      </trkpt>
      <trkpt lat="43.37628" lon="6.11065">
        <ele>294</ele>
        <time>2016-09-28T13:51:02Z</time>
      </trkpt>
      <trkpt lat="43.3763" lon="6.11062">
        <ele>294</ele>
        <time>2016-09-28T13:51:12Z</time>
      </trkpt>
      <trkpt lat="43.37631" lon="6.11061">
        <ele>294</ele>
        <time>2016-09-28T13:51:13Z</time>
      </trkpt>
      <trkpt lat="43.37632" lon="6.11059">
        <ele>293.79998779297</ele>
        <time>2016-09-28T13:51:14Z</time>
      </trkpt>
      <trkpt lat="43.37634" lon="6.11056">
        <ele>293.39999389648</ele>
        <time>2016-09-28T13:51:15Z</time>
      </trkpt>
      <trkpt lat="43.37638" lon="6.11045">
        <ele>291.79998779297</ele>
        <time>2016-09-28T13:51:18Z</time>
      </trkpt>
      <trkpt lat="43.37648" lon="6.11028">
        <ele>291.39999389648</ele>
        <time>2016-09-28T13:51:21Z</time>
      </trkpt>
      <trkpt lat="43.37652" lon="6.1102">
        <ele>291.20001220703</ele>
        <time>2016-09-28T13:51:22Z</time>
      </trkpt>
      <trkpt lat="43.37659" lon="6.11004">
        <ele>290.39999389648</ele>
        <time>2016-09-28T13:51:24Z</time>
      </trkpt>
      <trkpt lat="43.37663" lon="6.10997">
        <ele>289.79998779297</ele>
        <time>2016-09-28T13:51:25Z</time>
      </trkpt>
      <trkpt lat="43.37668" lon="6.10989">
        <ele>289.20001220703</ele>
        <time>2016-09-28T13:51:26Z</time>
      </trkpt>
      <trkpt lat="43.37678" lon="6.10975">
        <ele>288.20001220703</ele>
        <time>2016-09-28T13:51:28Z</time>
      </trkpt>
      <trkpt lat="43.37688" lon="6.1096">
        <ele>287</ele>
        <time>2016-09-28T13:51:30Z</time>
      </trkpt>
      <trkpt lat="43.37694" lon="6.10952">
        <ele>286</ele>
        <time>2016-09-28T13:51:31Z</time>
      </trkpt>
      <trkpt lat="43.377" lon="6.10943">
        <ele>284.79998779297</ele>
        <time>2016-09-28T13:51:32Z</time>
      </trkpt>
      <trkpt lat="43.3771" lon="6.10926">
        <ele>282.79998779297</ele>
        <time>2016-09-28T13:51:34Z</time>
      </trkpt>
      <trkpt lat="43.37721" lon="6.1091">
        <ele>281.79998779297</ele>
        <time>2016-09-28T13:51:36Z</time>
      </trkpt>
      <trkpt lat="43.37726" lon="6.10904">
        <ele>281.20001220703</ele>
        <time>2016-09-28T13:51:37Z</time>
      </trkpt>
      <trkpt lat="43.37731" lon="6.10899">
        <ele>280.60000610352</ele>
        <time>2016-09-28T13:51:38Z</time>
      </trkpt>
      <trkpt lat="43.37745" lon="6.10886">
        <ele>279.79998779297</ele>
        <time>2016-09-28T13:51:41Z</time>
      </trkpt>
      <trkpt lat="43.37749" lon="6.1088">
        <ele>279.20001220703</ele>
        <time>2016-09-28T13:51:42Z</time>
      </trkpt>
      <trkpt lat="43.37753" lon="6.10874">
        <ele>278.39999389648</ele>
        <time>2016-09-28T13:51:43Z</time>
      </trkpt>
      <trkpt lat="43.37756" lon="6.10869">
        <ele>278</ele>
        <time>2016-09-28T13:51:44Z</time>
      </trkpt>
      <trkpt lat="43.37762" lon="6.10859">
        <ele>277</ele>
        <time>2016-09-28T13:51:48Z</time>
      </trkpt>
      <trkpt lat="43.37764" lon="6.10849">
        <ele>276.39999389648</ele>
        <time>2016-09-28T13:51:52Z</time>
      </trkpt>
      <trkpt lat="43.37764" lon="6.10849">
        <ele>276.39999389648</ele>
        <time>2016-09-28T13:51:53Z</time>
      </trkpt>
      <trkpt lat="43.37764" lon="6.10849">
        <ele>276.39999389648</ele>
        <time>2016-09-28T13:51:57Z</time>
      </trkpt>
      <trkpt lat="43.37764" lon="6.10849">
        <ele>276.20001220703</ele>
        <time>2016-09-28T13:52:01Z</time>
      </trkpt>
      <trkpt lat="43.37764" lon="6.10849">
        <ele>276.20001220703</ele>
        <time>2016-09-28T13:52:02Z</time>
      </trkpt>
      <trkpt lat="43.37765" lon="6.10838">
        <ele>276</ele>
        <time>2016-09-28T13:52:12Z</time>
      </trkpt>
      <trkpt lat="43.37765" lon="6.10837">
        <ele>275.79998779297</ele>
        <time>2016-09-28T13:52:13Z</time>
      </trkpt>
      <trkpt lat="43.37764" lon="6.10837">
        <ele>275.79998779297</ele>
        <time>2016-09-28T13:52:18Z</time>
      </trkpt>
      <trkpt lat="43.37765" lon="6.10837">
        <ele>275.79998779297</ele>
        <time>2016-09-28T13:52:19Z</time>
      </trkpt>
      <trkpt lat="43.37765" lon="6.10837">
        <ele>275.60000610352</ele>
        <time>2016-09-28T13:52:20Z</time>
      </trkpt>
      <trkpt lat="43.37765" lon="6.10836">
        <ele>275.60000610352</ele>
        <time>2016-09-28T13:52:22Z</time>
      </trkpt>
      <trkpt lat="43.37764" lon="6.10836">
        <ele>275.60000610352</ele>
        <time>2016-09-28T13:52:23Z</time>
      </trkpt>
      <trkpt lat="43.37764" lon="6.10837">
        <ele>275.39999389648</ele>
        <time>2016-09-28T13:52:29Z</time>
      </trkpt>
      <trkpt lat="43.37764" lon="6.10838">
        <ele>275.39999389648</ele>
        <time>2016-09-28T13:52:30Z</time>
      </trkpt>
      <trkpt lat="43.37761" lon="6.1084">
        <ele>275.20001220703</ele>
        <time>2016-09-28T13:52:33Z</time>
      </trkpt>
      <trkpt lat="43.37759" lon="6.10841">
        <ele>275.20001220703</ele>
        <time>2016-09-28T13:52:35Z</time>
      </trkpt>
      <trkpt lat="43.37763" lon="6.10841">
        <ele>275.20001220703</ele>
        <time>2016-09-28T13:52:38Z</time>
      </trkpt>
      <trkpt lat="43.37765" lon="6.10841">
        <ele>275</ele>
        <time>2016-09-28T13:52:41Z</time>
      </trkpt>
      <trkpt lat="43.37766" lon="6.10841">
        <ele>275.20001220703</ele>
        <time>2016-09-28T13:52:42Z</time>
      </trkpt>
      <trkpt lat="43.37767" lon="6.10839">
        <ele>275.60000610352</ele>
        <time>2016-09-28T13:52:49Z</time>
      </trkpt>
      <trkpt lat="43.37767" lon="6.10838">
        <ele>275.39999389648</ele>
        <time>2016-09-28T13:52:51Z</time>
      </trkpt>
      <trkpt lat="43.37767" lon="6.10838">
        <ele>275.39999389648</ele>
        <time>2016-09-28T13:52:52Z</time>
      </trkpt>
      <trkpt lat="43.37767" lon="6.10837">
        <ele>275</ele>
        <time>2016-09-28T13:52:56Z</time>
      </trkpt>
      <trkpt lat="43.37767" lon="6.10837">
        <ele>275</ele>
        <time>2016-09-28T13:53:00Z</time>
      </trkpt>
      <trkpt lat="43.37768" lon="6.10834">
        <ele>274.79998779297</ele>
        <time>2016-09-28T13:53:09Z</time>
      </trkpt>
      <trkpt lat="43.37768" lon="6.10834">
        <ele>274.79998779297</ele>
        <time>2016-09-28T13:53:12Z</time>
      </trkpt>
      <trkpt lat="43.37768" lon="6.10834">
        <ele>275</ele>
        <time>2016-09-28T13:53:18Z</time>
      </trkpt>
      <trkpt lat="43.37768" lon="6.10834">
        <ele>274.79998779297</ele>
        <time>2016-09-28T13:53:22Z</time>
      </trkpt>
      <trkpt lat="43.37768" lon="6.10834">
        <ele>274.79998779297</ele>
        <time>2016-09-28T13:53:27Z</time>
      </trkpt>
      <trkpt lat="43.37768" lon="6.10834">
        <ele>274.79998779297</ele>
        <time>2016-09-28T13:53:32Z</time>
      </trkpt>
      <trkpt lat="43.37768" lon="6.10834">
        <ele>275</ele>
        <time>2016-09-28T13:53:52Z</time>
      </trkpt>
      <trkpt lat="43.37768" lon="6.10836">
        <ele>275.39999389648</ele>
        <time>2016-09-28T13:54:06Z</time>
      </trkpt>
      <trkpt lat="43.37767" lon="6.10837">
        <ele>275.39999389648</ele>
        <time>2016-09-28T13:54:12Z</time>
      </trkpt>
      <trkpt lat="43.37767" lon="6.10836">
        <ele>275.39999389648</ele>
        <time>2016-09-28T13:54:32Z</time>
      </trkpt>
      <trkpt lat="43.37767" lon="6.10836">
        <ele>275.39999389648</ele>
        <time>2016-09-28T13:54:42Z</time>
      </trkpt>
      <trkpt lat="43.37767" lon="6.10839">
        <ele>275.39999389648</ele>
        <time>2016-09-28T13:54:52Z</time>
      </trkpt>
      <trkpt lat="43.37767" lon="6.10838">
        <ele>275.39999389648</ele>
        <time>2016-09-28T13:55:01Z</time>
      </trkpt>
      <trkpt lat="43.37767" lon="6.10838">
        <ele>275.39999389648</ele>
        <time>2016-09-28T13:55:02Z</time>
      </trkpt>
      <trkpt lat="43.37767" lon="6.10838">
        <ele>275.39999389648</ele>
        <time>2016-09-28T13:55:08Z</time>
      </trkpt>
      <trkpt lat="43.37767" lon="6.10837">
        <ele>275.39999389648</ele>
        <time>2016-09-28T13:55:10Z</time>
      </trkpt>
      <trkpt lat="43.37767" lon="6.10837">
        <ele>275.39999389648</ele>
        <time>2016-09-28T13:55:12Z</time>
      </trkpt>
      <trkpt lat="43.37767" lon="6.10837">
        <ele>275.39999389648</ele>
        <time>2016-09-28T13:55:17Z</time>
      </trkpt>
      <trkpt lat="43.37767" lon="6.10837">
        <ele>275.39999389648</ele>
        <time>2016-09-28T13:55:22Z</time>
      </trkpt>
      <trkpt lat="43.37767" lon="6.10837">
        <ele>275.39999389648</ele>
        <time>2016-09-28T13:55:32Z</time>
      </trkpt>
      <trkpt lat="43.37767" lon="6.10837">
        <ele>275.39999389648</ele>
        <time>2016-09-28T13:55:42Z</time>
      </trkpt>
      <trkpt lat="43.37767" lon="6.10837">
        <ele>275.39999389648</ele>
        <time>2016-09-28T13:55:44Z</time>
      </trkpt>
      <trkpt lat="43.37766" lon="6.10813">
        <ele>275.20001220703</ele>
        <time>2016-09-28T13:55:52Z</time>
      </trkpt>
      <trkpt lat="43.37766" lon="6.10795">
        <ele>274.79998779297</ele>
        <time>2016-09-28T13:55:56Z</time>
      </trkpt>
      <trkpt lat="43.37772" lon="6.10776">
        <ele>273.79998779297</ele>
        <time>2016-09-28T13:56:00Z</time>
      </trkpt>
      <trkpt lat="43.37774" lon="6.10772">
        <ele>273.79998779297</ele>
        <time>2016-09-28T13:56:01Z</time>
      </trkpt>
      <trkpt lat="43.37792" lon="6.10753">
        <ele>274</ele>
        <time>2016-09-28T13:56:08Z</time>
      </trkpt>
      <trkpt lat="43.37806" lon="6.10762">
        <ele>273.79998779297</ele>
        <time>2016-09-28T13:56:12Z</time>
      </trkpt>
      <trkpt lat="43.3782" lon="6.10768">
        <ele>273.60000610352</ele>
        <time>2016-09-28T13:56:16Z</time>
      </trkpt>
      <trkpt lat="43.37846" lon="6.10767">
        <ele>273.20001220703</ele>
        <time>2016-09-28T13:56:22Z</time>
      </trkpt>
      <trkpt lat="43.37863" lon="6.1077">
        <ele>273.60000610352</ele>
        <time>2016-09-28T13:56:27Z</time>
      </trkpt>
      <trkpt lat="43.37881" lon="6.10764">
        <ele>273.60000610352</ele>
        <time>2016-09-28T13:56:32Z</time>
      </trkpt>
      <trkpt lat="43.37893" lon="6.10763">
        <ele>273.60000610352</ele>
        <time>2016-09-28T13:56:35Z</time>
      </trkpt>
      <trkpt lat="43.37909" lon="6.10763">
        <ele>274.20001220703</ele>
        <time>2016-09-28T13:56:39Z</time>
      </trkpt>
      <trkpt lat="43.37915" lon="6.10768">
        <ele>274.60000610352</ele>
        <time>2016-09-28T13:56:41Z</time>
      </trkpt>
      <trkpt lat="43.37917" lon="6.10772">
        <ele>274.79998779297</ele>
        <time>2016-09-28T13:56:42Z</time>
      </trkpt>
      <trkpt lat="43.37921" lon="6.10787">
        <ele>275.39999389648</ele>
        <time>2016-09-28T13:56:45Z</time>
      </trkpt>
      <trkpt lat="43.37925" lon="6.10796">
        <ele>275.79998779297</ele>
        <time>2016-09-28T13:56:47Z</time>
      </trkpt>
      <trkpt lat="43.37939" lon="6.10821">
        <ele>277</ele>
        <time>2016-09-28T13:56:55Z</time>
      </trkpt>
      <trkpt lat="43.37943" lon="6.10827">
        <ele>277.20001220703</ele>
        <time>2016-09-28T13:56:57Z</time>
      </trkpt>
      <trkpt lat="43.37951" lon="6.10839">
        <ele>277.60000610352</ele>
        <time>2016-09-28T13:57:01Z</time>
      </trkpt>
      <trkpt lat="43.37953" lon="6.10842">
        <ele>277.60000610352</ele>
        <time>2016-09-28T13:57:02Z</time>
      </trkpt>
      <trkpt lat="43.3796" lon="6.10851">
        <ele>278</ele>
        <time>2016-09-28T13:57:05Z</time>
      </trkpt>
      <trkpt lat="43.37975" lon="6.10867">
        <ele>279</ele>
        <time>2016-09-28T13:57:12Z</time>
      </trkpt>
      <trkpt lat="43.37976" lon="6.10868">
        <ele>279</ele>
        <time>2016-09-28T13:57:13Z</time>
      </trkpt>
      <trkpt lat="43.37987" lon="6.10876">
        <ele>280.20001220703</ele>
        <time>2016-09-28T13:57:18Z</time>
      </trkpt>
      <trkpt lat="43.37994" lon="6.10879">
        <ele>281</ele>
        <time>2016-09-28T13:57:22Z</time>
      </trkpt>
      <trkpt lat="43.37997" lon="6.10879">
        <ele>281.20001220703</ele>
        <time>2016-09-28T13:57:23Z</time>
      </trkpt>
      <trkpt lat="43.38001" lon="6.10879">
        <ele>281.60000610352</ele>
        <time>2016-09-28T13:57:25Z</time>
      </trkpt>
      <trkpt lat="43.38003" lon="6.10879">
        <ele>281.79998779297</ele>
        <time>2016-09-28T13:57:26Z</time>
      </trkpt>
      <trkpt lat="43.38006" lon="6.10879">
        <ele>282.39999389648</ele>
        <time>2016-09-28T13:57:28Z</time>
      </trkpt>
      <trkpt lat="43.38011" lon="6.1088">
        <ele>283.39999389648</ele>
        <time>2016-09-28T13:57:31Z</time>
      </trkpt>
      <trkpt lat="43.38012" lon="6.1088">
        <ele>283.39999389648</ele>
        <time>2016-09-28T13:57:32Z</time>
      </trkpt>
      <trkpt lat="43.38015" lon="6.10881">
        <ele>283.39999389648</ele>
        <time>2016-09-28T13:57:34Z</time>
      </trkpt>
      <trkpt lat="43.38029" lon="6.1089">
        <ele>284</ele>
        <time>2016-09-28T13:57:42Z</time>
      </trkpt>
      <trkpt lat="43.38041" lon="6.10896">
        <ele>284.60000610352</ele>
        <time>2016-09-28T13:57:48Z</time>
      </trkpt>
      <trkpt lat="43.38052" lon="6.10899">
        <ele>284.39999389648</ele>
        <time>2016-09-28T13:57:52Z</time>
      </trkpt>
      <trkpt lat="43.38063" lon="6.10903">
        <ele>284.20001220703</ele>
        <time>2016-09-28T13:57:56Z</time>
      </trkpt>
      <trkpt lat="43.38078" lon="6.1091">
        <ele>284.60000610352</ele>
        <time>2016-09-28T13:58:02Z</time>
      </trkpt>
      <trkpt lat="43.38089" lon="6.10907">
        <ele>284.39999389648</ele>
        <time>2016-09-28T13:58:07Z</time>
      </trkpt>
      <trkpt lat="43.38092" lon="6.10895">
        <ele>284.39999389648</ele>
        <time>2016-09-28T13:58:10Z</time>
      </trkpt>
      <trkpt lat="43.38093" lon="6.10886">
        <ele>284.39999389648</ele>
        <time>2016-09-28T13:58:12Z</time>
      </trkpt>
      <trkpt lat="43.381" lon="6.10878">
        <ele>284.20001220703</ele>
        <time>2016-09-28T13:58:15Z</time>
      </trkpt>
      <trkpt lat="43.38129" lon="6.10879">
        <ele>283.39999389648</ele>
        <time>2016-09-28T13:58:22Z</time>
      </trkpt>
      <trkpt lat="43.38143" lon="6.10878">
        <ele>283.20001220703</ele>
        <time>2016-09-28T13:58:25Z</time>
      </trkpt>
      <trkpt lat="43.38151" lon="6.10878">
        <ele>283.20001220703</ele>
        <time>2016-09-28T13:58:27Z</time>
      </trkpt>
      <trkpt lat="43.38154" lon="6.10879">
        <ele>283.20001220703</ele>
        <time>2016-09-28T13:58:28Z</time>
      </trkpt>
      <trkpt lat="43.38165" lon="6.10879">
        <ele>283.20001220703</ele>
        <time>2016-09-28T13:58:31Z</time>
      </trkpt>
      <trkpt lat="43.38169" lon="6.10879">
        <ele>283.39999389648</ele>
        <time>2016-09-28T13:58:32Z</time>
      </trkpt>
      <trkpt lat="43.38173" lon="6.10879">
        <ele>283.39999389648</ele>
        <time>2016-09-28T13:58:33Z</time>
      </trkpt>
      <trkpt lat="43.38191" lon="6.10879">
        <ele>282.39999389648</ele>
        <time>2016-09-28T13:58:38Z</time>
      </trkpt>
      <trkpt lat="43.38195" lon="6.10879">
        <ele>282</ele>
        <time>2016-09-28T13:58:42Z</time>
      </trkpt>
      <trkpt lat="43.38195" lon="6.10879">
        <ele>282.39999389648</ele>
        <time>2016-09-28T13:58:56Z</time>
      </trkpt>
      <trkpt lat="43.38195" lon="6.10879">
        <ele>282.20001220703</ele>
        <time>2016-09-28T13:59:12Z</time>
      </trkpt>
      <trkpt lat="43.38195" lon="6.10879">
        <ele>282.20001220703</ele>
        <time>2016-09-28T13:59:13Z</time>
      </trkpt>
      <trkpt lat="43.38195" lon="6.10879">
        <ele>282.20001220703</ele>
        <time>2016-09-28T13:59:15Z</time>
      </trkpt>
      <trkpt lat="43.38195" lon="6.10879">
        <ele>282.20001220703</ele>
        <time>2016-09-28T13:59:17Z</time>
      </trkpt>
      <trkpt lat="43.38195" lon="6.10879">
        <ele>283</ele>
        <time>2016-09-28T13:59:32Z</time>
      </trkpt>
      <trkpt lat="43.38195" lon="6.10879">
        <ele>282.60000610352</ele>
        <time>2016-09-28T13:59:39Z</time>
      </trkpt>
      <trkpt lat="43.38195" lon="6.1088">
        <ele>282.39999389648</ele>
        <time>2016-09-28T13:59:42Z</time>
      </trkpt>
      <trkpt lat="43.38196" lon="6.10881">
        <ele>282.20001220703</ele>
        <time>2016-09-28T13:59:43Z</time>
      </trkpt>
      <trkpt lat="43.38217" lon="6.10892">
        <ele>281.60000610352</ele>
        <time>2016-09-28T13:59:52Z</time>
      </trkpt>
      <trkpt lat="43.38235" lon="6.10896">
        <ele>281.39999389648</ele>
        <time>2016-09-28T13:59:57Z</time>
      </trkpt>
      <trkpt lat="43.38251" lon="6.10901">
        <ele>281.20001220703</ele>
        <time>2016-09-28T14:00:01Z</time>
      </trkpt>
      <trkpt lat="43.38293" lon="6.10913">
        <ele>281.60000610352</ele>
        <time>2016-09-28T14:00:12Z</time>
      </trkpt>
      <trkpt lat="43.38329" lon="6.10926">
        <ele>282</ele>
        <time>2016-09-28T14:00:22Z</time>
      </trkpt>
      <trkpt lat="43.38343" lon="6.1093">
        <ele>282.39999389648</ele>
        <time>2016-09-28T14:00:26Z</time>
      </trkpt>
      <trkpt lat="43.38356" lon="6.10935">
        <ele>282.60000610352</ele>
        <time>2016-09-28T14:00:30Z</time>
      </trkpt>
      <trkpt lat="43.38363" lon="6.10936">
        <ele>282.60000610352</ele>
        <time>2016-09-28T14:00:32Z</time>
      </trkpt>
      <trkpt lat="43.38383" lon="6.10941">
        <ele>283</ele>
        <time>2016-09-28T14:00:38Z</time>
      </trkpt>
      <trkpt lat="43.38397" lon="6.10945">
        <ele>283.39999389648</ele>
        <time>2016-09-28T14:00:42Z</time>
      </trkpt>
      <trkpt lat="43.38425" lon="6.10953">
        <ele>284</ele>
        <time>2016-09-28T14:00:50Z</time>
      </trkpt>
      <trkpt lat="43.38432" lon="6.10955">
        <ele>284.20001220703</ele>
        <time>2016-09-28T14:00:52Z</time>
      </trkpt>
      <trkpt lat="43.38439" lon="6.10956">
        <ele>284.39999389648</ele>
        <time>2016-09-28T14:00:54Z</time>
      </trkpt>
      <trkpt lat="43.38464" lon="6.10959">
        <ele>285.39999389648</ele>
        <time>2016-09-28T14:01:02Z</time>
      </trkpt>
      <trkpt lat="43.3848" lon="6.1096">
        <ele>286.20001220703</ele>
        <time>2016-09-28T14:01:12Z</time>
      </trkpt>
      <trkpt lat="43.38496" lon="6.10964">
        <ele>286.39999389648</ele>
        <time>2016-09-28T14:01:19Z</time>
      </trkpt>
      <trkpt lat="43.38503" lon="6.10965">
        <ele>287</ele>
        <time>2016-09-28T14:01:22Z</time>
      </trkpt>
      <trkpt lat="43.38508" lon="6.10967">
        <ele>287.60000610352</ele>
        <time>2016-09-28T14:01:24Z</time>
      </trkpt>
      <trkpt lat="43.38519" lon="6.10968">
        <ele>288.39999389648</ele>
        <time>2016-09-28T14:01:28Z</time>
      </trkpt>
      <trkpt lat="43.38522" lon="6.10969">
        <ele>288.79998779297</ele>
        <time>2016-09-28T14:01:29Z</time>
      </trkpt>
      <trkpt lat="43.38526" lon="6.1097">
        <ele>289.39999389648</ele>
        <time>2016-09-28T14:01:31Z</time>
      </trkpt>
      <trkpt lat="43.38528" lon="6.10971">
        <ele>289.60000610352</ele>
        <time>2016-09-28T14:01:32Z</time>
      </trkpt>
      <trkpt lat="43.3853" lon="6.10972">
        <ele>290</ele>
        <time>2016-09-28T14:01:33Z</time>
      </trkpt>
      <trkpt lat="43.38541" lon="6.10977">
        <ele>291</ele>
        <time>2016-09-28T14:01:38Z</time>
      </trkpt>
      <trkpt lat="43.3855" lon="6.10981">
        <ele>291.39999389648</ele>
        <time>2016-09-28T14:01:42Z</time>
      </trkpt>
      <trkpt lat="43.38563" lon="6.10988">
        <ele>292</ele>
        <time>2016-09-28T14:01:48Z</time>
      </trkpt>
      <trkpt lat="43.38572" lon="6.10988">
        <ele>292.79998779297</ele>
        <time>2016-09-28T14:01:52Z</time>
      </trkpt>
      <trkpt lat="43.38578" lon="6.10988">
        <ele>293</ele>
        <time>2016-09-28T14:01:55Z</time>
      </trkpt>
      <trkpt lat="43.38593" lon="6.10987">
        <ele>294</ele>
        <time>2016-09-28T14:02:02Z</time>
      </trkpt>
      <trkpt lat="43.38614" lon="6.1099">
        <ele>294.60000610352</ele>
        <time>2016-09-28T14:02:12Z</time>
      </trkpt>
      <trkpt lat="43.38623" lon="6.10997">
        <ele>295</ele>
        <time>2016-09-28T14:02:18Z</time>
      </trkpt>
      <trkpt lat="43.38627" lon="6.11">
        <ele>294.79998779297</ele>
        <time>2016-09-28T14:02:20Z</time>
      </trkpt>
      <trkpt lat="43.38633" lon="6.11005">
        <ele>294.60000610352</ele>
        <time>2016-09-28T14:02:22Z</time>
      </trkpt>
      <trkpt lat="43.38643" lon="6.11013">
        <ele>294</ele>
        <time>2016-09-28T14:02:25Z</time>
      </trkpt>
      <trkpt lat="43.38657" lon="6.11026">
        <ele>292.60000610352</ele>
        <time>2016-09-28T14:02:28Z</time>
      </trkpt>
      <trkpt lat="43.38668" lon="6.11035">
        <ele>291.20001220703</ele>
        <time>2016-09-28T14:02:30Z</time>
      </trkpt>
      <trkpt lat="43.3868" lon="6.11045">
        <ele>290</ele>
        <time>2016-09-28T14:02:32Z</time>
      </trkpt>
      <trkpt lat="43.38685" lon="6.1105">
        <ele>289.79998779297</ele>
        <time>2016-09-28T14:02:33Z</time>
      </trkpt>
      <trkpt lat="43.38696" lon="6.11059">
        <ele>289</ele>
        <time>2016-09-28T14:02:35Z</time>
      </trkpt>
      <trkpt lat="43.38707" lon="6.11066">
        <ele>288.79998779297</ele>
        <time>2016-09-28T14:02:39Z</time>
      </trkpt>
      <trkpt lat="43.38708" lon="6.11067">
        <ele>288.79998779297</ele>
        <time>2016-09-28T14:02:40Z</time>
      </trkpt>
      <trkpt lat="43.38708" lon="6.11068">
        <ele>289</ele>
        <time>2016-09-28T14:02:42Z</time>
      </trkpt>
      <trkpt lat="43.38708" lon="6.11068">
        <ele>289.39999389648</ele>
        <time>2016-09-28T14:02:47Z</time>
      </trkpt>
      <trkpt lat="43.38708" lon="6.11068">
        <ele>289.20001220703</ele>
        <time>2016-09-28T14:02:52Z</time>
      </trkpt>
      <trkpt lat="43.38708" lon="6.11068">
        <ele>289.20001220703</ele>
        <time>2016-09-28T14:03:15Z</time>
      </trkpt>
      <trkpt lat="43.38709" lon="6.11071">
        <ele>289.20001220703</ele>
        <time>2016-09-28T14:03:19Z</time>
      </trkpt>
      <trkpt lat="43.3871" lon="6.1108">
        <ele>289.20001220703</ele>
        <time>2016-09-28T14:03:22Z</time>
      </trkpt>
      <trkpt lat="43.38724" lon="6.11108">
        <ele>289.20001220703</ele>
        <time>2016-09-28T14:03:32Z</time>
      </trkpt>
      <trkpt lat="43.38753" lon="6.11116">
        <ele>289</ele>
        <time>2016-09-28T14:03:42Z</time>
      </trkpt>
      <trkpt lat="43.38784" lon="6.11128">
        <ele>288.20001220703</ele>
        <time>2016-09-28T14:03:52Z</time>
      </trkpt>
      <trkpt lat="43.38791" lon="6.11132">
        <ele>288</ele>
        <time>2016-09-28T14:03:54Z</time>
      </trkpt>
      <trkpt lat="43.38817" lon="6.11151">
        <ele>287.39999389648</ele>
        <time>2016-09-28T14:04:02Z</time>
      </trkpt>
      <trkpt lat="43.38839" lon="6.11164">
        <ele>287.20001220703</ele>
        <time>2016-09-28T14:04:08Z</time>
      </trkpt>
      <trkpt lat="43.38847" lon="6.11169">
        <ele>286.79998779297</ele>
        <time>2016-09-28T14:04:10Z</time>
      </trkpt>
      <trkpt lat="43.38857" lon="6.11172">
        <ele>286</ele>
        <time>2016-09-28T14:04:12Z</time>
      </trkpt>
      <trkpt lat="43.38861" lon="6.11174">
        <ele>285.60000610352</ele>
        <time>2016-09-28T14:04:13Z</time>
      </trkpt>
      <trkpt lat="43.38871" lon="6.11176">
        <ele>285.39999389648</ele>
        <time>2016-09-28T14:04:15Z</time>
      </trkpt>
      <trkpt lat="43.38893" lon="6.1118">
        <ele>284.60000610352</ele>
        <time>2016-09-28T14:04:19Z</time>
      </trkpt>
      <trkpt lat="43.38909" lon="6.11182">
        <ele>284.20001220703</ele>
        <time>2016-09-28T14:04:22Z</time>
      </trkpt>
      <trkpt lat="43.38948" lon="6.11193">
        <ele>284.79998779297</ele>
        <time>2016-09-28T14:04:32Z</time>
      </trkpt>
      <trkpt lat="43.3896" lon="6.11193">
        <ele>285.60000610352</ele>
        <time>2016-09-28T14:04:36Z</time>
      </trkpt>
      <trkpt lat="43.38964" lon="6.11192">
        <ele>286</ele>
        <time>2016-09-28T14:04:38Z</time>
      </trkpt>
      <trkpt lat="43.38968" lon="6.11192">
        <ele>286.60000610352</ele>
        <time>2016-09-28T14:04:40Z</time>
      </trkpt>
      <trkpt lat="43.3897" lon="6.11192">
        <ele>287</ele>
        <time>2016-09-28T14:04:41Z</time>
      </trkpt>
      <trkpt lat="43.38972" lon="6.11192">
        <ele>287.39999389648</ele>
        <time>2016-09-28T14:04:42Z</time>
      </trkpt>
      <trkpt lat="43.38975" lon="6.11192">
        <ele>288.20001220703</ele>
        <time>2016-09-28T14:04:44Z</time>
      </trkpt>
      <trkpt lat="43.38979" lon="6.11191">
        <ele>288.79998779297</ele>
        <time>2016-09-28T14:04:46Z</time>
      </trkpt>
      <trkpt lat="43.3898" lon="6.11191">
        <ele>289.20001220703</ele>
        <time>2016-09-28T14:04:47Z</time>
      </trkpt>
      <trkpt lat="43.38985" lon="6.1119">
        <ele>290</ele>
        <time>2016-09-28T14:04:50Z</time>
      </trkpt>
      <trkpt lat="43.38987" lon="6.1119">
        <ele>290.20001220703</ele>
        <time>2016-09-28T14:04:51Z</time>
      </trkpt>
      <trkpt lat="43.3899" lon="6.1119">
        <ele>290.39999389648</ele>
        <time>2016-09-28T14:04:52Z</time>
      </trkpt>
      <trkpt lat="43.38995" lon="6.1119">
        <ele>290.60000610352</ele>
        <time>2016-09-28T14:04:54Z</time>
      </trkpt>
      <trkpt lat="43.38999" lon="6.1119">
        <ele>291</ele>
        <time>2016-09-28T14:04:56Z</time>
      </trkpt>
      <trkpt lat="43.39001" lon="6.1119">
        <ele>291.39999389648</ele>
        <time>2016-09-28T14:04:57Z</time>
      </trkpt>
      <trkpt lat="43.39004" lon="6.1119">
        <ele>292</ele>
        <time>2016-09-28T14:04:59Z</time>
      </trkpt>
      <trkpt lat="43.3901" lon="6.11193">
        <ele>292.60000610352</ele>
        <time>2016-09-28T14:05:02Z</time>
      </trkpt>
      <trkpt lat="43.39021" lon="6.11199">
        <ele>293.60000610352</ele>
        <time>2016-09-28T14:05:09Z</time>
      </trkpt>
      <trkpt lat="43.39025" lon="6.11203">
        <ele>294</ele>
        <time>2016-09-28T14:05:12Z</time>
      </trkpt>
      <trkpt lat="43.39031" lon="6.11209">
        <ele>294.79998779297</ele>
        <time>2016-09-28T14:05:16Z</time>
      </trkpt>
      <trkpt lat="43.39036" lon="6.1122">
        <ele>295.79998779297</ele>
        <time>2016-09-28T14:05:22Z</time>
      </trkpt>
      <trkpt lat="43.39037" lon="6.11222">
        <ele>295.79998779297</ele>
        <time>2016-09-28T14:05:23Z</time>
      </trkpt>
      <trkpt lat="43.39044" lon="6.11238">
        <ele>296.20001220703</ele>
        <time>2016-09-28T14:05:32Z</time>
      </trkpt>
      <trkpt lat="43.39048" lon="6.11243">
        <ele>296.39999389648</ele>
        <time>2016-09-28T14:05:36Z</time>
      </trkpt>
      <trkpt lat="43.39058" lon="6.11258">
        <ele>296.60000610352</ele>
        <time>2016-09-28T14:05:45Z</time>
      </trkpt>
      <trkpt lat="43.39069" lon="6.11274">
        <ele>295.79998779297</ele>
        <time>2016-09-28T14:05:52Z</time>
      </trkpt>
      <trkpt lat="43.39077" lon="6.1129">
        <ele>295.20001220703</ele>
        <time>2016-09-28T14:05:59Z</time>
      </trkpt>
      <trkpt lat="43.39082" lon="6.11298">
        <ele>295</ele>
        <time>2016-09-28T14:06:02Z</time>
      </trkpt>
      <trkpt lat="43.39085" lon="6.11297">
        <ele>294.79998779297</ele>
        <time>2016-09-28T14:06:05Z</time>
      </trkpt>
      <trkpt lat="43.39086" lon="6.11297">
        <ele>294.60000610352</ele>
        <time>2016-09-28T14:06:12Z</time>
      </trkpt>
      <trkpt lat="43.39086" lon="6.11297">
        <ele>295</ele>
        <time>2016-09-28T14:06:16Z</time>
      </trkpt>
      <trkpt lat="43.39086" lon="6.11296">
        <ele>294.79998779297</ele>
        <time>2016-09-28T14:08:42Z</time>
      </trkpt>
      <trkpt lat="43.39086" lon="6.11296">
        <ele>294.79998779297</ele>
        <time>2016-09-28T14:09:02Z</time>
      </trkpt>
      <trkpt lat="43.39086" lon="6.11296">
        <ele>294.79998779297</ele>
        <time>2016-09-28T14:10:12Z</time>
      </trkpt>
      <trkpt lat="43.39087" lon="6.11296">
        <ele>294.79998779297</ele>
        <time>2016-09-28T14:10:18Z</time>
      </trkpt>
      <trkpt lat="43.39089" lon="6.11295">
        <ele>294.79998779297</ele>
        <time>2016-09-28T14:10:19Z</time>
      </trkpt>
      <trkpt lat="43.39092" lon="6.1129">
        <ele>293.79998779297</ele>
        <time>2016-09-28T14:10:21Z</time>
      </trkpt>
      <trkpt lat="43.39093" lon="6.11286">
        <ele>293.79998779297</ele>
        <time>2016-09-28T14:10:22Z</time>
      </trkpt>
      <trkpt lat="43.39096" lon="6.1128">
        <ele>293.20001220703</ele>
        <time>2016-09-28T14:10:24Z</time>
      </trkpt>
      <trkpt lat="43.39097" lon="6.11277">
        <ele>293.39999389648</ele>
        <time>2016-09-28T14:10:25Z</time>
      </trkpt>
      <trkpt lat="43.39097" lon="6.11275">
        <ele>293.39999389648</ele>
        <time>2016-09-28T14:10:26Z</time>
      </trkpt>
      <trkpt lat="43.39099" lon="6.11271">
        <ele>293.39999389648</ele>
        <time>2016-09-28T14:10:28Z</time>
      </trkpt>
      <trkpt lat="43.39101" lon="6.11267">
        <ele>293.60000610352</ele>
        <time>2016-09-28T14:10:30Z</time>
      </trkpt>
      <trkpt lat="43.39101" lon="6.11263">
        <ele>293.79998779297</ele>
        <time>2016-09-28T14:10:32Z</time>
      </trkpt>
      <trkpt lat="43.39102" lon="6.11249">
        <ele>294.39999389648</ele>
        <time>2016-09-28T14:10:38Z</time>
      </trkpt>
      <trkpt lat="43.39102" lon="6.11238">
        <ele>294.79998779297</ele>
        <time>2016-09-28T14:10:42Z</time>
      </trkpt>
      <trkpt lat="43.39103" lon="6.11234">
        <ele>294.79998779297</ele>
        <time>2016-09-28T14:10:43Z</time>
      </trkpt>
      <trkpt lat="43.39107" lon="6.11205">
        <ele>294.20001220703</ele>
        <time>2016-09-28T14:10:52Z</time>
      </trkpt>
      <trkpt lat="43.39108" lon="6.11185">
        <ele>293.60000610352</ele>
        <time>2016-09-28T14:10:56Z</time>
      </trkpt>
      <trkpt lat="43.39109" lon="6.11172">
        <ele>292.39999389648</ele>
        <time>2016-09-28T14:10:59Z</time>
      </trkpt>
      <trkpt lat="43.39113" lon="6.1117">
        <ele>291.39999389648</ele>
        <time>2016-09-28T14:11:02Z</time>
      </trkpt>
      <trkpt lat="43.39117" lon="6.11169">
        <ele>290.79998779297</ele>
        <time>2016-09-28T14:11:04Z</time>
      </trkpt>
      <trkpt lat="43.39121" lon="6.11167">
        <ele>290.20001220703</ele>
        <time>2016-09-28T14:11:06Z</time>
      </trkpt>
      <trkpt lat="43.39127" lon="6.11162">
        <ele>289.20001220703</ele>
        <time>2016-09-28T14:11:12Z</time>
      </trkpt>
      <trkpt lat="43.3913" lon="6.11161">
        <ele>289</ele>
        <time>2016-09-28T14:11:13Z</time>
      </trkpt>
      <trkpt lat="43.39138" lon="6.11146">
        <ele>288</ele>
        <time>2016-09-28T14:11:17Z</time>
      </trkpt>
      <trkpt lat="43.39139" lon="6.11135">
        <ele>287.60000610352</ele>
        <time>2016-09-28T14:11:19Z</time>
      </trkpt>
      <trkpt lat="43.3914" lon="6.11119">
        <ele>287</ele>
        <time>2016-09-28T14:11:22Z</time>
      </trkpt>
      <trkpt lat="43.39143" lon="6.11107">
        <ele>286.39999389648</ele>
        <time>2016-09-28T14:11:26Z</time>
      </trkpt>
      <trkpt lat="43.39143" lon="6.11107">
        <ele>286.39999389648</ele>
        <time>2016-09-28T14:11:27Z</time>
      </trkpt>
      <trkpt lat="43.39143" lon="6.11098">
        <ele>286.39999389648</ele>
        <time>2016-09-28T14:11:31Z</time>
      </trkpt>
      <trkpt lat="43.39143" lon="6.11095">
        <ele>286.39999389648</ele>
        <time>2016-09-28T14:11:32Z</time>
      </trkpt>
      <trkpt lat="43.39143" lon="6.11091">
        <ele>286.20001220703</ele>
        <time>2016-09-28T14:11:33Z</time>
      </trkpt>
      <trkpt lat="43.39147" lon="6.11071">
        <ele>285.79998779297</ele>
        <time>2016-09-28T14:11:38Z</time>
      </trkpt>
      <trkpt lat="43.39146" lon="6.11067">
        <ele>285.79998779297</ele>
        <time>2016-09-28T14:11:39Z</time>
      </trkpt>
      <trkpt lat="43.39146" lon="6.11063">
        <ele>285.79998779297</ele>
        <time>2016-09-28T14:11:40Z</time>
      </trkpt>
      <trkpt lat="43.39146" lon="6.11059">
        <ele>285.79998779297</ele>
        <time>2016-09-28T14:11:41Z</time>
      </trkpt>
      <trkpt lat="43.39146" lon="6.11055">
        <ele>285.60000610352</ele>
        <time>2016-09-28T14:11:42Z</time>
      </trkpt>
      <trkpt lat="43.39147" lon="6.11047">
        <ele>285.60000610352</ele>
        <time>2016-09-28T14:11:44Z</time>
      </trkpt>
      <trkpt lat="43.3915" lon="6.1102">
        <ele>285.20001220703</ele>
        <time>2016-09-28T14:11:50Z</time>
      </trkpt>
      <trkpt lat="43.3915" lon="6.11016">
        <ele>285.20001220703</ele>
        <time>2016-09-28T14:11:51Z</time>
      </trkpt>
      <trkpt lat="43.39149" lon="6.11011">
        <ele>285.20001220703</ele>
        <time>2016-09-28T14:11:52Z</time>
      </trkpt>
      <trkpt lat="43.3915" lon="6.10998">
        <ele>285.20001220703</ele>
        <time>2016-09-28T14:11:55Z</time>
      </trkpt>
      <trkpt lat="43.3916" lon="6.10977">
        <ele>285</ele>
        <time>2016-09-28T14:12:02Z</time>
      </trkpt>
      <trkpt lat="43.39172" lon="6.10959">
        <ele>283.79998779297</ele>
        <time>2016-09-28T14:12:07Z</time>
      </trkpt>
      <trkpt lat="43.39174" lon="6.10945">
        <ele>283.39999389648</ele>
        <time>2016-09-28T14:12:10Z</time>
      </trkpt>
      <trkpt lat="43.39178" lon="6.10937">
        <ele>283</ele>
        <time>2016-09-28T14:12:12Z</time>
      </trkpt>
      <trkpt lat="43.39186" lon="6.10928">
        <ele>282.39999389648</ele>
        <time>2016-09-28T14:12:15Z</time>
      </trkpt>
      <trkpt lat="43.39206" lon="6.10915">
        <ele>281.60000610352</ele>
        <time>2016-09-28T14:12:22Z</time>
      </trkpt>
      <trkpt lat="43.39209" lon="6.10911">
        <ele>281.39999389648</ele>
        <time>2016-09-28T14:12:24Z</time>
      </trkpt>
      <trkpt lat="43.39211" lon="6.10909">
        <ele>281.39999389648</ele>
        <time>2016-09-28T14:12:25Z</time>
      </trkpt>
      <trkpt lat="43.39218" lon="6.10902">
        <ele>281.20001220703</ele>
        <time>2016-09-28T14:12:28Z</time>
      </trkpt>
      <trkpt lat="43.39227" lon="6.10888">
        <ele>281.39999389648</ele>
        <time>2016-09-28T14:12:32Z</time>
      </trkpt>
      <trkpt lat="43.39231" lon="6.10858">
        <ele>281.79998779297</ele>
        <time>2016-09-28T14:12:38Z</time>
      </trkpt>
      <trkpt lat="43.39231" lon="6.10838">
        <ele>281.60000610352</ele>
        <time>2016-09-28T14:12:42Z</time>
      </trkpt>
      <trkpt lat="43.3923" lon="6.10828">
        <ele>281.39999389648</ele>
        <time>2016-09-28T14:12:44Z</time>
      </trkpt>
      <trkpt lat="43.39227" lon="6.10811">
        <ele>280.79998779297</ele>
        <time>2016-09-28T14:12:47Z</time>
      </trkpt>
      <trkpt lat="43.39226" lon="6.10805">
        <ele>280.20001220703</ele>
        <time>2016-09-28T14:12:48Z</time>
      </trkpt>
      <trkpt lat="43.39225" lon="6.10792">
        <ele>279.20001220703</ele>
        <time>2016-09-28T14:12:50Z</time>
      </trkpt>
      <trkpt lat="43.39224" lon="6.10786">
        <ele>279.20001220703</ele>
        <time>2016-09-28T14:12:51Z</time>
      </trkpt>
      <trkpt lat="43.39225" lon="6.1078">
        <ele>279</ele>
        <time>2016-09-28T14:12:52Z</time>
      </trkpt>
      <trkpt lat="43.39226" lon="6.10767">
        <ele>279.39999389648</ele>
        <time>2016-09-28T14:12:55Z</time>
      </trkpt>
      <trkpt lat="43.39224" lon="6.10752">
        <ele>280.20001220703</ele>
        <time>2016-09-28T14:13:00Z</time>
      </trkpt>
      <trkpt lat="43.39225" lon="6.10747">
        <ele>280.39999389648</ele>
        <time>2016-09-28T14:13:02Z</time>
      </trkpt>
      <trkpt lat="43.39229" lon="6.10739">
        <ele>281.20001220703</ele>
        <time>2016-09-28T14:13:11Z</time>
      </trkpt>
      <trkpt lat="43.39229" lon="6.10739">
        <ele>281.39999389648</ele>
        <time>2016-09-28T14:13:16Z</time>
      </trkpt>
      <trkpt lat="43.39229" lon="6.10739">
        <ele>281.20001220703</ele>
        <time>2016-09-28T14:13:42Z</time>
      </trkpt>
      <trkpt lat="43.39228" lon="6.10739">
        <ele>280.79998779297</ele>
        <time>2016-09-28T14:13:47Z</time>
      </trkpt>
      <trkpt lat="43.39228" lon="6.10739">
        <ele>280.79998779297</ele>
        <time>2016-09-28T14:14:02Z</time>
      </trkpt>
      <trkpt lat="43.39228" lon="6.10739">
        <ele>281</ele>
        <time>2016-09-28T14:14:26Z</time>
      </trkpt>
      <trkpt lat="43.39225" lon="6.10737">
        <ele>280.20001220703</ele>
        <time>2016-09-28T14:14:28Z</time>
      </trkpt>
      <trkpt lat="43.39222" lon="6.10734">
        <ele>279.39999389648</ele>
        <time>2016-09-28T14:14:29Z</time>
      </trkpt>
      <trkpt lat="43.39215" lon="6.10718">
        <ele>278.20001220703</ele>
        <time>2016-09-28T14:14:32Z</time>
      </trkpt>
      <trkpt lat="43.39209" lon="6.10709">
        <ele>278.20001220703</ele>
        <time>2016-09-28T14:14:34Z</time>
      </trkpt>
      <trkpt lat="43.39206" lon="6.10702">
        <ele>278.20001220703</ele>
        <time>2016-09-28T14:14:36Z</time>
      </trkpt>
      <trkpt lat="43.39206" lon="6.10694">
        <ele>278</ele>
        <time>2016-09-28T14:14:38Z</time>
      </trkpt>
      <trkpt lat="43.39209" lon="6.10685">
        <ele>277.60000610352</ele>
        <time>2016-09-28T14:14:40Z</time>
      </trkpt>
      <trkpt lat="43.39213" lon="6.10678">
        <ele>277</ele>
        <time>2016-09-28T14:14:42Z</time>
      </trkpt>
      <trkpt lat="43.39216" lon="6.10676">
        <ele>276.60000610352</ele>
        <time>2016-09-28T14:14:43Z</time>
      </trkpt>
      <trkpt lat="43.39225" lon="6.10678">
        <ele>276.20001220703</ele>
        <time>2016-09-28T14:14:45Z</time>
      </trkpt>
      <trkpt lat="43.39233" lon="6.10684">
        <ele>275.79998779297</ele>
        <time>2016-09-28T14:14:47Z</time>
      </trkpt>
      <trkpt lat="43.39248" lon="6.10694">
        <ele>275</ele>
        <time>2016-09-28T14:14:51Z</time>
      </trkpt>
      <trkpt lat="43.39252" lon="6.10697">
        <ele>275.20001220703</ele>
        <time>2016-09-28T14:14:52Z</time>
      </trkpt>
      <trkpt lat="43.39283" lon="6.10702">
        <ele>274.79998779297</ele>
        <time>2016-09-28T14:15:00Z</time>
      </trkpt>
      <trkpt lat="43.39291" lon="6.10698">
        <ele>274.60000610352</ele>
        <time>2016-09-28T14:15:02Z</time>
      </trkpt>
      <trkpt lat="43.39307" lon="6.10687">
        <ele>274.20001220703</ele>
        <time>2016-09-28T14:15:06Z</time>
      </trkpt>
      <trkpt lat="43.39318" lon="6.10658">
        <ele>274</ele>
        <time>2016-09-28T14:15:12Z</time>
      </trkpt>
      <trkpt lat="43.39318" lon="6.10653">
        <ele>273.79998779297</ele>
        <time>2016-09-28T14:15:13Z</time>
      </trkpt>
      <trkpt lat="43.39324" lon="6.10607">
        <ele>273.60000610352</ele>
        <time>2016-09-28T14:15:21Z</time>
      </trkpt>
      <trkpt lat="43.39331" lon="6.10592">
        <ele>272.79998779297</ele>
        <time>2016-09-28T14:15:24Z</time>
      </trkpt>
      <trkpt lat="43.39343" lon="6.10545">
        <ele>272.79998779297</ele>
        <time>2016-09-28T14:15:32Z</time>
      </trkpt>
      <trkpt lat="43.3935" lon="6.10529">
        <ele>272.79998779297</ele>
        <time>2016-09-28T14:15:35Z</time>
      </trkpt>
      <trkpt lat="43.3936" lon="6.10511">
        <ele>273.20001220703</ele>
        <time>2016-09-28T14:15:39Z</time>
      </trkpt>
      <trkpt lat="43.39368" lon="6.10497">
        <ele>273</ele>
        <time>2016-09-28T14:15:42Z</time>
      </trkpt>
      <trkpt lat="43.39381" lon="6.10479">
        <ele>271.79998779297</ele>
        <time>2016-09-28T14:15:46Z</time>
      </trkpt>
      <trkpt lat="43.39388" lon="6.10471">
        <ele>271.79998779297</ele>
        <time>2016-09-28T14:15:48Z</time>
      </trkpt>
      <trkpt lat="43.394" lon="6.1046">
        <ele>271.79998779297</ele>
        <time>2016-09-28T14:15:52Z</time>
      </trkpt>
      <trkpt lat="43.39419" lon="6.10425">
        <ele>271.60000610352</ele>
        <time>2016-09-28T14:16:02Z</time>
      </trkpt>
      <trkpt lat="43.39418" lon="6.10415">
        <ele>270.79998779297</ele>
        <time>2016-09-28T14:16:08Z</time>
      </trkpt>
      <trkpt lat="43.39416" lon="6.10414">
        <ele>270.39999389648</ele>
        <time>2016-09-28T14:16:10Z</time>
      </trkpt>
      <trkpt lat="43.39415" lon="6.10414">
        <ele>270.39999389648</ele>
        <time>2016-09-28T14:16:11Z</time>
      </trkpt>
      <trkpt lat="43.39415" lon="6.10414">
        <ele>270.39999389648</ele>
        <time>2016-09-28T14:16:12Z</time>
      </trkpt>
      <trkpt lat="43.39415" lon="6.10413">
        <ele>270.20001220703</ele>
        <time>2016-09-28T14:16:16Z</time>
      </trkpt>
      <trkpt lat="43.39415" lon="6.10413">
        <ele>270.20001220703</ele>
        <time>2016-09-28T14:16:27Z</time>
      </trkpt>
      <trkpt lat="43.39415" lon="6.10413">
        <ele>270.20001220703</ele>
        <time>2016-09-28T14:16:32Z</time>
      </trkpt>
      <trkpt lat="43.39413" lon="6.10414">
        <ele>270.20001220703</ele>
        <time>2016-09-28T14:16:36Z</time>
      </trkpt>
      <trkpt lat="43.39411" lon="6.10415">
        <ele>270</ele>
        <time>2016-09-28T14:16:38Z</time>
      </trkpt>
      <trkpt lat="43.39409" lon="6.10413">
        <ele>270</ele>
        <time>2016-09-28T14:16:40Z</time>
      </trkpt>
      <trkpt lat="43.39407" lon="6.10412">
        <ele>270</ele>
        <time>2016-09-28T14:16:42Z</time>
      </trkpt>
      <trkpt lat="43.39404" lon="6.10404">
        <ele>270</ele>
        <time>2016-09-28T14:16:48Z</time>
      </trkpt>
      <trkpt lat="43.39405" lon="6.104">
        <ele>269.79998779297</ele>
        <time>2016-09-28T14:16:50Z</time>
      </trkpt>
      <trkpt lat="43.39407" lon="6.10394">
        <ele>269.79998779297</ele>
        <time>2016-09-28T14:16:52Z</time>
      </trkpt>
      <trkpt lat="43.39408" lon="6.1039">
        <ele>269.79998779297</ele>
        <time>2016-09-28T14:16:53Z</time>
      </trkpt>
      <trkpt lat="43.39416" lon="6.10365">
        <ele>270.39999389648</ele>
        <time>2016-09-28T14:17:02Z</time>
      </trkpt>
      <trkpt lat="43.39426" lon="6.10329">
        <ele>270.79998779297</ele>
        <time>2016-09-28T14:17:11Z</time>
      </trkpt>
      <trkpt lat="43.39428" lon="6.10325">
        <ele>270.79998779297</ele>
        <time>2016-09-28T14:17:12Z</time>
      </trkpt>
      <trkpt lat="43.39434" lon="6.10299">
        <ele>270.39999389648</ele>
        <time>2016-09-28T14:17:18Z</time>
      </trkpt>
      <trkpt lat="43.39443" lon="6.1029">
        <ele>270</ele>
        <time>2016-09-28T14:17:22Z</time>
      </trkpt>
      <trkpt lat="43.39452" lon="6.10283">
        <ele>269.60000610352</ele>
        <time>2016-09-28T14:17:25Z</time>
      </trkpt>
      <trkpt lat="43.39466" lon="6.10269">
        <ele>268.60000610352</ele>
        <time>2016-09-28T14:17:29Z</time>
      </trkpt>
      <trkpt lat="43.39476" lon="6.10258">
        <ele>267.79998779297</ele>
        <time>2016-09-28T14:17:32Z</time>
      </trkpt>
      <trkpt lat="43.39479" lon="6.10254">
        <ele>267.79998779297</ele>
        <time>2016-09-28T14:17:33Z</time>
      </trkpt>
      <trkpt lat="43.39489" lon="6.10233">
        <ele>267.39999389648</ele>
        <time>2016-09-28T14:17:37Z</time>
      </trkpt>
      <trkpt lat="43.39499" lon="6.10209">
        <ele>266.39999389648</ele>
        <time>2016-09-28T14:17:41Z</time>
      </trkpt>
      <trkpt lat="43.39501" lon="6.10203">
        <ele>266.39999389648</ele>
        <time>2016-09-28T14:17:42Z</time>
      </trkpt>
      <trkpt lat="43.39504" lon="6.1019">
        <ele>266</ele>
        <time>2016-09-28T14:17:44Z</time>
      </trkpt>
      <trkpt lat="43.39507" lon="6.10177">
        <ele>266</ele>
        <time>2016-09-28T14:17:46Z</time>
      </trkpt>
      <trkpt lat="43.39513" lon="6.10156">
        <ele>265.20001220703</ele>
        <time>2016-09-28T14:17:49Z</time>
      </trkpt>
      <trkpt lat="43.39518" lon="6.10135">
        <ele>264.39999389648</ele>
        <time>2016-09-28T14:17:52Z</time>
      </trkpt>
      <trkpt lat="43.39523" lon="6.10114">
        <ele>264.20001220703</ele>
        <time>2016-09-28T14:17:55Z</time>
      </trkpt>
      <trkpt lat="43.39528" lon="6.10103">
        <ele>264</ele>
        <time>2016-09-28T14:17:57Z</time>
      </trkpt>
      <trkpt lat="43.3953" lon="6.10098">
        <ele>263.79998779297</ele>
        <time>2016-09-28T14:17:58Z</time>
      </trkpt>
      <trkpt lat="43.39536" lon="6.10089">
        <ele>263.39999389648</ele>
        <time>2016-09-28T14:18:00Z</time>
      </trkpt>
      <trkpt lat="43.39539" lon="6.10083">
        <ele>263</ele>
        <time>2016-09-28T14:18:01Z</time>
      </trkpt>
      <trkpt lat="43.3954" lon="6.10076">
        <ele>262.79998779297</ele>
        <time>2016-09-28T14:18:02Z</time>
      </trkpt>
      <trkpt lat="43.3955" lon="6.10033">
        <ele>261.79998779297</ele>
        <time>2016-09-28T14:18:08Z</time>
      </trkpt>
      <trkpt lat="43.39552" lon="6.10011">
        <ele>261.60000610352</ele>
        <time>2016-09-28T14:18:11Z</time>
      </trkpt>
      <trkpt lat="43.3955" lon="6.10005">
        <ele>261.60000610352</ele>
        <time>2016-09-28T14:18:12Z</time>
      </trkpt>
      <trkpt lat="43.39553" lon="6.09951">
        <ele>262.60000610352</ele>
        <time>2016-09-28T14:18:22Z</time>
      </trkpt>
      <trkpt lat="43.3955" lon="6.09934">
        <ele>263</ele>
        <time>2016-09-28T14:18:26Z</time>
      </trkpt>
      <trkpt lat="43.3955" lon="6.09931">
        <ele>264.20001220703</ele>
        <time>2016-09-28T14:18:30Z</time>
      </trkpt>
      <trkpt lat="43.3955" lon="6.0993">
        <ele>264.39999389648</ele>
        <time>2016-09-28T14:18:32Z</time>
      </trkpt>
      <trkpt lat="43.3955" lon="6.0993">
        <ele>265</ele>
        <time>2016-09-28T14:18:42Z</time>
      </trkpt>
      <trkpt lat="43.3955" lon="6.0993">
        <ele>265</ele>
        <time>2016-09-28T14:19:02Z</time>
      </trkpt>
      <trkpt lat="43.3955" lon="6.0993">
        <ele>265</ele>
        <time>2016-09-28T14:19:19Z</time>
      </trkpt>
      <trkpt lat="43.3955" lon="6.09928">
        <ele>265.20001220703</ele>
        <time>2016-09-28T14:19:22Z</time>
      </trkpt>
      <trkpt lat="43.39549" lon="6.09927">
        <ele>265.39999389648</ele>
        <time>2016-09-28T14:19:24Z</time>
      </trkpt>
      <trkpt lat="43.39549" lon="6.09927">
        <ele>265.39999389648</ele>
        <time>2016-09-28T14:19:25Z</time>
      </trkpt>
      <trkpt lat="43.39549" lon="6.09926">
        <ele>266.20001220703</ele>
        <time>2016-09-28T14:19:32Z</time>
      </trkpt>
      <trkpt lat="43.39549" lon="6.09926">
        <ele>266.20001220703</ele>
        <time>2016-09-28T14:19:33Z</time>
      </trkpt>
      <trkpt lat="43.39548" lon="6.09925">
        <ele>266.20001220703</ele>
        <time>2016-09-28T14:19:35Z</time>
      </trkpt>
      <trkpt lat="43.39548" lon="6.09925">
        <ele>266</ele>
        <time>2016-09-28T14:19:42Z</time>
      </trkpt>
      <trkpt lat="43.39548" lon="6.09915">
        <ele>266.39999389648</ele>
        <time>2016-09-28T14:19:48Z</time>
      </trkpt>
      <trkpt lat="43.39552" lon="6.09899">
        <ele>266.60000610352</ele>
        <time>2016-09-28T14:19:52Z</time>
      </trkpt>
      <trkpt lat="43.3956" lon="6.09846">
        <ele>266.39999389648</ele>
        <time>2016-09-28T14:20:02Z</time>
      </trkpt>
      <trkpt lat="43.39569" lon="6.09794">
        <ele>266.20001220703</ele>
        <time>2016-09-28T14:20:12Z</time>
      </trkpt>
      <trkpt lat="43.39572" lon="6.09775">
        <ele>266.60000610352</ele>
        <time>2016-09-28T14:20:16Z</time>
      </trkpt>
      <trkpt lat="43.39581" lon="6.09743">
        <ele>266.39999389648</ele>
        <time>2016-09-28T14:20:22Z</time>
      </trkpt>
      <trkpt lat="43.39589" lon="6.09714">
        <ele>266.39999389648</ele>
        <time>2016-09-28T14:20:27Z</time>
      </trkpt>
      <trkpt lat="43.39594" lon="6.0969">
        <ele>266.20001220703</ele>
        <time>2016-09-28T14:20:31Z</time>
      </trkpt>
      <trkpt lat="43.39596" lon="6.09685">
        <ele>266.20001220703</ele>
        <time>2016-09-28T14:20:32Z</time>
      </trkpt>
      <trkpt lat="43.39602" lon="6.09659">
        <ele>266.39999389648</ele>
        <time>2016-09-28T14:20:37Z</time>
      </trkpt>
      <trkpt lat="43.39608" lon="6.09634">
        <ele>266.39999389648</ele>
        <time>2016-09-28T14:20:42Z</time>
      </trkpt>
      <trkpt lat="43.39618" lon="6.09584">
        <ele>266.60000610352</ele>
        <time>2016-09-28T14:20:52Z</time>
      </trkpt>
      <trkpt lat="43.39618" lon="6.09584">
        <ele>266.79998779297</ele>
        <time>2016-09-28T14:21:00Z</time>
      </trkpt>
      <trkpt lat="43.39618" lon="6.09584">
        <ele>266.60000610352</ele>
        <time>2016-09-28T14:21:02Z</time>
      </trkpt>
      <trkpt lat="43.39619" lon="6.09585">
        <ele>266.60000610352</ele>
        <time>2016-09-28T14:21:12Z</time>
      </trkpt>
      <trkpt lat="43.39619" lon="6.09585">
        <ele>267.20001220703</ele>
        <time>2016-09-28T14:21:22Z</time>
      </trkpt>
      <trkpt lat="43.3962" lon="6.09583">
        <ele>267</ele>
        <time>2016-09-28T14:21:32Z</time>
      </trkpt>
      <trkpt lat="43.39625" lon="6.09567">
        <ele>266.20001220703</ele>
        <time>2016-09-28T14:21:36Z</time>
      </trkpt>
      <trkpt lat="43.39626" lon="6.09561">
        <ele>266</ele>
        <time>2016-09-28T14:21:37Z</time>
      </trkpt>
      <trkpt lat="43.39628" lon="6.09555">
        <ele>265.60000610352</ele>
        <time>2016-09-28T14:21:38Z</time>
      </trkpt>
      <trkpt lat="43.39631" lon="6.09549">
        <ele>265.20001220703</ele>
        <time>2016-09-28T14:21:39Z</time>
      </trkpt>
      <trkpt lat="43.39643" lon="6.09532">
        <ele>264.20001220703</ele>
        <time>2016-09-28T14:21:42Z</time>
      </trkpt>
      <trkpt lat="43.39648" lon="6.09526">
        <ele>263.79998779297</ele>
        <time>2016-09-28T14:21:43Z</time>
      </trkpt>
      <trkpt lat="43.39661" lon="6.09503">
        <ele>262.60000610352</ele>
        <time>2016-09-28T14:21:46Z</time>
      </trkpt>
      <trkpt lat="43.39669" lon="6.09484">
        <ele>260.39999389648</ele>
        <time>2016-09-28T14:21:48Z</time>
      </trkpt>
      <trkpt lat="43.39672" lon="6.09476">
        <ele>259.20001220703</ele>
        <time>2016-09-28T14:21:49Z</time>
      </trkpt>
      <trkpt lat="43.39675" lon="6.09464">
        <ele>257.79998779297</ele>
        <time>2016-09-28T14:21:51Z</time>
      </trkpt>
      <trkpt lat="43.39675" lon="6.0946">
        <ele>257.39999389648</ele>
        <time>2016-09-28T14:21:52Z</time>
      </trkpt>
      <trkpt lat="43.39678" lon="6.09457">
        <ele>256.79998779297</ele>
        <time>2016-09-28T14:21:55Z</time>
      </trkpt>
      <trkpt lat="43.3968" lon="6.09458">
        <ele>256.60000610352</ele>
        <time>2016-09-28T14:21:57Z</time>
      </trkpt>
      <trkpt lat="43.39687" lon="6.0946">
        <ele>256.20001220703</ele>
        <time>2016-09-28T14:21:59Z</time>
      </trkpt>
      <trkpt lat="43.39692" lon="6.0946">
        <ele>255.60000610352</ele>
        <time>2016-09-28T14:22:00Z</time>
      </trkpt>
      <trkpt lat="43.39697" lon="6.0946">
        <ele>254.60000610352</ele>
        <time>2016-09-28T14:22:01Z</time>
      </trkpt>
      <trkpt lat="43.397" lon="6.09458">
        <ele>253.39999389648</ele>
        <time>2016-09-28T14:22:02Z</time>
      </trkpt>
      <trkpt lat="43.397" lon="6.09455">
        <ele>252.60000610352</ele>
        <time>2016-09-28T14:22:03Z</time>
      </trkpt>
      <trkpt lat="43.397" lon="6.09455">
        <ele>252.19999694824</ele>
        <time>2016-09-28T14:22:04Z</time>
      </trkpt>
      <trkpt lat="43.397" lon="6.09455">
        <ele>251.80000305176</ele>
        <time>2016-09-28T14:22:08Z</time>
      </trkpt>
      <trkpt lat="43.39701" lon="6.09452">
        <ele>252</ele>
        <time>2016-09-28T14:22:12Z</time>
      </trkpt>
      <trkpt lat="43.39711" lon="6.09432">
        <ele>251.80000305176</ele>
        <time>2016-09-28T14:22:22Z</time>
      </trkpt>
      <trkpt lat="43.39729" lon="6.09405">
        <ele>251.19999694824</ele>
        <time>2016-09-28T14:22:32Z</time>
      </trkpt>
      <trkpt lat="43.39731" lon="6.09402">
        <ele>251.19999694824</ele>
        <time>2016-09-28T14:22:33Z</time>
      </trkpt>
      <trkpt lat="43.39753" lon="6.09365">
        <ele>250.39999389648</ele>
        <time>2016-09-28T14:22:42Z</time>
      </trkpt>
      <trkpt lat="43.39778" lon="6.09316">
        <ele>250</ele>
        <time>2016-09-28T14:22:52Z</time>
      </trkpt>
      <trkpt lat="43.39791" lon="6.09264">
        <ele>250</ele>
        <time>2016-09-28T14:23:02Z</time>
      </trkpt>
      <trkpt lat="43.398" lon="6.0921">
        <ele>250.80000305176</ele>
        <time>2016-09-28T14:23:12Z</time>
      </trkpt>
      <trkpt lat="43.39801" lon="6.09168">
        <ele>251.19999694824</ele>
        <time>2016-09-28T14:23:20Z</time>
      </trkpt>
      <trkpt lat="43.39801" lon="6.09158">
        <ele>251.60000610352</ele>
        <time>2016-09-28T14:23:22Z</time>
      </trkpt>
      <trkpt lat="43.39803" lon="6.09145">
        <ele>252.19999694824</ele>
        <time>2016-09-28T14:23:25Z</time>
      </trkpt>
      <trkpt lat="43.39804" lon="6.0914">
        <ele>252.39999389648</ele>
        <time>2016-09-28T14:23:26Z</time>
      </trkpt>
      <trkpt lat="43.39809" lon="6.09115">
        <ele>252.60000610352</ele>
        <time>2016-09-28T14:23:31Z</time>
      </trkpt>
      <trkpt lat="43.39815" lon="6.0909">
        <ele>253.39999389648</ele>
        <time>2016-09-28T14:23:37Z</time>
      </trkpt>
      <trkpt lat="43.39822" lon="6.09069">
        <ele>253.60000610352</ele>
        <time>2016-09-28T14:23:42Z</time>
      </trkpt>
      <trkpt lat="43.39824" lon="6.09063">
        <ele>253.60000610352</ele>
        <time>2016-09-28T14:23:43Z</time>
      </trkpt>
      <trkpt lat="43.39842" lon="6.09038">
        <ele>252.80000305176</ele>
        <time>2016-09-28T14:23:48Z</time>
      </trkpt>
      <trkpt lat="43.39846" lon="6.09033">
        <ele>252.39999389648</ele>
        <time>2016-09-28T14:23:49Z</time>
      </trkpt>
      <trkpt lat="43.39851" lon="6.09029">
        <ele>252</ele>
        <time>2016-09-28T14:23:50Z</time>
      </trkpt>
      <trkpt lat="43.39862" lon="6.0902">
        <ele>251.39999389648</ele>
        <time>2016-09-28T14:23:52Z</time>
      </trkpt>
      <trkpt lat="43.39866" lon="6.09014">
        <ele>251</ele>
        <time>2016-09-28T14:23:53Z</time>
      </trkpt>
      <trkpt lat="43.39876" lon="6.08998">
        <ele>250.60000610352</ele>
        <time>2016-09-28T14:23:56Z</time>
      </trkpt>
      <trkpt lat="43.39884" lon="6.08991">
        <ele>250.19999694824</ele>
        <time>2016-09-28T14:23:58Z</time>
      </trkpt>
      <trkpt lat="43.39889" lon="6.08989">
        <ele>249.80000305176</ele>
        <time>2016-09-28T14:23:59Z</time>
      </trkpt>
      <trkpt lat="43.399" lon="6.08985">
        <ele>249.39999389648</ele>
        <time>2016-09-28T14:24:01Z</time>
      </trkpt>
      <trkpt lat="43.39907" lon="6.08984">
        <ele>249.19999694824</ele>
        <time>2016-09-28T14:24:02Z</time>
      </trkpt>
      <trkpt lat="43.3992" lon="6.08982">
        <ele>248.80000305176</ele>
        <time>2016-09-28T14:24:04Z</time>
      </trkpt>
      <trkpt lat="43.39948" lon="6.08977">
        <ele>247.80000305176</ele>
        <time>2016-09-28T14:24:08Z</time>
      </trkpt>
      <trkpt lat="43.39964" lon="6.08974">
        <ele>246.80000305176</ele>
        <time>2016-09-28T14:24:10Z</time>
      </trkpt>
      <trkpt lat="43.39979" lon="6.08972">
        <ele>246.39999389648</ele>
        <time>2016-09-28T14:24:12Z</time>
      </trkpt>
      <trkpt lat="43.40013" lon="6.08964">
        <ele>246</ele>
        <time>2016-09-28T14:24:17Z</time>
      </trkpt>
      <trkpt lat="43.40018" lon="6.08959">
        <ele>246</ele>
        <time>2016-09-28T14:24:18Z</time>
      </trkpt>
      <trkpt lat="43.40029" lon="6.08949">
        <ele>245.80000305176</ele>
        <time>2016-09-28T14:24:20Z</time>
      </trkpt>
      <trkpt lat="43.40034" lon="6.08935">
        <ele>245.80000305176</ele>
        <time>2016-09-28T14:24:22Z</time>
      </trkpt>
      <trkpt lat="43.40039" lon="6.0892">
        <ele>245.60000610352</ele>
        <time>2016-09-28T14:24:24Z</time>
      </trkpt>
      <trkpt lat="43.40042" lon="6.08904">
        <ele>245.19999694824</ele>
        <time>2016-09-28T14:24:26Z</time>
      </trkpt>
      <trkpt lat="43.40054" lon="6.08852">
        <ele>245.19999694824</ele>
        <time>2016-09-28T14:24:32Z</time>
      </trkpt>
      <trkpt lat="43.40057" lon="6.08843">
        <ele>245.19999694824</ele>
        <time>2016-09-28T14:24:33Z</time>
      </trkpt>
      <trkpt lat="43.40072" lon="6.08798">
        <ele>244.80000305176</ele>
        <time>2016-09-28T14:24:39Z</time>
      </trkpt>
      <trkpt lat="43.4008" lon="6.0878">
        <ele>244.60000610352</ele>
        <time>2016-09-28T14:24:42Z</time>
      </trkpt>
      <trkpt lat="43.40099" lon="6.08717">
        <ele>245</ele>
        <time>2016-09-28T14:24:52Z</time>
      </trkpt>
      <trkpt lat="43.40101" lon="6.08678">
        <ele>244.80000305176</ele>
        <time>2016-09-28T14:24:58Z</time>
      </trkpt>
      <trkpt lat="43.40099" lon="6.08664">
        <ele>244</ele>
        <time>2016-09-28T14:25:00Z</time>
      </trkpt>
      <trkpt lat="43.40097" lon="6.08649">
        <ele>242.80000305176</ele>
        <time>2016-09-28T14:25:02Z</time>
      </trkpt>
      <trkpt lat="43.40101" lon="6.08635">
        <ele>242.19999694824</ele>
        <time>2016-09-28T14:25:04Z</time>
      </trkpt>
      <trkpt lat="43.40109" lon="6.08624">
        <ele>242</ele>
        <time>2016-09-28T14:25:06Z</time>
      </trkpt>
      <trkpt lat="43.40137" lon="6.08599">
        <ele>241.19999694824</ele>
        <time>2016-09-28T14:25:12Z</time>
      </trkpt>
      <trkpt lat="43.40164" lon="6.08579">
        <ele>241</ele>
        <time>2016-09-28T14:25:18Z</time>
      </trkpt>
      <trkpt lat="43.40171" lon="6.08566">
        <ele>241.19999694824</ele>
        <time>2016-09-28T14:25:20Z</time>
      </trkpt>
      <trkpt lat="43.40171" lon="6.08553">
        <ele>241</ele>
        <time>2016-09-28T14:25:22Z</time>
      </trkpt>
      <trkpt lat="43.4017" lon="6.08523">
        <ele>241.39999389648</ele>
        <time>2016-09-28T14:25:28Z</time>
      </trkpt>
      <trkpt lat="43.40172" lon="6.08501">
        <ele>241.60000610352</ele>
        <time>2016-09-28T14:25:32Z</time>
      </trkpt>
      <trkpt lat="43.40176" lon="6.08463">
        <ele>242</ele>
        <time>2016-09-28T14:25:39Z</time>
      </trkpt>
      <trkpt lat="43.40179" lon="6.08445">
        <ele>242.19999694824</ele>
        <time>2016-09-28T14:25:42Z</time>
      </trkpt>
      <trkpt lat="43.40181" lon="6.08405">
        <ele>242.60000610352</ele>
        <time>2016-09-28T14:25:49Z</time>
      </trkpt>
      <trkpt lat="43.40182" lon="6.08386">
        <ele>242.19999694824</ele>
        <time>2016-09-28T14:25:52Z</time>
      </trkpt>
      <trkpt lat="43.40185" lon="6.08336">
        <ele>241.39999389648</ele>
        <time>2016-09-28T14:26:00Z</time>
      </trkpt>
      <trkpt lat="43.40185" lon="6.08324">
        <ele>241.19999694824</ele>
        <time>2016-09-28T14:26:02Z</time>
      </trkpt>
      <trkpt lat="43.40189" lon="6.08286">
        <ele>241.19999694824</ele>
        <time>2016-09-28T14:26:09Z</time>
      </trkpt>
      <trkpt lat="43.40189" lon="6.08272">
        <ele>241</ele>
        <time>2016-09-28T14:26:12Z</time>
      </trkpt>
      <trkpt lat="43.40189" lon="6.08259">
        <ele>240.80000305176</ele>
        <time>2016-09-28T14:26:22Z</time>
      </trkpt>
      <trkpt lat="43.40189" lon="6.08259">
        <ele>240.60000610352</ele>
        <time>2016-09-28T14:26:42Z</time>
      </trkpt>
      <trkpt lat="43.4019" lon="6.08259">
        <ele>240.80000305176</ele>
        <time>2016-09-28T14:26:52Z</time>
      </trkpt>
      <trkpt lat="43.4019" lon="6.08259">
        <ele>240.60000610352</ele>
        <time>2016-09-28T14:27:12Z</time>
      </trkpt>
      <trkpt lat="43.4019" lon="6.08259">
        <ele>240.80000305176</ele>
        <time>2016-09-28T14:27:32Z</time>
      </trkpt>
      <trkpt lat="43.40188" lon="6.0826">
        <ele>240.80000305176</ele>
        <time>2016-09-28T14:27:42Z</time>
      </trkpt>
      <trkpt lat="43.40187" lon="6.08262">
        <ele>240.80000305176</ele>
        <time>2016-09-28T14:27:52Z</time>
      </trkpt>
      <trkpt lat="43.40184" lon="6.08259">
        <ele>240.80000305176</ele>
        <time>2016-09-28T14:28:02Z</time>
      </trkpt>
      <trkpt lat="43.40179" lon="6.08239">
        <ele>240.80000305176</ele>
        <time>2016-09-28T14:28:12Z</time>
      </trkpt>
      <trkpt lat="43.40179" lon="6.08239">
        <ele>240.80000305176</ele>
        <time>2016-09-28T14:28:20Z</time>
      </trkpt>
      <trkpt lat="43.40182" lon="6.08238">
        <ele>240.60000610352</ele>
        <time>2016-09-28T14:28:22Z</time>
      </trkpt>
      <trkpt lat="43.40186" lon="6.08247">
        <ele>240.19999694824</ele>
        <time>2016-09-28T14:28:27Z</time>
      </trkpt>
      <trkpt lat="43.40186" lon="6.08261">
        <ele>240.60000610352</ele>
        <time>2016-09-28T14:28:32Z</time>
      </trkpt>
      <trkpt lat="43.40183" lon="6.08278">
        <ele>240.60000610352</ele>
        <time>2016-09-28T14:28:36Z</time>
      </trkpt>
      <trkpt lat="43.4018" lon="6.08298">
        <ele>240.80000305176</ele>
        <time>2016-09-28T14:28:40Z</time>
      </trkpt>
      <trkpt lat="43.40179" lon="6.08309">
        <ele>240.80000305176</ele>
        <time>2016-09-28T14:28:42Z</time>
      </trkpt>
      <trkpt lat="43.40177" lon="6.08348">
        <ele>240.80000305176</ele>
        <time>2016-09-28T14:28:49Z</time>
      </trkpt>
      <trkpt lat="43.40177" lon="6.08363">
        <ele>241.19999694824</ele>
        <time>2016-09-28T14:28:52Z</time>
      </trkpt>
      <trkpt lat="43.40177" lon="6.08379">
        <ele>241.60000610352</ele>
        <time>2016-09-28T14:28:55Z</time>
      </trkpt>
      <trkpt lat="43.40175" lon="6.084">
        <ele>241.60000610352</ele>
        <time>2016-09-28T14:28:59Z</time>
      </trkpt>
      <trkpt lat="43.40173" lon="6.08417">
        <ele>241.60000610352</ele>
        <time>2016-09-28T14:29:02Z</time>
      </trkpt>
      <trkpt lat="43.40168" lon="6.08475">
        <ele>241.80000305176</ele>
        <time>2016-09-28T14:29:12Z</time>
      </trkpt>
      <trkpt lat="43.40168" lon="6.08482">
        <ele>241.60000610352</ele>
        <time>2016-09-28T14:29:13Z</time>
      </trkpt>
      <trkpt lat="43.40165" lon="6.08542">
        <ele>241</ele>
        <time>2016-09-28T14:29:22Z</time>
      </trkpt>
      <trkpt lat="43.40168" lon="6.08557">
        <ele>240.39999389648</ele>
        <time>2016-09-28T14:29:26Z</time>
      </trkpt>
      <trkpt lat="43.4017" lon="6.08561">
        <ele>240.60000610352</ele>
        <time>2016-09-28T14:29:32Z</time>
      </trkpt>
      <trkpt lat="43.4017" lon="6.08561">
        <ele>240.60000610352</ele>
        <time>2016-09-28T14:29:40Z</time>
      </trkpt>
      <trkpt lat="43.4017" lon="6.08561">
        <ele>240.80000305176</ele>
        <time>2016-09-28T14:29:49Z</time>
      </trkpt>
      <trkpt lat="43.4017" lon="6.08561">
        <ele>240.39999389648</ele>
        <time>2016-09-28T14:31:22Z</time>
      </trkpt>
      <trkpt lat="43.4017" lon="6.08561">
        <ele>240.39999389648</ele>
        <time>2016-09-28T14:31:42Z</time>
      </trkpt>
      <trkpt lat="43.4017" lon="6.08561">
        <ele>240.39999389648</ele>
        <time>2016-09-28T14:32:10Z</time>
      </trkpt>
      <trkpt lat="43.4017" lon="6.08561">
        <ele>240.39999389648</ele>
        <time>2016-09-28T14:32:12Z</time>
      </trkpt>
      <trkpt lat="43.4017" lon="6.0856">
        <ele>240.39999389648</ele>
        <time>2016-09-28T14:32:22Z</time>
      </trkpt>
      <trkpt lat="43.4017" lon="6.08555">
        <ele>240.39999389648</ele>
        <time>2016-09-28T14:32:26Z</time>
      </trkpt>
      <trkpt lat="43.40168" lon="6.08533">
        <ele>241</ele>
        <time>2016-09-28T14:32:32Z</time>
      </trkpt>
      <trkpt lat="43.40169" lon="6.0851">
        <ele>241.19999694824</ele>
        <time>2016-09-28T14:32:37Z</time>
      </trkpt>
      <trkpt lat="43.40171" lon="6.08501">
        <ele>241.19999694824</ele>
        <time>2016-09-28T14:32:39Z</time>
      </trkpt>
      <trkpt lat="43.40171" lon="6.08495">
        <ele>241.19999694824</ele>
        <time>2016-09-28T14:32:40Z</time>
      </trkpt>
      <trkpt lat="43.40172" lon="6.08483">
        <ele>241.39999389648</ele>
        <time>2016-09-28T14:32:42Z</time>
      </trkpt>
      <trkpt lat="43.40176" lon="6.08459">
        <ele>241.80000305176</ele>
        <time>2016-09-28T14:32:46Z</time>
      </trkpt>
      <trkpt lat="43.4018" lon="6.0843">
        <ele>242</ele>
        <time>2016-09-28T14:32:52Z</time>
      </trkpt>
      <trkpt lat="43.40182" lon="6.0841">
        <ele>242</ele>
        <time>2016-09-28T14:32:56Z</time>
      </trkpt>
      <trkpt lat="43.40182" lon="6.08391">
        <ele>241.80000305176</ele>
        <time>2016-09-28T14:32:59Z</time>
      </trkpt>
      <trkpt lat="43.40183" lon="6.08373">
        <ele>241.80000305176</ele>
        <time>2016-09-28T14:33:02Z</time>
      </trkpt>
      <trkpt lat="43.40186" lon="6.08309">
        <ele>241</ele>
        <time>2016-09-28T14:33:12Z</time>
      </trkpt>
      <trkpt lat="43.40189" lon="6.08283">
        <ele>240.80000305176</ele>
        <time>2016-09-28T14:33:16Z</time>
      </trkpt>
      <trkpt lat="43.40189" lon="6.08262">
        <ele>240.39999389648</ele>
        <time>2016-09-28T14:33:21Z</time>
      </trkpt>
      <trkpt lat="43.40188" lon="6.0826">
        <ele>240.39999389648</ele>
        <time>2016-09-28T14:33:22Z</time>
      </trkpt>
      <trkpt lat="43.40184" lon="6.08227">
        <ele>240.39999389648</ele>
        <time>2016-09-28T14:33:32Z</time>
      </trkpt>
      <trkpt lat="43.40186" lon="6.08218">
        <ele>240.60000610352</ele>
        <time>2016-09-28T14:33:36Z</time>
      </trkpt>
      <trkpt lat="43.40188" lon="6.0821">
        <ele>240.60000610352</ele>
        <time>2016-09-28T14:33:41Z</time>
      </trkpt>
      <trkpt lat="43.40189" lon="6.08207">
        <ele>240.60000610352</ele>
        <time>2016-09-28T14:33:42Z</time>
      </trkpt>
      <trkpt lat="43.40195" lon="6.0819">
        <ele>240.39999389648</ele>
        <time>2016-09-28T14:33:49Z</time>
      </trkpt>
      <trkpt lat="43.40196" lon="6.08186">
        <ele>240.19999694824</ele>
        <time>2016-09-28T14:33:52Z</time>
      </trkpt>
      <trkpt lat="43.40195" lon="6.08186">
        <ele>240</ele>
        <time>2016-09-28T14:33:53Z</time>
      </trkpt>
      <trkpt lat="43.40196" lon="6.0818">
        <ele>240</ele>
        <time>2016-09-28T14:33:57Z</time>
      </trkpt>
      <trkpt lat="43.40199" lon="6.08156">
        <ele>239.60000610352</ele>
        <time>2016-09-28T14:34:02Z</time>
      </trkpt>
      <trkpt lat="43.40201" lon="6.08138">
        <ele>239</ele>
        <time>2016-09-28T14:34:05Z</time>
      </trkpt>
      <trkpt lat="43.40197" lon="6.08117">
        <ele>238.19999694824</ele>
        <time>2016-09-28T14:34:09Z</time>
      </trkpt>
      <trkpt lat="43.40194" lon="6.08105">
        <ele>238</ele>
        <time>2016-09-28T14:34:12Z</time>
      </trkpt>
      <trkpt lat="43.40195" lon="6.08095">
        <ele>237.39999389648</ele>
        <time>2016-09-28T14:34:14Z</time>
      </trkpt>
      <trkpt lat="43.40201" lon="6.0807">
        <ele>237</ele>
        <time>2016-09-28T14:34:18Z</time>
      </trkpt>
      <trkpt lat="43.40216" lon="6.08049">
        <ele>236.39999389648</ele>
        <time>2016-09-28T14:34:22Z</time>
      </trkpt>
      <trkpt lat="43.40224" lon="6.08038">
        <ele>235.80000305176</ele>
        <time>2016-09-28T14:34:24Z</time>
      </trkpt>
      <trkpt lat="43.40246" lon="6.08009">
        <ele>234.60000610352</ele>
        <time>2016-09-28T14:34:29Z</time>
      </trkpt>
      <trkpt lat="43.4026" lon="6.07992">
        <ele>233.80000305176</ele>
        <time>2016-09-28T14:34:32Z</time>
      </trkpt>
      <trkpt lat="43.40264" lon="6.07987">
        <ele>233.60000610352</ele>
        <time>2016-09-28T14:34:33Z</time>
      </trkpt>
      <trkpt lat="43.4028" lon="6.07961">
        <ele>233.19999694824</ele>
        <time>2016-09-28T14:34:38Z</time>
      </trkpt>
      <trkpt lat="43.40289" lon="6.07935">
        <ele>232.60000610352</ele>
        <time>2016-09-28T14:34:42Z</time>
      </trkpt>
      <trkpt lat="43.40293" lon="6.07918">
        <ele>232.39999389648</ele>
        <time>2016-09-28T14:34:45Z</time>
      </trkpt>
      <trkpt lat="43.403" lon="6.07869">
        <ele>231.60000610352</ele>
        <time>2016-09-28T14:34:52Z</time>
      </trkpt>
      <trkpt lat="43.403" lon="6.07861">
        <ele>231.39999389648</ele>
        <time>2016-09-28T14:34:53Z</time>
      </trkpt>
      <trkpt lat="43.40306" lon="6.07812">
        <ele>230.39999389648</ele>
        <time>2016-09-28T14:34:59Z</time>
      </trkpt>
      <trkpt lat="43.40309" lon="6.07788">
        <ele>230</ele>
        <time>2016-09-28T14:35:02Z</time>
      </trkpt>
      <trkpt lat="43.40313" lon="6.07749">
        <ele>229.80000305176</ele>
        <time>2016-09-28T14:35:07Z</time>
      </trkpt>
      <trkpt lat="43.40316" lon="6.07733">
        <ele>229.19999694824</ele>
        <time>2016-09-28T14:35:09Z</time>
      </trkpt>
      <trkpt lat="43.40324" lon="6.07709">
        <ele>228.60000610352</ele>
        <time>2016-09-28T14:35:12Z</time>
      </trkpt>
      <trkpt lat="43.40335" lon="6.0769">
        <ele>228</ele>
        <time>2016-09-28T14:35:15Z</time>
      </trkpt>
      <trkpt lat="43.40361" lon="6.07661">
        <ele>227.60000610352</ele>
        <time>2016-09-28T14:35:21Z</time>
      </trkpt>
      <trkpt lat="43.40364" lon="6.07656">
        <ele>227.60000610352</ele>
        <time>2016-09-28T14:35:22Z</time>
      </trkpt>
      <trkpt lat="43.40367" lon="6.0765">
        <ele>227.80000305176</ele>
        <time>2016-09-28T14:35:23Z</time>
      </trkpt>
      <trkpt lat="43.40372" lon="6.07621">
        <ele>227.80000305176</ele>
        <time>2016-09-28T14:35:27Z</time>
      </trkpt>
      <trkpt lat="43.40375" lon="6.07591">
        <ele>227.80000305176</ele>
        <time>2016-09-28T14:35:31Z</time>
      </trkpt>
      <trkpt lat="43.40376" lon="6.07547">
        <ele>228</ele>
        <time>2016-09-28T14:35:37Z</time>
      </trkpt>
      <trkpt lat="43.40378" lon="6.07512">
        <ele>228.60000610352</ele>
        <time>2016-09-28T14:35:42Z</time>
      </trkpt>
      <trkpt lat="43.4039" lon="6.07442">
        <ele>228.60000610352</ele>
        <time>2016-09-28T14:35:52Z</time>
      </trkpt>
      <trkpt lat="43.40392" lon="6.07371">
        <ele>228.39999389648</ele>
        <time>2016-09-28T14:36:02Z</time>
      </trkpt>
      <trkpt lat="43.40385" lon="6.07319">
        <ele>227</ele>
        <time>2016-09-28T14:36:10Z</time>
      </trkpt>
      <trkpt lat="43.40383" lon="6.07304">
        <ele>226.39999389648</ele>
        <time>2016-09-28T14:36:12Z</time>
      </trkpt>
      <trkpt lat="43.40384" lon="6.07297">
        <ele>226.19999694824</ele>
        <time>2016-09-28T14:36:13Z</time>
      </trkpt>
      <trkpt lat="43.40387" lon="6.0729">
        <ele>226</ele>
        <time>2016-09-28T14:36:14Z</time>
      </trkpt>
      <trkpt lat="43.40391" lon="6.07284">
        <ele>225.60000610352</ele>
        <time>2016-09-28T14:36:15Z</time>
      </trkpt>
      <trkpt lat="43.40403" lon="6.0728">
        <ele>225.19999694824</ele>
        <time>2016-09-28T14:36:17Z</time>
      </trkpt>
      <trkpt lat="43.40417" lon="6.07281">
        <ele>224.80000305176</ele>
        <time>2016-09-28T14:36:19Z</time>
      </trkpt>
      <trkpt lat="43.40438" lon="6.0728">
        <ele>223.39999389648</ele>
        <time>2016-09-28T14:36:22Z</time>
      </trkpt>
      <trkpt lat="43.40464" lon="6.07279">
        <ele>222.39999389648</ele>
        <time>2016-09-28T14:36:26Z</time>
      </trkpt>
      <trkpt lat="43.40491" lon="6.07278">
        <ele>221.19999694824</ele>
        <time>2016-09-28T14:36:30Z</time>
      </trkpt>
      <trkpt lat="43.40497" lon="6.07279">
        <ele>221</ele>
        <time>2016-09-28T14:36:31Z</time>
      </trkpt>
      <trkpt lat="43.40503" lon="6.07281">
        <ele>220.80000305176</ele>
        <time>2016-09-28T14:36:32Z</time>
      </trkpt>
      <trkpt lat="43.40508" lon="6.07284">
        <ele>220.60000610352</ele>
        <time>2016-09-28T14:36:33Z</time>
      </trkpt>
      <trkpt lat="43.40516" lon="6.07296">
        <ele>220.60000610352</ele>
        <time>2016-09-28T14:36:35Z</time>
      </trkpt>
      <trkpt lat="43.40524" lon="6.07301">
        <ele>220.39999389648</ele>
        <time>2016-09-28T14:36:37Z</time>
      </trkpt>
      <trkpt lat="43.40539" lon="6.07299">
        <ele>220.39999389648</ele>
        <time>2016-09-28T14:36:40Z</time>
      </trkpt>
      <trkpt lat="43.40549" lon="6.073">
        <ele>220.19999694824</ele>
        <time>2016-09-28T14:36:42Z</time>
      </trkpt>
      <trkpt lat="43.40556" lon="6.07302">
        <ele>220.19999694824</ele>
        <time>2016-09-28T14:36:44Z</time>
      </trkpt>
      <trkpt lat="43.40559" lon="6.07304">
        <ele>220.80000305176</ele>
        <time>2016-09-28T14:36:52Z</time>
      </trkpt>
      <trkpt lat="43.40559" lon="6.07304">
        <ele>220.39999389648</ele>
        <time>2016-09-28T14:37:00Z</time>
      </trkpt>
      <trkpt lat="43.40562" lon="6.07304">
        <ele>220.19999694824</ele>
        <time>2016-09-28T14:37:02Z</time>
      </trkpt>
      <trkpt lat="43.40574" lon="6.07306">
        <ele>220.19999694824</ele>
        <time>2016-09-28T14:37:05Z</time>
      </trkpt>
      <trkpt lat="43.40583" lon="6.07303">
        <ele>220.19999694824</ele>
        <time>2016-09-28T14:37:07Z</time>
      </trkpt>
      <trkpt lat="43.40589" lon="6.073">
        <ele>220</ele>
        <time>2016-09-28T14:37:08Z</time>
      </trkpt>
      <trkpt lat="43.40594" lon="6.07298">
        <ele>219.80000305176</ele>
        <time>2016-09-28T14:37:09Z</time>
      </trkpt>
      <trkpt lat="43.40599" lon="6.07299">
        <ele>219.60000610352</ele>
        <time>2016-09-28T14:37:10Z</time>
      </trkpt>
      <trkpt lat="43.40607" lon="6.0731">
        <ele>219.19999694824</ele>
        <time>2016-09-28T14:37:12Z</time>
      </trkpt>
      <trkpt lat="43.40615" lon="6.07321">
        <ele>218.80000305176</ele>
        <time>2016-09-28T14:37:14Z</time>
      </trkpt>
      <trkpt lat="43.40621" lon="6.07334">
        <ele>218.60000610352</ele>
        <time>2016-09-28T14:37:16Z</time>
      </trkpt>
      <trkpt lat="43.40631" lon="6.07339">
        <ele>218.39999389648</ele>
        <time>2016-09-28T14:37:18Z</time>
      </trkpt>
      <trkpt lat="43.4064" lon="6.07331">
        <ele>218.19999694824</ele>
        <time>2016-09-28T14:37:20Z</time>
      </trkpt>
      <trkpt lat="43.40649" lon="6.0732">
        <ele>217.80000305176</ele>
        <time>2016-09-28T14:37:22Z</time>
      </trkpt>
      <trkpt lat="43.40672" lon="6.07306">
        <ele>216.80000305176</ele>
        <time>2016-09-28T14:37:26Z</time>
      </trkpt>
      <trkpt lat="43.4071" lon="6.07284">
        <ele>215.60000610352</ele>
        <time>2016-09-28T14:37:32Z</time>
      </trkpt>
      <trkpt lat="43.40757" lon="6.07258">
        <ele>214.60000610352</ele>
        <time>2016-09-28T14:37:40Z</time>
      </trkpt>
      <trkpt lat="43.40766" lon="6.07252">
        <ele>214.39999389648</ele>
        <time>2016-09-28T14:37:42Z</time>
      </trkpt>
      <trkpt lat="43.40807" lon="6.07216">
        <ele>214</ele>
        <time>2016-09-28T14:37:51Z</time>
      </trkpt>
      <trkpt lat="43.40811" lon="6.07211">
        <ele>214</ele>
        <time>2016-09-28T14:37:52Z</time>
      </trkpt>
      <trkpt lat="43.40831" lon="6.07176">
        <ele>214.39999389648</ele>
        <time>2016-09-28T14:37:59Z</time>
      </trkpt>
      <trkpt lat="43.40836" lon="6.07161">
        <ele>214.39999389648</ele>
        <time>2016-09-28T14:38:02Z</time>
      </trkpt>
      <trkpt lat="43.40849" lon="6.07114">
        <ele>214.39999389648</ele>
        <time>2016-09-28T14:38:12Z</time>
      </trkpt>
      <trkpt lat="43.40851" lon="6.07085">
        <ele>214.39999389648</ele>
        <time>2016-09-28T14:38:22Z</time>
      </trkpt>
      <trkpt lat="43.40851" lon="6.07069">
        <ele>214.39999389648</ele>
        <time>2016-09-28T14:38:32Z</time>
      </trkpt>
      <trkpt lat="43.4085" lon="6.07055">
        <ele>214.39999389648</ele>
        <time>2016-09-28T14:38:42Z</time>
      </trkpt>
      <trkpt lat="43.40846" lon="6.07019">
        <ele>214.19999694824</ele>
        <time>2016-09-28T14:38:49Z</time>
      </trkpt>
      <trkpt lat="43.40851" lon="6.07011">
        <ele>214</ele>
        <time>2016-09-28T14:38:51Z</time>
      </trkpt>
      <trkpt lat="43.40856" lon="6.07009">
        <ele>214</ele>
        <time>2016-09-28T14:38:52Z</time>
      </trkpt>
      <trkpt lat="43.40875" lon="6.07004">
        <ele>213.80000305176</ele>
        <time>2016-09-28T14:38:56Z</time>
      </trkpt>
      <trkpt lat="43.40897" lon="6.06996">
        <ele>213.80000305176</ele>
        <time>2016-09-28T14:39:00Z</time>
      </trkpt>
      <trkpt lat="43.40906" lon="6.06986">
        <ele>213.80000305176</ele>
        <time>2016-09-28T14:39:02Z</time>
      </trkpt>
      <trkpt lat="43.4091" lon="6.06971">
        <ele>213.80000305176</ele>
        <time>2016-09-28T14:39:04Z</time>
      </trkpt>
      <trkpt lat="43.40914" lon="6.06957">
        <ele>213.60000610352</ele>
        <time>2016-09-28T14:39:06Z</time>
      </trkpt>
      <trkpt lat="43.40918" lon="6.06952">
        <ele>213.60000610352</ele>
        <time>2016-09-28T14:39:07Z</time>
      </trkpt>
      <trkpt lat="43.40923" lon="6.0695">
        <ele>213.39999389648</ele>
        <time>2016-09-28T14:39:08Z</time>
      </trkpt>
      <trkpt lat="43.40948" lon="6.06945">
        <ele>213.39999389648</ele>
        <time>2016-09-28T14:39:12Z</time>
      </trkpt>
      <trkpt lat="43.40988" lon="6.06933">
        <ele>213.39999389648</ele>
        <time>2016-09-28T14:39:18Z</time>
      </trkpt>
      <trkpt lat="43.40994" lon="6.06931">
        <ele>213.39999389648</ele>
        <time>2016-09-28T14:39:19Z</time>
      </trkpt>
      <trkpt lat="43.41" lon="6.06928">
        <ele>213.60000610352</ele>
        <time>2016-09-28T14:39:20Z</time>
      </trkpt>
      <trkpt lat="43.4101" lon="6.06922">
        <ele>214</ele>
        <time>2016-09-28T14:39:22Z</time>
      </trkpt>
      <trkpt lat="43.41014" lon="6.06918">
        <ele>214</ele>
        <time>2016-09-28T14:39:23Z</time>
      </trkpt>
      <trkpt lat="43.4102" lon="6.06907">
        <ele>214</ele>
        <time>2016-09-28T14:39:25Z</time>
      </trkpt>
      <trkpt lat="43.41022" lon="6.06895">
        <ele>213.80000305176</ele>
        <time>2016-09-28T14:39:27Z</time>
      </trkpt>
      <trkpt lat="43.41031" lon="6.06883">
        <ele>214.19999694824</ele>
        <time>2016-09-28T14:39:32Z</time>
      </trkpt>
      <trkpt lat="43.41031" lon="6.06882">
        <ele>214.19999694824</ele>
        <time>2016-09-28T14:39:34Z</time>
      </trkpt>
      <trkpt lat="43.41032" lon="6.06881">
        <ele>214.39999389648</ele>
        <time>2016-09-28T14:39:35Z</time>
      </trkpt>
      <trkpt lat="43.41034" lon="6.0688">
        <ele>214.39999389648</ele>
        <time>2016-09-28T14:39:37Z</time>
      </trkpt>
      <trkpt lat="43.41035" lon="6.06879">
        <ele>214.39999389648</ele>
        <time>2016-09-28T14:39:39Z</time>
      </trkpt>
      <trkpt lat="43.41036" lon="6.06879">
        <ele>214.60000610352</ele>
        <time>2016-09-28T14:39:40Z</time>
      </trkpt>
      <trkpt lat="43.4104" lon="6.06879">
        <ele>214.80000305176</ele>
        <time>2016-09-28T14:39:42Z</time>
      </trkpt>
      <trkpt lat="43.41049" lon="6.06875">
        <ele>215.80000305176</ele>
        <time>2016-09-28T14:39:47Z</time>
      </trkpt>
      <trkpt lat="43.41061" lon="6.06871">
        <ele>216.19999694824</ele>
        <time>2016-09-28T14:39:52Z</time>
      </trkpt>
      <trkpt lat="43.41065" lon="6.06868">
        <ele>216</ele>
        <time>2016-09-28T14:39:54Z</time>
      </trkpt>
      <trkpt lat="43.41068" lon="6.06848">
        <ele>215</ele>
        <time>2016-09-28T14:39:58Z</time>
      </trkpt>
      <trkpt lat="43.41069" lon="6.06843">
        <ele>214.60000610352</ele>
        <time>2016-09-28T14:39:59Z</time>
      </trkpt>
      <trkpt lat="43.41072" lon="6.06835">
        <ele>214.39999389648</ele>
        <time>2016-09-28T14:40:02Z</time>
      </trkpt>
      <trkpt lat="43.41082" lon="6.06808">
        <ele>214.39999389648</ele>
        <time>2016-09-28T14:40:10Z</time>
      </trkpt>
      <trkpt lat="43.41084" lon="6.06798">
        <ele>214.19999694824</ele>
        <time>2016-09-28T14:40:12Z</time>
      </trkpt>
      <trkpt lat="43.41085" lon="6.06774">
        <ele>214.19999694824</ele>
        <time>2016-09-28T14:40:16Z</time>
      </trkpt>
      <trkpt lat="43.41087" lon="6.06762">
        <ele>214.19999694824</ele>
        <time>2016-09-28T14:40:18Z</time>
      </trkpt>
      <trkpt lat="43.41096" lon="6.06745">
        <ele>214.19999694824</ele>
        <time>2016-09-28T14:40:22Z</time>
      </trkpt>
      <trkpt lat="43.41119" lon="6.06726">
        <ele>214.80000305176</ele>
        <time>2016-09-28T14:40:28Z</time>
      </trkpt>
      <trkpt lat="43.41136" lon="6.06717">
        <ele>214.80000305176</ele>
        <time>2016-09-28T14:40:32Z</time>
      </trkpt>
      <trkpt lat="43.41178" lon="6.06715">
        <ele>215</ele>
        <time>2016-09-28T14:40:42Z</time>
      </trkpt>
      <trkpt lat="43.41208" lon="6.06717">
        <ele>215.80000305176</ele>
        <time>2016-09-28T14:40:50Z</time>
      </trkpt>
      <trkpt lat="43.41215" lon="6.06717">
        <ele>216</ele>
        <time>2016-09-28T14:40:52Z</time>
      </trkpt>
      <trkpt lat="43.4124" lon="6.06712">
        <ele>217</ele>
        <time>2016-09-28T14:41:00Z</time>
      </trkpt>
      <trkpt lat="43.41244" lon="6.06711">
        <ele>217.39999389648</ele>
        <time>2016-09-28T14:41:02Z</time>
      </trkpt>
      <trkpt lat="43.41247" lon="6.06711">
        <ele>217.60000610352</ele>
        <time>2016-09-28T14:41:06Z</time>
      </trkpt>
      <trkpt lat="43.41247" lon="6.06711">
        <ele>217.60000610352</ele>
        <time>2016-09-28T14:41:07Z</time>
      </trkpt>
      <trkpt lat="43.41247" lon="6.06711">
        <ele>217.80000305176</ele>
        <time>2016-09-28T14:41:11Z</time>
      </trkpt>
      <trkpt lat="43.41247" lon="6.06711">
        <ele>217.60000610352</ele>
        <time>2016-09-28T14:41:28Z</time>
      </trkpt>
      <trkpt lat="43.4125" lon="6.06711">
        <ele>217.60000610352</ele>
        <time>2016-09-28T14:41:30Z</time>
      </trkpt>
      <trkpt lat="43.41254" lon="6.06714">
        <ele>217.60000610352</ele>
        <time>2016-09-28T14:41:32Z</time>
      </trkpt>
      <trkpt lat="43.41259" lon="6.06719">
        <ele>217.60000610352</ele>
        <time>2016-09-28T14:41:34Z</time>
      </trkpt>
      <trkpt lat="43.41275" lon="6.06752">
        <ele>218</ele>
        <time>2016-09-28T14:41:42Z</time>
      </trkpt>
      <trkpt lat="43.41282" lon="6.06766">
        <ele>218.60000610352</ele>
        <time>2016-09-28T14:41:45Z</time>
      </trkpt>
      <trkpt lat="43.41297" lon="6.06787">
        <ele>218.80000305176</ele>
        <time>2016-09-28T14:41:50Z</time>
      </trkpt>
      <trkpt lat="43.41304" lon="6.06794">
        <ele>218.80000305176</ele>
        <time>2016-09-28T14:41:52Z</time>
      </trkpt>
      <trkpt lat="43.41312" lon="6.06801">
        <ele>219.19999694824</ele>
        <time>2016-09-28T14:41:54Z</time>
      </trkpt>
      <trkpt lat="43.41343" lon="6.0682">
        <ele>220.19999694824</ele>
        <time>2016-09-28T14:42:02Z</time>
      </trkpt>
      <trkpt lat="43.4136" lon="6.06828">
        <ele>220.60000610352</ele>
        <time>2016-09-28T14:42:07Z</time>
      </trkpt>
      <trkpt lat="43.41377" lon="6.06835">
        <ele>220.60000610352</ele>
        <time>2016-09-28T14:42:12Z</time>
      </trkpt>
      <trkpt lat="43.41407" lon="6.06864">
        <ele>220.19999694824</ele>
        <time>2016-09-28T14:42:22Z</time>
      </trkpt>
      <trkpt lat="43.41411" lon="6.06873">
        <ele>220.19999694824</ele>
        <time>2016-09-28T14:42:27Z</time>
      </trkpt>
      <trkpt lat="43.41411" lon="6.06873">
        <ele>220.39999389648</ele>
        <time>2016-09-28T14:42:32Z</time>
      </trkpt>
      <trkpt lat="43.41411" lon="6.06873">
        <ele>220.19999694824</ele>
        <time>2016-09-28T14:42:34Z</time>
      </trkpt>
      <trkpt lat="43.41411" lon="6.06873">
        <ele>220.39999389648</ele>
        <time>2016-09-28T14:42:38Z</time>
      </trkpt>
      <trkpt lat="43.41412" lon="6.06875">
        <ele>220.39999389648</ele>
        <time>2016-09-28T14:42:42Z</time>
      </trkpt>
      <trkpt lat="43.41422" lon="6.06911">
        <ele>220.39999389648</ele>
        <time>2016-09-28T14:42:52Z</time>
      </trkpt>
      <trkpt lat="43.41429" lon="6.06919">
        <ele>220.39999389648</ele>
        <time>2016-09-28T14:42:54Z</time>
      </trkpt>
      <trkpt lat="43.41438" lon="6.06923">
        <ele>220.19999694824</ele>
        <time>2016-09-28T14:42:56Z</time>
      </trkpt>
      <trkpt lat="43.41453" lon="6.06923">
        <ele>220</ele>
        <time>2016-09-28T14:42:59Z</time>
      </trkpt>
      <trkpt lat="43.41463" lon="6.06928">
        <ele>219.80000305176</ele>
        <time>2016-09-28T14:43:01Z</time>
      </trkpt>
      <trkpt lat="43.41474" lon="6.06943">
        <ele>219.60000610352</ele>
        <time>2016-09-28T14:43:04Z</time>
      </trkpt>
      <trkpt lat="43.41482" lon="6.06961">
        <ele>219.19999694824</ele>
        <time>2016-09-28T14:43:07Z</time>
      </trkpt>
      <trkpt lat="43.41486" lon="6.06966">
        <ele>219</ele>
        <time>2016-09-28T14:43:08Z</time>
      </trkpt>
      <trkpt lat="43.4149" lon="6.06968">
        <ele>219.19999694824</ele>
        <time>2016-09-28T14:43:09Z</time>
      </trkpt>
      <trkpt lat="43.415" lon="6.06965">
        <ele>219.39999389648</ele>
        <time>2016-09-28T14:43:12Z</time>
      </trkpt>
      <trkpt lat="43.41502" lon="6.06965">
        <ele>219.60000610352</ele>
        <time>2016-09-28T14:43:13Z</time>
      </trkpt>
      <trkpt lat="43.41525" lon="6.06973">
        <ele>220</ele>
        <time>2016-09-28T14:43:21Z</time>
      </trkpt>
      <trkpt lat="43.41529" lon="6.06973">
        <ele>219.80000305176</ele>
        <time>2016-09-28T14:43:22Z</time>
      </trkpt>
      <trkpt lat="43.41561" lon="6.06965">
        <ele>220.19999694824</ele>
        <time>2016-09-28T14:43:31Z</time>
      </trkpt>
      <trkpt lat="43.41571" lon="6.06965">
        <ele>220.19999694824</ele>
        <time>2016-09-28T14:43:35Z</time>
      </trkpt>
      <trkpt lat="43.41574" lon="6.06986">
        <ele>221</ele>
        <time>2016-09-28T14:43:42Z</time>
      </trkpt>
      <trkpt lat="43.41579" lon="6.07029">
        <ele>220.39999389648</ele>
        <time>2016-09-28T14:43:52Z</time>
      </trkpt>
      <trkpt lat="43.4158" lon="6.07034">
        <ele>221.19999694824</ele>
        <time>2016-09-28T14:44:00Z</time>
      </trkpt>
    </trkseg>
  </trk>
</gpx>